<?xml version="1.0" encoding="UTF-8"?>
<gpx version="1.0" creator="Trackator" xmlns:xsi="http://www.w3.org/2001/XMLSchema-instance" xmlns="http://www.topografix.com/GPX/1/0" xmlns:topografix="http://www.topografix.com/GPX/Private/TopoGrafix/0/1" xsi:schemaLocation="http://www.topografix.com/GPX/1/0 http://www.topografix.com/GPX/1/0/gpx.xsd http://www.topografix.com/GPX/Private/TopoGrafix/0/1 http://www.topografix.com/GPX/Private/TopoGrafix/0/1/topografix.xsd">
<metadata>
<link href="http://www.trackalia.com">
<text>Trackator</text>
</link>
</metadata>
<time>2013-06-29T:13:29Z</time>
<trk>
<name>Track: </name>
<desc>Paragliding</desc>
<trkseg>
<trkpt lat="38.23193914" lon="-1.12045012">
<ele>429</ele>
<time>2013-06-29T:13:29Z</time>
</trkpt>
<trkpt lat="38.23187502" lon="-1.12040854">
<ele>428</ele>
<time>2013-06-29T18:13:33Z</time>
</trkpt>
<trkpt lat="38.23174471" lon="-1.12031897">
<ele>433</ele>
<time>2013-06-29T18:13:37Z</time>
</trkpt>
<trkpt lat="38.23144748" lon="-1.12040901">
<ele>438</ele>
<time>2013-06-29T18:13:41Z</time>
</trkpt>
<trkpt lat="38.23126147" lon="-1.12052445">
<ele>430</ele>
<time>2013-06-29T18:13:45Z</time>
</trkpt>
<trkpt lat="38.231364" lon="-1.12028166">
<ele>428</ele>
<time>2013-06-29T18:13:49Z</time>
</trkpt>
<trkpt lat="38.23168287" lon="-1.12026328">
<ele>433</ele>
<time>2013-06-29T18:13:53Z</time>
</trkpt>
<trkpt lat="38.23181105" lon="-1.1201145">
<ele>435</ele>
<time>2013-06-29T18:13:57Z</time>
</trkpt>
<trkpt lat="38.2319034" lon="-1.11997937">
<ele>436</ele>
<time>2013-06-29T18:14:01Z</time>
</trkpt>
<trkpt lat="38.23199591" lon="-1.11979055">
<ele>436</ele>
<time>2013-06-29T18:14:05Z</time>
</trkpt>
<trkpt lat="38.23182636" lon="-1.11977701">
<ele>428</ele>
<time>2013-06-29T18:14:09Z</time>
</trkpt>
<trkpt lat="38.23161036" lon="-1.1202717">
<ele>429</ele>
<time>2013-06-29T18:14:13Z</time>
</trkpt>
<trkpt lat="38.23139317" lon="-1.12069114">
<ele>431</ele>
<time>2013-06-29T18:14:17Z</time>
</trkpt>
<trkpt lat="38.23115804" lon="-1.12093758">
<ele>433</ele>
<time>2013-06-29T18:14:21Z</time>
</trkpt>
<trkpt lat="38.23118674" lon="-1.12073753">
<ele>430</ele>
<time>2013-06-29T18:14:25Z</time>
</trkpt>
<trkpt lat="38.23148613" lon="-1.12062408">
<ele>429</ele>
<time>2013-06-29T18:14:29Z</time>
</trkpt>
<trkpt lat="38.23166672" lon="-1.1204768">
<ele>426</ele>
<time>2013-06-29T18:14:33Z</time>
</trkpt>
<trkpt lat="38.2318596" lon="-1.12032779">
<ele>428</ele>
<time>2013-06-29T18:14:37Z</time>
</trkpt>
<trkpt lat="38.23201027" lon="-1.12011374">
<ele>429</ele>
<time>2013-06-29T18:14:41Z</time>
</trkpt>
<trkpt lat="38.23218594" lon="-1.11994737">
<ele>432</ele>
<time>2013-06-29T18:14:45Z</time>
</trkpt>
<trkpt lat="38.23225167" lon="-1.11972734">
<ele>430</ele>
<time>2013-06-29T18:14:49Z</time>
</trkpt>
<trkpt lat="38.23201053" lon="-1.11977213">
<ele>426</ele>
<time>2013-06-29T18:14:53Z</time>
</trkpt>
<trkpt lat="38.23183509" lon="-1.12026806">
<ele>432</ele>
<time>2013-06-29T18:14:57Z</time>
</trkpt>
<trkpt lat="38.23164448" lon="-1.1205772">
<ele>432</ele>
<time>2013-06-29T18:15:01Z</time>
</trkpt>
<trkpt lat="38.23143416" lon="-1.12089585">
<ele>433</ele>
<time>2013-06-29T18:15:05Z</time>
</trkpt>
<trkpt lat="38.23122008" lon="-1.12086149">
<ele>433</ele>
<time>2013-06-29T18:15:09Z</time>
</trkpt>
<trkpt lat="38.23151056" lon="-1.12057889">
<ele>434</ele>
<time>2013-06-29T18:15:13Z</time>
</trkpt>
<trkpt lat="38.23167291" lon="-1.12042458">
<ele>433</ele>
<time>2013-06-29T18:15:17Z</time>
</trkpt>
<trkpt lat="38.23182559" lon="-1.12029437">
<ele>438</ele>
<time>2013-06-29T18:15:21Z</time>
</trkpt>
<trkpt lat="38.23191948" lon="-1.12020961">
<ele>443</ele>
<time>2013-06-29T18:15:25Z</time>
</trkpt>
<trkpt lat="38.23170703" lon="-1.12032423">
<ele>443</ele>
<time>2013-06-29T18:15:29Z</time>
</trkpt>
<trkpt lat="38.23149038" lon="-1.12066873">
<ele>450</ele>
<time>2013-06-29T18:15:33Z</time>
</trkpt>
<trkpt lat="38.23131889" lon="-1.12065793">
<ele>452</ele>
<time>2013-06-29T18:15:37Z</time>
</trkpt>
<trkpt lat="38.23147788" lon="-1.12048862">
<ele>451</ele>
<time>2013-06-29T18:15:41Z</time>
</trkpt>
<trkpt lat="38.23160686" lon="-1.12033385">
<ele>449</ele>
<time>2013-06-29T18:15:45Z</time>
</trkpt>
<trkpt lat="38.23142388" lon="-1.120438">
<ele>448</ele>
<time>2013-06-29T18:15:49Z</time>
</trkpt>
<trkpt lat="38.23125187" lon="-1.12067773">
<ele>448</ele>
<time>2013-06-29T18:15:53Z</time>
</trkpt>
<trkpt lat="38.23111233" lon="-1.12063472">
<ele>447</ele>
<time>2013-06-29T18:15:57Z</time>
</trkpt>
<trkpt lat="38.23124972" lon="-1.1204941">
<ele>444</ele>
<time>2013-06-29T18:16:01Z</time>
</trkpt>
<trkpt lat="38.23145073" lon="-1.12034444">
<ele>444</ele>
<time>2013-06-29T18:16:05Z</time>
</trkpt>
<trkpt lat="38.23164257" lon="-1.12021921">
<ele>444</ele>
<time>2013-06-29T18:16:09Z</time>
</trkpt>
<trkpt lat="38.23168554" lon="-1.12007375">
<ele>446</ele>
<time>2013-06-29T18:16:13Z</time>
</trkpt>
<trkpt lat="38.23159132" lon="-1.11998921">
<ele>447</ele>
<time>2013-06-29T18:16:17Z</time>
</trkpt>
<trkpt lat="38.23149086" lon="-1.11986674">
<ele>449</ele>
<time>2013-06-29T18:16:21Z</time>
</trkpt>
<trkpt lat="38.23144981" lon="-1.11976287">
<ele>445</ele>
<time>2013-06-29T18:16:25Z</time>
</trkpt>
<trkpt lat="38.2314595" lon="-1.11961488">
<ele>444</ele>
<time>2013-06-29T18:16:29Z</time>
</trkpt>
<trkpt lat="38.23144254" lon="-1.11949843">
<ele>444</ele>
<time>2013-06-29T18:16:33Z</time>
</trkpt>
<trkpt lat="38.23147916" lon="-1.11935951">
<ele>441</ele>
<time>2013-06-29T18:16:37Z</time>
</trkpt>
<trkpt lat="38.23146359" lon="-1.11919703">
<ele>440</ele>
<time>2013-06-29T18:16:41Z</time>
</trkpt>
<trkpt lat="38.23144695" lon="-1.11901733">
<ele>437</ele>
<time>2013-06-29T18:16:45Z</time>
</trkpt>
<trkpt lat="38.23143152" lon="-1.11885175">
<ele>436</ele>
<time>2013-06-29T18:16:49Z</time>
</trkpt>
<trkpt lat="38.23141577" lon="-1.1186739">
<ele>437</ele>
<time>2013-06-29T18:16:53Z</time>
</trkpt>
<trkpt lat="38.23121182" lon="-1.11885511">
<ele>427</ele>
<time>2013-06-29T18:16:57Z</time>
</trkpt>
<trkpt lat="38.23115918" lon="-1.11944009">
<ele>428</ele>
<time>2013-06-29T18:17:01Z</time>
</trkpt>
<trkpt lat="38.23143543" lon="-1.11988829">
<ele>424</ele>
<time>2013-06-29T18:17:05Z</time>
</trkpt>
<trkpt lat="38.23179386" lon="-1.11987712">
<ele>425</ele>
<time>2013-06-29T18:17:09Z</time>
</trkpt>
<trkpt lat="38.23181335" lon="-1.11980801">
<ele>425</ele>
<time>2013-06-29T18:17:13Z</time>
</trkpt>
<trkpt lat="38.23144922" lon="-1.12017136">
<ele>425</ele>
<time>2013-06-29T18:17:17Z</time>
</trkpt>
<trkpt lat="38.23131172" lon="-1.12071835">
<ele>428</ele>
<time>2013-06-29T18:17:21Z</time>
</trkpt>
<trkpt lat="38.23101968" lon="-1.12096244">
<ele>435</ele>
<time>2013-06-29T18:17:25Z</time>
</trkpt>
<trkpt lat="38.23089975" lon="-1.12075061">
<ele>436</ele>
<time>2013-06-29T18:17:29Z</time>
</trkpt>
<trkpt lat="38.23088269" lon="-1.12064861">
<ele>435</ele>
<time>2013-06-29T18:17:33Z</time>
</trkpt>
<trkpt lat="38.23094914" lon="-1.12048871">
<ele>436</ele>
<time>2013-06-29T18:17:37Z</time>
</trkpt>
<trkpt lat="38.23118956" lon="-1.12036275">
<ele>437</ele>
<time>2013-06-29T18:17:41Z</time>
</trkpt>
<trkpt lat="38.23130126" lon="-1.1202597">
<ele>437</ele>
<time>2013-06-29T18:17:45Z</time>
</trkpt>
<trkpt lat="38.23106393" lon="-1.12053135">
<ele>437</ele>
<time>2013-06-29T18:17:49Z</time>
</trkpt>
<trkpt lat="38.23092729" lon="-1.12104253">
<ele>441</ele>
<time>2013-06-29T18:17:53Z</time>
</trkpt>
<trkpt lat="38.23074242" lon="-1.12095743">
<ele>443</ele>
<time>2013-06-29T18:17:57Z</time>
</trkpt>
<trkpt lat="38.23073676" lon="-1.12080479">
<ele>443</ele>
<time>2013-06-29T18:18:01Z</time>
</trkpt>
<trkpt lat="38.23107413" lon="-1.12069603">
<ele>442</ele>
<time>2013-06-29T18:18:05Z</time>
</trkpt>
<trkpt lat="38.23131958" lon="-1.12063794">
<ele>439</ele>
<time>2013-06-29T18:18:09Z</time>
</trkpt>
<trkpt lat="38.23154371" lon="-1.12054791">
<ele>435</ele>
<time>2013-06-29T18:18:13Z</time>
</trkpt>
<trkpt lat="38.23173286" lon="-1.12045601">
<ele>434</ele>
<time>2013-06-29T18:18:17Z</time>
</trkpt>
<trkpt lat="38.23187152" lon="-1.12033988">
<ele>435</ele>
<time>2013-06-29T18:18:21Z</time>
</trkpt>
<trkpt lat="38.23187515" lon="-1.12021861">
<ele>438</ele>
<time>2013-06-29T18:18:25Z</time>
</trkpt>
<trkpt lat="38.23165661" lon="-1.12035818">
<ele>438</ele>
<time>2013-06-29T18:18:29Z</time>
</trkpt>
<trkpt lat="38.23145087" lon="-1.12069517">
<ele>439</ele>
<time>2013-06-29T18:18:33Z</time>
</trkpt>
<trkpt lat="38.23122024" lon="-1.12080814">
<ele>440</ele>
<time>2013-06-29T18:18:37Z</time>
</trkpt>
<trkpt lat="38.23112292" lon="-1.12066051">
<ele>438</ele>
<time>2013-06-29T18:18:41Z</time>
</trkpt>
<trkpt lat="38.23117349" lon="-1.12049499">
<ele>439</ele>
<time>2013-06-29T18:18:45Z</time>
</trkpt>
<trkpt lat="38.2312197" lon="-1.12033238">
<ele>441</ele>
<time>2013-06-29T18:18:49Z</time>
</trkpt>
<trkpt lat="38.23126059" lon="-1.12019967">
<ele>443</ele>
<time>2013-06-29T18:18:53Z</time>
</trkpt>
<trkpt lat="38.23136466" lon="-1.120054">
<ele>444</ele>
<time>2013-06-29T18:18:57Z</time>
</trkpt>
<trkpt lat="38.23132319" lon="-1.11982892">
<ele>441</ele>
<time>2013-06-29T18:19:01Z</time>
</trkpt>
<trkpt lat="38.23110717" lon="-1.11994113">
<ele>442</ele>
<time>2013-06-29T18:19:05Z</time>
</trkpt>
<trkpt lat="38.23086862" lon="-1.12005959">
<ele>441</ele>
<time>2013-06-29T18:19:09Z</time>
</trkpt>
<trkpt lat="38.23085687" lon="-1.11988188">
<ele>438</ele>
<time>2013-06-29T18:19:13Z</time>
</trkpt>
<trkpt lat="38.23125681" lon="-1.11985533">
<ele>436</ele>
<time>2013-06-29T18:19:17Z</time>
</trkpt>
<trkpt lat="38.23166734" lon="-1.12002069">
<ele>435</ele>
<time>2013-06-29T18:19:21Z</time>
</trkpt>
<trkpt lat="38.23193685" lon="-1.11990794">
<ele>437</ele>
<time>2013-06-29T18:19:25Z</time>
</trkpt>
<trkpt lat="38.23191581" lon="-1.11974216">
<ele>438</ele>
<time>2013-06-29T18:19:29Z</time>
</trkpt>
<trkpt lat="38.23173012" lon="-1.12007277">
<ele>440</ele>
<time>2013-06-29T18:19:33Z</time>
</trkpt>
<trkpt lat="38.23160792" lon="-1.12051359">
<ele>439</ele>
<time>2013-06-29T18:19:37Z</time>
</trkpt>
<trkpt lat="38.23139423" lon="-1.12082665">
<ele>437</ele>
<time>2013-06-29T18:19:41Z</time>
</trkpt>
<trkpt lat="38.23118794" lon="-1.12103076">
<ele>438</ele>
<time>2013-06-29T18:19:45Z</time>
</trkpt>
<trkpt lat="38.23101137" lon="-1.1210074">
<ele>429</ele>
<time>2013-06-29T18:19:49Z</time>
</trkpt>
<trkpt lat="38.23120488" lon="-1.12081966">
<ele>426</ele>
<time>2013-06-29T18:19:53Z</time>
</trkpt>
<trkpt lat="38.23140351" lon="-1.12066647">
<ele>425</ele>
<time>2013-06-29T18:19:57Z</time>
</trkpt>
<trkpt lat="38.23160684" lon="-1.12051285">
<ele>425</ele>
<time>2013-06-29T18:20:01Z</time>
</trkpt>
<trkpt lat="38.23180861" lon="-1.12036942">
<ele>425</ele>
<time>2013-06-29T18:20:05Z</time>
</trkpt>
<trkpt lat="38.23199205" lon="-1.12020756">
<ele>427</ele>
<time>2013-06-29T18:20:09Z</time>
</trkpt>
<trkpt lat="38.23204733" lon="-1.12001586">
<ele>426</ele>
<time>2013-06-29T18:20:13Z</time>
</trkpt>
<trkpt lat="38.23179836" lon="-1.12016397">
<ele>428</ele>
<time>2013-06-29T18:20:17Z</time>
</trkpt>
<trkpt lat="38.23165324" lon="-1.12044162">
<ele>431</ele>
<time>2013-06-29T18:20:21Z</time>
</trkpt>
<trkpt lat="38.23151163" lon="-1.12074013">
<ele>437</ele>
<time>2013-06-29T18:20:25Z</time>
</trkpt>
<trkpt lat="38.23123213" lon="-1.12091827">
<ele>434</ele>
<time>2013-06-29T18:20:29Z</time>
</trkpt>
<trkpt lat="38.2310372" lon="-1.12099295">
<ele>443</ele>
<time>2013-06-29T18:20:33Z</time>
</trkpt>
<trkpt lat="38.23088763" lon="-1.12101424">
<ele>448</ele>
<time>2013-06-29T18:20:37Z</time>
</trkpt>
<trkpt lat="38.23096249" lon="-1.12092492">
<ele>449</ele>
<time>2013-06-29T18:20:41Z</time>
</trkpt>
<trkpt lat="38.23107474" lon="-1.12081872">
<ele>448</ele>
<time>2013-06-29T18:20:45Z</time>
</trkpt>
<trkpt lat="38.23119602" lon="-1.120703">
<ele>444</ele>
<time>2013-06-29T18:20:49Z</time>
</trkpt>
<trkpt lat="38.23129078" lon="-1.1205492">
<ele>442</ele>
<time>2013-06-29T18:20:53Z</time>
</trkpt>
<trkpt lat="38.23143019" lon="-1.12047211">
<ele>445</ele>
<time>2013-06-29T18:20:57Z</time>
</trkpt>
<trkpt lat="38.23155872" lon="-1.12029959">
<ele>441</ele>
<time>2013-06-29T18:21:01Z</time>
</trkpt>
<trkpt lat="38.23158788" lon="-1.12014997">
<ele>447</ele>
<time>2013-06-29T18:21:05Z</time>
</trkpt>
<trkpt lat="38.23154992" lon="-1.12007699">
<ele>447</ele>
<time>2013-06-29T18:21:09Z</time>
</trkpt>
<trkpt lat="38.23157003" lon="-1.11993408">
<ele>445</ele>
<time>2013-06-29T18:21:13Z</time>
</trkpt>
<trkpt lat="38.23159301" lon="-1.119747">
<ele>444</ele>
<time>2013-06-29T18:21:17Z</time>
</trkpt>
<trkpt lat="38.23150823" lon="-1.11954316">
<ele>445</ele>
<time>2013-06-29T18:21:21Z</time>
</trkpt>
<trkpt lat="38.23129692" lon="-1.11956036">
<ele>446</ele>
<time>2013-06-29T18:21:25Z</time>
</trkpt>
<trkpt lat="38.2312334" lon="-1.12005141">
<ele>441</ele>
<time>2013-06-29T18:21:29Z</time>
</trkpt>
<trkpt lat="38.23118925" lon="-1.12061215">
<ele>443</ele>
<time>2013-06-29T18:21:33Z</time>
</trkpt>
<trkpt lat="38.23099348" lon="-1.12081157">
<ele>444</ele>
<time>2013-06-29T18:21:37Z</time>
</trkpt>
<trkpt lat="38.23094731" lon="-1.12065009">
<ele>445</ele>
<time>2013-06-29T18:21:41Z</time>
</trkpt>
<trkpt lat="38.23097472" lon="-1.12048094">
<ele>447</ele>
<time>2013-06-29T18:21:45Z</time>
</trkpt>
<trkpt lat="38.23106516" lon="-1.12031826">
<ele>451</ele>
<time>2013-06-29T18:21:49Z</time>
</trkpt>
<trkpt lat="38.23120853" lon="-1.12015836">
<ele>452</ele>
<time>2013-06-29T18:21:53Z</time>
</trkpt>
<trkpt lat="38.23142826" lon="-1.11998036">
<ele>453</ele>
<time>2013-06-29T18:21:57Z</time>
</trkpt>
<trkpt lat="38.23163164" lon="-1.11989531">
<ele>453</ele>
<time>2013-06-29T18:22:01Z</time>
</trkpt>
<trkpt lat="38.23171466" lon="-1.11968966">
<ele>453</ele>
<time>2013-06-29T18:22:05Z</time>
</trkpt>
<trkpt lat="38.23168188" lon="-1.1195969">
<ele>454</ele>
<time>2013-06-29T18:22:09Z</time>
</trkpt>
<trkpt lat="38.23159629" lon="-1.11945441">
<ele>456</ele>
<time>2013-06-29T18:22:13Z</time>
</trkpt>
<trkpt lat="38.23169626" lon="-1.11926915">
<ele>457</ele>
<time>2013-06-29T18:22:17Z</time>
</trkpt>
<trkpt lat="38.23169134" lon="-1.11909838">
<ele>461</ele>
<time>2013-06-29T18:22:21Z</time>
</trkpt>
<trkpt lat="38.23165892" lon="-1.11891995">
<ele>466</ele>
<time>2013-06-29T18:22:25Z</time>
</trkpt>
<trkpt lat="38.2316197" lon="-1.11876385">
<ele>464</ele>
<time>2013-06-29T18:22:29Z</time>
</trkpt>
<trkpt lat="38.23158176" lon="-1.11858922">
<ele>463</ele>
<time>2013-06-29T18:22:33Z</time>
</trkpt>
<trkpt lat="38.23160599" lon="-1.1184216">
<ele>459</ele>
<time>2013-06-29T18:22:37Z</time>
</trkpt>
<trkpt lat="38.2315872" lon="-1.11821402">
<ele>458</ele>
<time>2013-06-29T18:22:41Z</time>
</trkpt>
<trkpt lat="38.23156803" lon="-1.11799379">
<ele>456</ele>
<time>2013-06-29T18:22:45Z</time>
</trkpt>
<trkpt lat="38.2315248" lon="-1.11777683">
<ele>453</ele>
<time>2013-06-29T18:22:49Z</time>
</trkpt>
<trkpt lat="38.23159054" lon="-1.11757957">
<ele>446</ele>
<time>2013-06-29T18:22:53Z</time>
</trkpt>
<trkpt lat="38.23157675" lon="-1.11744444">
<ele>443</ele>
<time>2013-06-29T18:22:57Z</time>
</trkpt>
<trkpt lat="38.23136892" lon="-1.11794035">
<ele>432</ele>
<time>2013-06-29T18:23:01Z</time>
</trkpt>
<trkpt lat="38.23155007" lon="-1.11852551">
<ele>432</ele>
<time>2013-06-29T18:23:05Z</time>
</trkpt>
<trkpt lat="38.23173084" lon="-1.11913848">
<ele>428</ele>
<time>2013-06-29T18:23:09Z</time>
</trkpt>
<trkpt lat="38.23181848" lon="-1.11971806">
<ele>432</ele>
<time>2013-06-29T18:23:13Z</time>
</trkpt>
<trkpt lat="38.23174009" lon="-1.12024499">
<ele>437</ele>
<time>2013-06-29T18:23:17Z</time>
</trkpt>
<trkpt lat="38.23155692" lon="-1.12062394">
<ele>439</ele>
<time>2013-06-29T18:23:21Z</time>
</trkpt>
<trkpt lat="38.23137154" lon="-1.1207425">
<ele>441</ele>
<time>2013-06-29T18:23:25Z</time>
</trkpt>
<trkpt lat="38.23155433" lon="-1.12053159">
<ele>440</ele>
<time>2013-06-29T18:23:29Z</time>
</trkpt>
<trkpt lat="38.23174852" lon="-1.12027786">
<ele>442</ele>
<time>2013-06-29T18:23:33Z</time>
</trkpt>
<trkpt lat="38.2318895" lon="-1.12008939">
<ele>450</ele>
<time>2013-06-29T18:23:37Z</time>
</trkpt>
<trkpt lat="38.23197184" lon="-1.11992895">
<ele>447</ele>
<time>2013-06-29T18:23:41Z</time>
</trkpt>
<trkpt lat="38.23184075" lon="-1.11992015">
<ele>445</ele>
<time>2013-06-29T18:23:45Z</time>
</trkpt>
<trkpt lat="38.23165997" lon="-1.12034128">
<ele>445</ele>
<time>2013-06-29T18:23:49Z</time>
</trkpt>
<trkpt lat="38.23144258" lon="-1.12052468">
<ele>451</ele>
<time>2013-06-29T18:23:53Z</time>
</trkpt>
<trkpt lat="38.2311961" lon="-1.12046837">
<ele>452</ele>
<time>2013-06-29T18:23:57Z</time>
</trkpt>
<trkpt lat="38.23114274" lon="-1.12026322">
<ele>454</ele>
<time>2013-06-29T18:24:01Z</time>
</trkpt>
<trkpt lat="38.2311728" lon="-1.12008689">
<ele>453</ele>
<time>2013-06-29T18:24:05Z</time>
</trkpt>
<trkpt lat="38.23135095" lon="-1.11996218">
<ele>449</ele>
<time>2013-06-29T18:24:09Z</time>
</trkpt>
<trkpt lat="38.23164937" lon="-1.11985658">
<ele>448</ele>
<time>2013-06-29T18:24:13Z</time>
</trkpt>
<trkpt lat="38.23197192" lon="-1.1197902">
<ele>451</ele>
<time>2013-06-29T18:24:17Z</time>
</trkpt>
<trkpt lat="38.23214537" lon="-1.11962795">
<ele>454</ele>
<time>2013-06-29T18:24:21Z</time>
</trkpt>
<trkpt lat="38.2320386" lon="-1.11956654">
<ele>450</ele>
<time>2013-06-29T18:24:25Z</time>
</trkpt>
<trkpt lat="38.23181991" lon="-1.11994686">
<ele>450</ele>
<time>2013-06-29T18:24:29Z</time>
</trkpt>
<trkpt lat="38.23159914" lon="-1.12032799">
<ele>454</ele>
<time>2013-06-29T18:24:33Z</time>
</trkpt>
<trkpt lat="38.2314065" lon="-1.12054527">
<ele>458</ele>
<time>2013-06-29T18:24:37Z</time>
</trkpt>
<trkpt lat="38.23106195" lon="-1.12059649">
<ele>459</ele>
<time>2013-06-29T18:24:41Z</time>
</trkpt>
<trkpt lat="38.23118378" lon="-1.12042313">
<ele>461</ele>
<time>2013-06-29T18:24:45Z</time>
</trkpt>
<trkpt lat="38.23142293" lon="-1.1202186">
<ele>458</ele>
<time>2013-06-29T18:24:49Z</time>
</trkpt>
<trkpt lat="38.23168047" lon="-1.12005031">
<ele>459</ele>
<time>2013-06-29T18:24:53Z</time>
</trkpt>
<trkpt lat="38.23191783" lon="-1.11989592">
<ele>458</ele>
<time>2013-06-29T18:24:57Z</time>
</trkpt>
<trkpt lat="38.23208061" lon="-1.11973024">
<ele>457</ele>
<time>2013-06-29T18:25:01Z</time>
</trkpt>
<trkpt lat="38.23201403" lon="-1.11962274">
<ele>454</ele>
<time>2013-06-29T18:25:05Z</time>
</trkpt>
<trkpt lat="38.23176496" lon="-1.11997298">
<ele>451</ele>
<time>2013-06-29T18:25:09Z</time>
</trkpt>
<trkpt lat="38.23161173" lon="-1.12046103">
<ele>449</ele>
<time>2013-06-29T18:25:13Z</time>
</trkpt>
<trkpt lat="38.23137518" lon="-1.12085446">
<ele>448</ele>
<time>2013-06-29T18:25:17Z</time>
</trkpt>
<trkpt lat="38.23112885" lon="-1.12103286">
<ele>449</ele>
<time>2013-06-29T18:25:21Z</time>
</trkpt>
<trkpt lat="38.23094503" lon="-1.12093575">
<ele>442</ele>
<time>2013-06-29T18:25:25Z</time>
</trkpt>
<trkpt lat="38.23106003" lon="-1.12075011">
<ele>440</ele>
<time>2013-06-29T18:25:29Z</time>
</trkpt>
<trkpt lat="38.23133963" lon="-1.12062341">
<ele>440</ele>
<time>2013-06-29T18:25:33Z</time>
</trkpt>
<trkpt lat="38.23156285" lon="-1.12046646">
<ele>440</ele>
<time>2013-06-29T18:25:37Z</time>
</trkpt>
<trkpt lat="38.23171577" lon="-1.12030411">
<ele>445</ele>
<time>2013-06-29T18:25:41Z</time>
</trkpt>
<trkpt lat="38.23172438" lon="-1.12011863">
<ele>451</ele>
<time>2013-06-29T18:25:45Z</time>
</trkpt>
<trkpt lat="38.23161743" lon="-1.11999411">
<ele>452</ele>
<time>2013-06-29T18:25:49Z</time>
</trkpt>
<trkpt lat="38.23151992" lon="-1.11987368">
<ele>453</ele>
<time>2013-06-29T18:25:53Z</time>
</trkpt>
<trkpt lat="38.23150104" lon="-1.11968489">
<ele>455</ele>
<time>2013-06-29T18:25:57Z</time>
</trkpt>
<trkpt lat="38.23154835" lon="-1.11953846">
<ele>453</ele>
<time>2013-06-29T18:26:01Z</time>
</trkpt>
<trkpt lat="38.23133328" lon="-1.11965108">
<ele>445</ele>
<time>2013-06-29T18:26:05Z</time>
</trkpt>
<trkpt lat="38.23119536" lon="-1.12021132">
<ele>437</ele>
<time>2013-06-29T18:26:09Z</time>
</trkpt>
<trkpt lat="38.23124821" lon="-1.12084208">
<ele>433</ele>
<time>2013-06-29T18:26:13Z</time>
</trkpt>
<trkpt lat="38.23097132" lon="-1.12106288">
<ele>431</ele>
<time>2013-06-29T18:26:17Z</time>
</trkpt>
<trkpt lat="38.23110942" lon="-1.12091793">
<ele>431</ele>
<time>2013-06-29T18:26:21Z</time>
</trkpt>
<trkpt lat="38.23121919" lon="-1.12076264">
<ele>429</ele>
<time>2013-06-29T18:26:25Z</time>
</trkpt>
<trkpt lat="38.23140601" lon="-1.12063017">
<ele>427</ele>
<time>2013-06-29T18:26:29Z</time>
</trkpt>
<trkpt lat="38.23159861" lon="-1.12049939">
<ele>428</ele>
<time>2013-06-29T18:26:33Z</time>
</trkpt>
<trkpt lat="38.23173858" lon="-1.1203515">
<ele>433</ele>
<time>2013-06-29T18:26:37Z</time>
</trkpt>
<trkpt lat="38.23186456" lon="-1.1202465">
<ele>435</ele>
<time>2013-06-29T18:26:41Z</time>
</trkpt>
<trkpt lat="38.23204135" lon="-1.1201199">
<ele>436</ele>
<time>2013-06-29T18:26:45Z</time>
</trkpt>
<trkpt lat="38.23215293" lon="-1.11995054">
<ele>433</ele>
<time>2013-06-29T18:26:49Z</time>
</trkpt>
<trkpt lat="38.23217835" lon="-1.11974156">
<ele>437</ele>
<time>2013-06-29T18:26:53Z</time>
</trkpt>
<trkpt lat="38.23212843" lon="-1.1196611">
<ele>434</ele>
<time>2013-06-29T18:26:57Z</time>
</trkpt>
<trkpt lat="38.23188247" lon="-1.11996804">
<ele>429</ele>
<time>2013-06-29T18:27:01Z</time>
</trkpt>
<trkpt lat="38.2317161" lon="-1.12038183">
<ele>430</ele>
<time>2013-06-29T18:27:05Z</time>
</trkpt>
<trkpt lat="38.23145343" lon="-1.12075597">
<ele>428</ele>
<time>2013-06-29T18:27:09Z</time>
</trkpt>
<trkpt lat="38.23121939" lon="-1.12097408">
<ele>430</ele>
<time>2013-06-29T18:27:13Z</time>
</trkpt>
<trkpt lat="38.23120354" lon="-1.12082373">
<ele>428</ele>
<time>2013-06-29T18:27:17Z</time>
</trkpt>
<trkpt lat="38.231398" lon="-1.12066118">
<ele>429</ele>
<time>2013-06-29T18:27:21Z</time>
</trkpt>
<trkpt lat="38.23153659" lon="-1.12055109">
<ele>429</ele>
<time>2013-06-29T18:27:25Z</time>
</trkpt>
<trkpt lat="38.23170031" lon="-1.12036884">
<ele>431</ele>
<time>2013-06-29T18:27:29Z</time>
</trkpt>
<trkpt lat="38.23178355" lon="-1.12024172">
<ele>438</ele>
<time>2013-06-29T18:27:33Z</time>
</trkpt>
<trkpt lat="38.23178469" lon="-1.12018758">
<ele>440</ele>
<time>2013-06-29T18:27:37Z</time>
</trkpt>
<trkpt lat="38.23169408" lon="-1.12006475">
<ele>448</ele>
<time>2013-06-29T18:27:41Z</time>
</trkpt>
<trkpt lat="38.23159506" lon="-1.12001945">
<ele>449</ele>
<time>2013-06-29T18:27:45Z</time>
</trkpt>
<trkpt lat="38.23156537" lon="-1.11991464">
<ele>448</ele>
<time>2013-06-29T18:27:49Z</time>
</trkpt>
<trkpt lat="38.23154325" lon="-1.11973949">
<ele>451</ele>
<time>2013-06-29T18:27:53Z</time>
</trkpt>
<trkpt lat="38.2315546" lon="-1.1195874">
<ele>453</ele>
<time>2013-06-29T18:27:57Z</time>
</trkpt>
<trkpt lat="38.23153907" lon="-1.11954269">
<ele>455</ele>
<time>2013-06-29T18:28:01Z</time>
</trkpt>
<trkpt lat="38.23147823" lon="-1.11936019">
<ele>457</ele>
<time>2013-06-29T18:28:05Z</time>
</trkpt>
<trkpt lat="38.23138285" lon="-1.11928599">
<ele>455</ele>
<time>2013-06-29T18:28:09Z</time>
</trkpt>
<trkpt lat="38.23128797" lon="-1.11959638">
<ele>442</ele>
<time>2013-06-29T18:28:13Z</time>
</trkpt>
<trkpt lat="38.2313295" lon="-1.12031004">
<ele>439</ele>
<time>2013-06-29T18:28:17Z</time>
</trkpt>
<trkpt lat="38.23114285" lon="-1.12077454">
<ele>438</ele>
<time>2013-06-29T18:28:21Z</time>
</trkpt>
<trkpt lat="38.23107323" lon="-1.12075959">
<ele>440</ele>
<time>2013-06-29T18:28:25Z</time>
</trkpt>
<trkpt lat="38.23110884" lon="-1.12061623">
<ele>441</ele>
<time>2013-06-29T18:28:29Z</time>
</trkpt>
<trkpt lat="38.23104383" lon="-1.12043266">
<ele>442</ele>
<time>2013-06-29T18:28:33Z</time>
</trkpt>
<trkpt lat="38.2310166" lon="-1.12030462">
<ele>442</ele>
<time>2013-06-29T18:28:37Z</time>
</trkpt>
<trkpt lat="38.23106937" lon="-1.12019865">
<ele>438</ele>
<time>2013-06-29T18:28:41Z</time>
</trkpt>
<trkpt lat="38.23109367" lon="-1.12003914">
<ele>438</ele>
<time>2013-06-29T18:28:45Z</time>
</trkpt>
<trkpt lat="38.2311323" lon="-1.11988663">
<ele>437</ele>
<time>2013-06-29T18:28:49Z</time>
</trkpt>
<trkpt lat="38.23148069" lon="-1.11987842">
<ele>436</ele>
<time>2013-06-29T18:28:53Z</time>
</trkpt>
<trkpt lat="38.23186273" lon="-1.11998841">
<ele>437</ele>
<time>2013-06-29T18:28:57Z</time>
</trkpt>
<trkpt lat="38.23212643" lon="-1.11985157">
<ele>438</ele>
<time>2013-06-29T18:29:01Z</time>
</trkpt>
<trkpt lat="38.23212197" lon="-1.11971958">
<ele>440</ele>
<time>2013-06-29T18:29:05Z</time>
</trkpt>
<trkpt lat="38.23210332" lon="-1.11958357">
<ele>441</ele>
<time>2013-06-29T18:29:09Z</time>
</trkpt>
<trkpt lat="38.2320095" lon="-1.11961916">
<ele>440</ele>
<time>2013-06-29T18:29:13Z</time>
</trkpt>
<trkpt lat="38.23180394" lon="-1.12006244">
<ele>442</ele>
<time>2013-06-29T18:29:17Z</time>
</trkpt>
<trkpt lat="38.23165381" lon="-1.12049409">
<ele>443</ele>
<time>2013-06-29T18:29:21Z</time>
</trkpt>
<trkpt lat="38.23145214" lon="-1.12087391">
<ele>444</ele>
<time>2013-06-29T18:29:25Z</time>
</trkpt>
<trkpt lat="38.23123292" lon="-1.12097568">
<ele>444</ele>
<time>2013-06-29T18:29:29Z</time>
</trkpt>
<trkpt lat="38.2310912" lon="-1.12087567">
<ele>443</ele>
<time>2013-06-29T18:29:33Z</time>
</trkpt>
<trkpt lat="38.2311674" lon="-1.12069266">
<ele>443</ele>
<time>2013-06-29T18:29:37Z</time>
</trkpt>
<trkpt lat="38.23145421" lon="-1.1205336">
<ele>445</ele>
<time>2013-06-29T18:29:41Z</time>
</trkpt>
<trkpt lat="38.23162925" lon="-1.12038601">
<ele>447</ele>
<time>2013-06-29T18:29:45Z</time>
</trkpt>
<trkpt lat="38.23176585" lon="-1.1202316">
<ele>447</ele>
<time>2013-06-29T18:29:49Z</time>
</trkpt>
<trkpt lat="38.23196124" lon="-1.12003516">
<ele>451</ele>
<time>2013-06-29T18:29:53Z</time>
</trkpt>
<trkpt lat="38.23204429" lon="-1.11986459">
<ele>458</ele>
<time>2013-06-29T18:29:57Z</time>
</trkpt>
<trkpt lat="38.23212187" lon="-1.11969378">
<ele>456</ele>
<time>2013-06-29T18:30:01Z</time>
</trkpt>
<trkpt lat="38.23212087" lon="-1.11952728">
<ele>455</ele>
<time>2013-06-29T18:30:05Z</time>
</trkpt>
<trkpt lat="38.23216668" lon="-1.11931725">
<ele>453</ele>
<time>2013-06-29T18:30:09Z</time>
</trkpt>
<trkpt lat="38.2320557" lon="-1.1192218">
<ele>452</ele>
<time>2013-06-29T18:30:13Z</time>
</trkpt>
<trkpt lat="38.23189253" lon="-1.11932759">
<ele>446</ele>
<time>2013-06-29T18:30:17Z</time>
</trkpt>
<trkpt lat="38.23186642" lon="-1.11996231">
<ele>444</ele>
<time>2013-06-29T18:30:21Z</time>
</trkpt>
<trkpt lat="38.23174001" lon="-1.12039543">
<ele>441</ele>
<time>2013-06-29T18:30:25Z</time>
</trkpt>
<trkpt lat="38.23144972" lon="-1.12069744">
<ele>440</ele>
<time>2013-06-29T18:30:29Z</time>
</trkpt>
<trkpt lat="38.23118057" lon="-1.12080733">
<ele>440</ele>
<time>2013-06-29T18:30:33Z</time>
</trkpt>
<trkpt lat="38.23102102" lon="-1.12060112">
<ele>447</ele>
<time>2013-06-29T18:30:37Z</time>
</trkpt>
<trkpt lat="38.23098063" lon="-1.12049304">
<ele>446</ele>
<time>2013-06-29T18:30:41Z</time>
</trkpt>
<trkpt lat="38.23103024" lon="-1.12025644">
<ele>446</ele>
<time>2013-06-29T18:30:45Z</time>
</trkpt>
<trkpt lat="38.2310323" lon="-1.12010274">
<ele>444</ele>
<time>2013-06-29T18:30:49Z</time>
</trkpt>
<trkpt lat="38.23112035" lon="-1.11990693">
<ele>442</ele>
<time>2013-06-29T18:30:53Z</time>
</trkpt>
<trkpt lat="38.23148836" lon="-1.11982667">
<ele>440</ele>
<time>2013-06-29T18:30:57Z</time>
</trkpt>
<trkpt lat="38.23188923" lon="-1.11986949">
<ele>439</ele>
<time>2013-06-29T18:31:01Z</time>
</trkpt>
<trkpt lat="38.23211196" lon="-1.11968448">
<ele>439</ele>
<time>2013-06-29T18:31:05Z</time>
</trkpt>
<trkpt lat="38.23188743" lon="-1.11977398">
<ele>438</ele>
<time>2013-06-29T18:31:09Z</time>
</trkpt>
<trkpt lat="38.23179436" lon="-1.12021523">
<ele>441</ele>
<time>2013-06-29T18:31:13Z</time>
</trkpt>
<trkpt lat="38.23158645" lon="-1.12057534">
<ele>439</ele>
<time>2013-06-29T18:31:17Z</time>
</trkpt>
<trkpt lat="38.23137083" lon="-1.12087948">
<ele>443</ele>
<time>2013-06-29T18:31:21Z</time>
</trkpt>
<trkpt lat="38.2311359" lon="-1.12108183">
<ele>446</ele>
<time>2013-06-29T18:31:25Z</time>
</trkpt>
<trkpt lat="38.23087829" lon="-1.1211362">
<ele>447</ele>
<time>2013-06-29T18:31:29Z</time>
</trkpt>
<trkpt lat="38.23065736" lon="-1.12104197">
<ele>449</ele>
<time>2013-06-29T18:31:33Z</time>
</trkpt>
<trkpt lat="38.23070018" lon="-1.12082213">
<ele>446</ele>
<time>2013-06-29T18:31:37Z</time>
</trkpt>
<trkpt lat="38.23079101" lon="-1.12064972">
<ele>445</ele>
<time>2013-06-29T18:31:41Z</time>
</trkpt>
<trkpt lat="38.23107811" lon="-1.1205283">
<ele>441</ele>
<time>2013-06-29T18:31:45Z</time>
</trkpt>
<trkpt lat="38.23138569" lon="-1.12044753">
<ele>439</ele>
<time>2013-06-29T18:31:49Z</time>
</trkpt>
<trkpt lat="38.23171282" lon="-1.1203438">
<ele>440</ele>
<time>2013-06-29T18:31:53Z</time>
</trkpt>
<trkpt lat="38.23196916" lon="-1.1201704">
<ele>440</ele>
<time>2013-06-29T18:31:57Z</time>
</trkpt>
<trkpt lat="38.23208521" lon="-1.11996794">
<ele>440</ele>
<time>2013-06-29T18:32:01Z</time>
</trkpt>
<trkpt lat="38.23187956" lon="-1.12004964">
<ele>440</ele>
<time>2013-06-29T18:32:05Z</time>
</trkpt>
<trkpt lat="38.23172415" lon="-1.12038962">
<ele>441</ele>
<time>2013-06-29T18:32:09Z</time>
</trkpt>
<trkpt lat="38.23151638" lon="-1.12066103">
<ele>444</ele>
<time>2013-06-29T18:32:13Z</time>
</trkpt>
<trkpt lat="38.23134076" lon="-1.12084308">
<ele>447</ele>
<time>2013-06-29T18:32:17Z</time>
</trkpt>
<trkpt lat="38.23117306" lon="-1.12085829">
<ele>443</ele>
<time>2013-06-29T18:32:21Z</time>
</trkpt>
<trkpt lat="38.23130575" lon="-1.12061007">
<ele>440</ele>
<time>2013-06-29T18:32:25Z</time>
</trkpt>
<trkpt lat="38.23162587" lon="-1.12038712">
<ele>442</ele>
<time>2013-06-29T18:32:29Z</time>
</trkpt>
<trkpt lat="38.23188784" lon="-1.12014737">
<ele>442</ele>
<time>2013-06-29T18:32:33Z</time>
</trkpt>
<trkpt lat="38.23210983" lon="-1.11995506">
<ele>446</ele>
<time>2013-06-29T18:32:37Z</time>
</trkpt>
<trkpt lat="38.23211711" lon="-1.11978969">
<ele>445</ele>
<time>2013-06-29T18:32:41Z</time>
</trkpt>
<trkpt lat="38.23192378" lon="-1.12006042">
<ele>445</ele>
<time>2013-06-29T18:32:45Z</time>
</trkpt>
<trkpt lat="38.2317989" lon="-1.12039329">
<ele>447</ele>
<time>2013-06-29T18:32:49Z</time>
</trkpt>
<trkpt lat="38.23159804" lon="-1.12067928">
<ele>446</ele>
<time>2013-06-29T18:32:53Z</time>
</trkpt>
<trkpt lat="38.23139382" lon="-1.12077365">
<ele>447</ele>
<time>2013-06-29T18:32:57Z</time>
</trkpt>
<trkpt lat="38.23116048" lon="-1.12093348">
<ele>446</ele>
<time>2013-06-29T18:33:01Z</time>
</trkpt>
<trkpt lat="38.23095033" lon="-1.12101896">
<ele>442</ele>
<time>2013-06-29T18:33:05Z</time>
</trkpt>
<trkpt lat="38.23098694" lon="-1.12078718">
<ele>437</ele>
<time>2013-06-29T18:33:09Z</time>
</trkpt>
<trkpt lat="38.23128604" lon="-1.12055624">
<ele>441</ele>
<time>2013-06-29T18:33:13Z</time>
</trkpt>
<trkpt lat="38.23153244" lon="-1.12040934">
<ele>440</ele>
<time>2013-06-29T18:33:17Z</time>
</trkpt>
<trkpt lat="38.23186089" lon="-1.12024086">
<ele>438</ele>
<time>2013-06-29T18:33:21Z</time>
</trkpt>
<trkpt lat="38.23211703" lon="-1.12003267">
<ele>435</ele>
<time>2013-06-29T18:33:25Z</time>
</trkpt>
<trkpt lat="38.23225706" lon="-1.11977891">
<ele>435</ele>
<time>2013-06-29T18:33:29Z</time>
</trkpt>
<trkpt lat="38.2322194" lon="-1.11952015">
<ele>431</ele>
<time>2013-06-29T18:33:33Z</time>
</trkpt>
<trkpt lat="38.23197183" lon="-1.11967944">
<ele>427</ele>
<time>2013-06-29T18:33:37Z</time>
</trkpt>
<trkpt lat="38.23189305" lon="-1.12010373">
<ele>428</ele>
<time>2013-06-29T18:33:41Z</time>
</trkpt>
<trkpt lat="38.23173806" lon="-1.12045555">
<ele>427</ele>
<time>2013-06-29T18:33:45Z</time>
</trkpt>
<trkpt lat="38.23154989" lon="-1.12076944">
<ele>427</ele>
<time>2013-06-29T18:33:49Z</time>
</trkpt>
<trkpt lat="38.23132169" lon="-1.12093027">
<ele>422</ele>
<time>2013-06-29T18:33:53Z</time>
</trkpt>
<trkpt lat="38.23111535" lon="-1.12111103">
<ele>423</ele>
<time>2013-06-29T18:33:57Z</time>
</trkpt>
<trkpt lat="38.2310934" lon="-1.12090289">
<ele>422</ele>
<time>2013-06-29T18:34:01Z</time>
</trkpt>
<trkpt lat="38.23136622" lon="-1.12057641">
<ele>421</ele>
<time>2013-06-29T18:34:05Z</time>
</trkpt>
<trkpt lat="38.23159831" lon="-1.12031068">
<ele>417</ele>
<time>2013-06-29T18:34:09Z</time>
</trkpt>
<trkpt lat="38.23187607" lon="-1.12011726">
<ele>417</ele>
<time>2013-06-29T18:34:13Z</time>
</trkpt>
<trkpt lat="38.23205151" lon="-1.1198592">
<ele>417</ele>
<time>2013-06-29T18:34:17Z</time>
</trkpt>
<trkpt lat="38.23217124" lon="-1.11959307">
<ele>420</ele>
<time>2013-06-29T18:34:21Z</time>
</trkpt>
<trkpt lat="38.23221388" lon="-1.11929195">
<ele>420</ele>
<time>2013-06-29T18:34:25Z</time>
</trkpt>
<trkpt lat="38.23209605" lon="-1.11908488">
<ele>425</ele>
<time>2013-06-29T18:34:29Z</time>
</trkpt>
<trkpt lat="38.23192497" lon="-1.1190625">
<ele>424</ele>
<time>2013-06-29T18:34:33Z</time>
</trkpt>
<trkpt lat="38.23171439" lon="-1.11951714">
<ele>423</ele>
<time>2013-06-29T18:34:37Z</time>
</trkpt>
<trkpt lat="38.23171391" lon="-1.11999815">
<ele>424</ele>
<time>2013-06-29T18:34:41Z</time>
</trkpt>
<trkpt lat="38.23159298" lon="-1.12043839">
<ele>424</ele>
<time>2013-06-29T18:34:45Z</time>
</trkpt>
<trkpt lat="38.23145506" lon="-1.12080666">
<ele>427</ele>
<time>2013-06-29T18:34:49Z</time>
</trkpt>
<trkpt lat="38.23128897" lon="-1.12105528">
<ele>433</ele>
<time>2013-06-29T18:34:53Z</time>
</trkpt>
<trkpt lat="38.23121386" lon="-1.12098623">
<ele>432</ele>
<time>2013-06-29T18:34:57Z</time>
</trkpt>
<trkpt lat="38.23140131" lon="-1.12079794">
<ele>431</ele>
<time>2013-06-29T18:35:01Z</time>
</trkpt>
<trkpt lat="38.23159327" lon="-1.12061508">
<ele>433</ele>
<time>2013-06-29T18:35:05Z</time>
</trkpt>
<trkpt lat="38.2317898" lon="-1.12043549">
<ele>433</ele>
<time>2013-06-29T18:35:09Z</time>
</trkpt>
<trkpt lat="38.23191664" lon="-1.12020182">
<ele>437</ele>
<time>2013-06-29T18:35:13Z</time>
</trkpt>
<trkpt lat="38.23201242" lon="-1.11996223">
<ele>445</ele>
<time>2013-06-29T18:35:17Z</time>
</trkpt>
<trkpt lat="38.23196152" lon="-1.11984545">
<ele>450</ele>
<time>2013-06-29T18:35:21Z</time>
</trkpt>
<trkpt lat="38.23192383" lon="-1.11965889">
<ele>455</ele>
<time>2013-06-29T18:35:25Z</time>
</trkpt>
<trkpt lat="38.23192006" lon="-1.11941964">
<ele>458</ele>
<time>2013-06-29T18:35:29Z</time>
</trkpt>
<trkpt lat="38.23183709" lon="-1.11929569">
<ele>465</ele>
<time>2013-06-29T18:35:33Z</time>
</trkpt>
<trkpt lat="38.23184143" lon="-1.11916166">
<ele>469</ele>
<time>2013-06-29T18:35:37Z</time>
</trkpt>
<trkpt lat="38.23184159" lon="-1.11897995">
<ele>467</ele>
<time>2013-06-29T18:35:41Z</time>
</trkpt>
<trkpt lat="38.23182853" lon="-1.11882758">
<ele>473</ele>
<time>2013-06-29T18:35:45Z</time>
</trkpt>
<trkpt lat="38.2318281" lon="-1.11864349">
<ele>476</ele>
<time>2013-06-29T18:35:49Z</time>
</trkpt>
<trkpt lat="38.23180556" lon="-1.11849755">
<ele>482</ele>
<time>2013-06-29T18:35:53Z</time>
</trkpt>
<trkpt lat="38.23178244" lon="-1.11825956">
<ele>488</ele>
<time>2013-06-29T18:35:57Z</time>
</trkpt>
<trkpt lat="38.23173594" lon="-1.11810737">
<ele>493</ele>
<time>2013-06-29T18:36:01Z</time>
</trkpt>
<trkpt lat="38.23170986" lon="-1.11798266">
<ele>495</ele>
<time>2013-06-29T18:36:05Z</time>
</trkpt>
<trkpt lat="38.23167886" lon="-1.11785588">
<ele>496</ele>
<time>2013-06-29T18:36:09Z</time>
</trkpt>
<trkpt lat="38.2316624" lon="-1.11768282">
<ele>497</ele>
<time>2013-06-29T18:36:13Z</time>
</trkpt>
<trkpt lat="38.23169598" lon="-1.11748386">
<ele>499</ele>
<time>2013-06-29T18:36:17Z</time>
</trkpt>
<trkpt lat="38.23166236" lon="-1.11727909">
<ele>500</ele>
<time>2013-06-29T18:36:21Z</time>
</trkpt>
<trkpt lat="38.23162352" lon="-1.11706865">
<ele>497</ele>
<time>2013-06-29T18:36:25Z</time>
</trkpt>
<trkpt lat="38.23159498" lon="-1.1168934">
<ele>498</ele>
<time>2013-06-29T18:36:29Z</time>
</trkpt>
<trkpt lat="38.23158057" lon="-1.11658948">
<ele>495</ele>
<time>2013-06-29T18:36:33Z</time>
</trkpt>
<trkpt lat="38.23155641" lon="-1.11639101">
<ele>503</ele>
<time>2013-06-29T18:36:37Z</time>
</trkpt>
<trkpt lat="38.23151987" lon="-1.11622985">
<ele>499</ele>
<time>2013-06-29T18:36:41Z</time>
</trkpt>
<trkpt lat="38.23151805" lon="-1.11596561">
<ele>494</ele>
<time>2013-06-29T18:36:45Z</time>
</trkpt>
<trkpt lat="38.23156056" lon="-1.11575674">
<ele>488</ele>
<time>2013-06-29T18:36:49Z</time>
</trkpt>
<trkpt lat="38.23158007" lon="-1.11555461">
<ele>483</ele>
<time>2013-06-29T18:36:53Z</time>
</trkpt>
<trkpt lat="38.23159312" lon="-1.11531366">
<ele>481</ele>
<time>2013-06-29T18:36:57Z</time>
</trkpt>
<trkpt lat="38.23158923" lon="-1.11511164">
<ele>477</ele>
<time>2013-06-29T18:37:01Z</time>
</trkpt>
<trkpt lat="38.23163836" lon="-1.1148519">
<ele>473</ele>
<time>2013-06-29T18:37:05Z</time>
</trkpt>
<trkpt lat="38.23167219" lon="-1.11462386">
<ele>472</ele>
<time>2013-06-29T18:37:09Z</time>
</trkpt>
<trkpt lat="38.23170365" lon="-1.11438865">
<ele>469</ele>
<time>2013-06-29T18:37:13Z</time>
</trkpt>
<trkpt lat="38.23175637" lon="-1.11415649">
<ele>464</ele>
<time>2013-06-29T18:37:17Z</time>
</trkpt>
<trkpt lat="38.23181011" lon="-1.11393449">
<ele>461</ele>
<time>2013-06-29T18:37:21Z</time>
</trkpt>
<trkpt lat="38.23184873" lon="-1.1136966">
<ele>459</ele>
<time>2013-06-29T18:37:25Z</time>
</trkpt>
<trkpt lat="38.23190659" lon="-1.11344366">
<ele>458</ele>
<time>2013-06-29T18:37:29Z</time>
</trkpt>
<trkpt lat="38.2319556" lon="-1.11318395">
<ele>455</ele>
<time>2013-06-29T18:37:33Z</time>
</trkpt>
<trkpt lat="38.2320471" lon="-1.11292877">
<ele>453</ele>
<time>2013-06-29T18:37:37Z</time>
</trkpt>
<trkpt lat="38.23213378" lon="-1.11269696">
<ele>451</ele>
<time>2013-06-29T18:37:41Z</time>
</trkpt>
<trkpt lat="38.23218915" lon="-1.11248218">
<ele>449</ele>
<time>2013-06-29T18:37:45Z</time>
</trkpt>
<trkpt lat="38.23227379" lon="-1.11223281">
<ele>447</ele>
<time>2013-06-29T18:37:49Z</time>
</trkpt>
<trkpt lat="38.2324079" lon="-1.11194568">
<ele>443</ele>
<time>2013-06-29T18:37:53Z</time>
</trkpt>
<trkpt lat="38.23251178" lon="-1.11163439">
<ele>440</ele>
<time>2013-06-29T18:37:57Z</time>
</trkpt>
<trkpt lat="38.23262847" lon="-1.11140188">
<ele>442</ele>
<time>2013-06-29T18:38:01Z</time>
</trkpt>
<trkpt lat="38.23275575" lon="-1.11116359">
<ele>443</ele>
<time>2013-06-29T18:38:05Z</time>
</trkpt>
<trkpt lat="38.23282437" lon="-1.11097159">
<ele>446</ele>
<time>2013-06-29T18:38:09Z</time>
</trkpt>
<trkpt lat="38.23290834" lon="-1.11075415">
<ele>450</ele>
<time>2013-06-29T18:38:13Z</time>
</trkpt>
<trkpt lat="38.23298214" lon="-1.11052879">
<ele>442</ele>
<time>2013-06-29T18:38:17Z</time>
</trkpt>
<trkpt lat="38.23310772" lon="-1.11021626">
<ele>436</ele>
<time>2013-06-29T18:38:21Z</time>
</trkpt>
<trkpt lat="38.23324235" lon="-1.10993094">
<ele>431</ele>
<time>2013-06-29T18:38:25Z</time>
</trkpt>
<trkpt lat="38.2334012" lon="-1.1096431">
<ele>430</ele>
<time>2013-06-29T18:38:29Z</time>
</trkpt>
<trkpt lat="38.23352366" lon="-1.10942758">
<ele>432</ele>
<time>2013-06-29T18:38:33Z</time>
</trkpt>
<trkpt lat="38.23361841" lon="-1.10925765">
<ele>432</ele>
<time>2013-06-29T18:38:37Z</time>
</trkpt>
<trkpt lat="38.23367349" lon="-1.10906006">
<ele>434</ele>
<time>2013-06-29T18:38:41Z</time>
</trkpt>
<trkpt lat="38.23376186" lon="-1.10882993">
<ele>433</ele>
<time>2013-06-29T18:38:45Z</time>
</trkpt>
<trkpt lat="38.23385502" lon="-1.10861058">
<ele>432</ele>
<time>2013-06-29T18:38:49Z</time>
</trkpt>
<trkpt lat="38.2339323" lon="-1.10833613">
<ele>432</ele>
<time>2013-06-29T18:38:53Z</time>
</trkpt>
<trkpt lat="38.234028" lon="-1.1080213">
<ele>427</ele>
<time>2013-06-29T18:38:57Z</time>
</trkpt>
<trkpt lat="38.23414356" lon="-1.10773521">
<ele>429</ele>
<time>2013-06-29T18:39:01Z</time>
</trkpt>
<trkpt lat="38.23424627" lon="-1.10743508">
<ele>431</ele>
<time>2013-06-29T18:39:05Z</time>
</trkpt>
<trkpt lat="38.23440217" lon="-1.10711268">
<ele>438</ele>
<time>2013-06-29T18:39:09Z</time>
</trkpt>
<trkpt lat="38.23459873" lon="-1.10681838">
<ele>440</ele>
<time>2013-06-29T18:39:13Z</time>
</trkpt>
<trkpt lat="38.23483597" lon="-1.10671932">
<ele>439</ele>
<time>2013-06-29T18:39:17Z</time>
</trkpt>
<trkpt lat="38.23518287" lon="-1.10661078">
<ele>439</ele>
<time>2013-06-29T18:39:21Z</time>
</trkpt>
<trkpt lat="38.23550135" lon="-1.10655941">
<ele>437</ele>
<time>2013-06-29T18:39:25Z</time>
</trkpt>
<trkpt lat="38.23563947" lon="-1.10624956">
<ele>438</ele>
<time>2013-06-29T18:39:29Z</time>
</trkpt>
<trkpt lat="38.23573714" lon="-1.10599706">
<ele>438</ele>
<time>2013-06-29T18:39:33Z</time>
</trkpt>
<trkpt lat="38.23599864" lon="-1.10575337">
<ele>438</ele>
<time>2013-06-29T18:39:37Z</time>
</trkpt>
<trkpt lat="38.23633971" lon="-1.10551566">
<ele>441</ele>
<time>2013-06-29T18:39:41Z</time>
</trkpt>
<trkpt lat="38.23663261" lon="-1.10537248">
<ele>443</ele>
<time>2013-06-29T18:39:45Z</time>
</trkpt>
<trkpt lat="38.23687887" lon="-1.10509882">
<ele>442</ele>
<time>2013-06-29T18:39:49Z</time>
</trkpt>
<trkpt lat="38.23701795" lon="-1.10482201">
<ele>446</ele>
<time>2013-06-29T18:39:53Z</time>
</trkpt>
<trkpt lat="38.23681933" lon="-1.10490785">
<ele>448</ele>
<time>2013-06-29T18:39:57Z</time>
</trkpt>
<trkpt lat="38.23670565" lon="-1.10521976">
<ele>456</ele>
<time>2013-06-29T18:40:01Z</time>
</trkpt>
<trkpt lat="38.23660473" lon="-1.10557151">
<ele>460</ele>
<time>2013-06-29T18:40:05Z</time>
</trkpt>
<trkpt lat="38.23642085" lon="-1.10580725">
<ele>463</ele>
<time>2013-06-29T18:40:09Z</time>
</trkpt>
<trkpt lat="38.23616975" lon="-1.10590909">
<ele>467</ele>
<time>2013-06-29T18:40:13Z</time>
</trkpt>
<trkpt lat="38.23596725" lon="-1.10606213">
<ele>469</ele>
<time>2013-06-29T18:40:17Z</time>
</trkpt>
<trkpt lat="38.23580615" lon="-1.10623406">
<ele>473</ele>
<time>2013-06-29T18:40:21Z</time>
</trkpt>
<trkpt lat="38.23567991" lon="-1.10640467">
<ele>476</ele>
<time>2013-06-29T18:40:25Z</time>
</trkpt>
<trkpt lat="38.23552255" lon="-1.10655321">
<ele>479</ele>
<time>2013-06-29T18:40:29Z</time>
</trkpt>
<trkpt lat="38.23537637" lon="-1.10672073">
<ele>481</ele>
<time>2013-06-29T18:40:33Z</time>
</trkpt>
<trkpt lat="38.23524816" lon="-1.10695007">
<ele>485</ele>
<time>2013-06-29T18:40:37Z</time>
</trkpt>
<trkpt lat="38.23512328" lon="-1.10725056">
<ele>488</ele>
<time>2013-06-29T18:40:41Z</time>
</trkpt>
<trkpt lat="38.23499736" lon="-1.10761665">
<ele>491</ele>
<time>2013-06-29T18:40:45Z</time>
</trkpt>
<trkpt lat="38.23489502" lon="-1.10800566">
<ele>492</ele>
<time>2013-06-29T18:40:49Z</time>
</trkpt>
<trkpt lat="38.23472612" lon="-1.10838692">
<ele>497</ele>
<time>2013-06-29T18:40:53Z</time>
</trkpt>
<trkpt lat="38.23466729" lon="-1.10885764">
<ele>497</ele>
<time>2013-06-29T18:40:57Z</time>
</trkpt>
<trkpt lat="38.23452655" lon="-1.10927579">
<ele>501</ele>
<time>2013-06-29T18:41:01Z</time>
</trkpt>
<trkpt lat="38.23435395" lon="-1.10949936">
<ele>509</ele>
<time>2013-06-29T18:41:05Z</time>
</trkpt>
<trkpt lat="38.23420041" lon="-1.10943165">
<ele>514</ele>
<time>2013-06-29T18:41:09Z</time>
</trkpt>
<trkpt lat="38.23443658" lon="-1.10918756">
<ele>523</ele>
<time>2013-06-29T18:41:13Z</time>
</trkpt>
<trkpt lat="38.23453986" lon="-1.10907516">
<ele>517</ele>
<time>2013-06-29T18:41:17Z</time>
</trkpt>
<trkpt lat="38.23473422" lon="-1.1088643">
<ele>514</ele>
<time>2013-06-29T18:41:21Z</time>
</trkpt>
<trkpt lat="38.23493451" lon="-1.10859627">
<ele>512</ele>
<time>2013-06-29T18:41:25Z</time>
</trkpt>
<trkpt lat="38.2350567" lon="-1.10843555">
<ele>521</ele>
<time>2013-06-29T18:41:29Z</time>
</trkpt>
<trkpt lat="38.23526042" lon="-1.10822904">
<ele>523</ele>
<time>2013-06-29T18:41:33Z</time>
</trkpt>
<trkpt lat="38.23540959" lon="-1.10802458">
<ele>523</ele>
<time>2013-06-29T18:41:37Z</time>
</trkpt>
<trkpt lat="38.23559952" lon="-1.10782014">
<ele>521</ele>
<time>2013-06-29T18:41:41Z</time>
</trkpt>
<trkpt lat="38.23583303" lon="-1.1074841">
<ele>522</ele>
<time>2013-06-29T18:41:45Z</time>
</trkpt>
<trkpt lat="38.23592876" lon="-1.10727796">
<ele>532</ele>
<time>2013-06-29T18:41:49Z</time>
</trkpt>
<trkpt lat="38.23595018" lon="-1.10709956">
<ele>541</ele>
<time>2013-06-29T18:41:53Z</time>
</trkpt>
<trkpt lat="38.23593337" lon="-1.10692468">
<ele>545</ele>
<time>2013-06-29T18:41:57Z</time>
</trkpt>
<trkpt lat="38.23595266" lon="-1.10676879">
<ele>545</ele>
<time>2013-06-29T18:42:01Z</time>
</trkpt>
<trkpt lat="38.23581151" lon="-1.10670546">
<ele>542</ele>
<time>2013-06-29T18:42:05Z</time>
</trkpt>
<trkpt lat="38.23559479" lon="-1.10709922">
<ele>546</ele>
<time>2013-06-29T18:42:09Z</time>
</trkpt>
<trkpt lat="38.23539795" lon="-1.10744243">
<ele>555</ele>
<time>2013-06-29T18:42:13Z</time>
</trkpt>
<trkpt lat="38.23517364" lon="-1.10744548">
<ele>557</ele>
<time>2013-06-29T18:42:17Z</time>
</trkpt>
<trkpt lat="38.23522999" lon="-1.10724708">
<ele>566</ele>
<time>2013-06-29T18:42:21Z</time>
</trkpt>
<trkpt lat="38.23523759" lon="-1.10703742">
<ele>565</ele>
<time>2013-06-29T18:42:25Z</time>
</trkpt>
<trkpt lat="38.23529609" lon="-1.10680018">
<ele>565</ele>
<time>2013-06-29T18:42:29Z</time>
</trkpt>
<trkpt lat="38.2353275" lon="-1.10664752">
<ele>566</ele>
<time>2013-06-29T18:42:33Z</time>
</trkpt>
<trkpt lat="38.23538008" lon="-1.10641246">
<ele>564</ele>
<time>2013-06-29T18:42:37Z</time>
</trkpt>
<trkpt lat="38.23552777" lon="-1.10618842">
<ele>559</ele>
<time>2013-06-29T18:42:41Z</time>
</trkpt>
<trkpt lat="38.23570141" lon="-1.10595538">
<ele>555</ele>
<time>2013-06-29T18:42:45Z</time>
</trkpt>
<trkpt lat="38.23598514" lon="-1.1057468">
<ele>549</ele>
<time>2013-06-29T18:42:49Z</time>
</trkpt>
<trkpt lat="38.23618861" lon="-1.10549557">
<ele>553</ele>
<time>2013-06-29T18:42:53Z</time>
</trkpt>
<trkpt lat="38.23639091" lon="-1.10534136">
<ele>549</ele>
<time>2013-06-29T18:42:57Z</time>
</trkpt>
<trkpt lat="38.2368095" lon="-1.10537472">
<ele>549</ele>
<time>2013-06-29T18:43:01Z</time>
</trkpt>
<trkpt lat="38.23704862" lon="-1.10522545">
<ele>544</ele>
<time>2013-06-29T18:43:05Z</time>
</trkpt>
<trkpt lat="38.23697864" lon="-1.10501165">
<ele>538</ele>
<time>2013-06-29T18:43:09Z</time>
</trkpt>
<trkpt lat="38.23676304" lon="-1.10515003">
<ele>537</ele>
<time>2013-06-29T18:43:13Z</time>
</trkpt>
<trkpt lat="38.23659167" lon="-1.10544557">
<ele>536</ele>
<time>2013-06-29T18:43:17Z</time>
</trkpt>
<trkpt lat="38.23641903" lon="-1.10575246">
<ele>537</ele>
<time>2013-06-29T18:43:21Z</time>
</trkpt>
<trkpt lat="38.2362151" lon="-1.10608785">
<ele>533</ele>
<time>2013-06-29T18:43:25Z</time>
</trkpt>
<trkpt lat="38.23604878" lon="-1.10649067">
<ele>528</ele>
<time>2013-06-29T18:43:29Z</time>
</trkpt>
<trkpt lat="38.23581679" lon="-1.10673723">
<ele>529</ele>
<time>2013-06-29T18:43:33Z</time>
</trkpt>
<trkpt lat="38.23561349" lon="-1.10707181">
<ele>520</ele>
<time>2013-06-29T18:43:37Z</time>
</trkpt>
<trkpt lat="38.23547652" lon="-1.10752631">
<ele>514</ele>
<time>2013-06-29T18:43:41Z</time>
</trkpt>
<trkpt lat="38.23538151" lon="-1.10803388">
<ele>511</ele>
<time>2013-06-29T18:43:45Z</time>
</trkpt>
<trkpt lat="38.23521101" lon="-1.10848323">
<ele>510</ele>
<time>2013-06-29T18:43:49Z</time>
</trkpt>
<trkpt lat="38.23500866" lon="-1.10889843">
<ele>510</ele>
<time>2013-06-29T18:43:53Z</time>
</trkpt>
<trkpt lat="38.23475939" lon="-1.10920551">
<ele>508</ele>
<time>2013-06-29T18:43:57Z</time>
</trkpt>
<trkpt lat="38.23457096" lon="-1.10908534">
<ele>506</ele>
<time>2013-06-29T18:44:01Z</time>
</trkpt>
<trkpt lat="38.23471173" lon="-1.10876217">
<ele>505</ele>
<time>2013-06-29T18:44:05Z</time>
</trkpt>
<trkpt lat="38.23483565" lon="-1.10850731">
<ele>503</ele>
<time>2013-06-29T18:44:09Z</time>
</trkpt>
<trkpt lat="38.23498899" lon="-1.10825492">
<ele>498</ele>
<time>2013-06-29T18:44:13Z</time>
</trkpt>
<trkpt lat="38.23514124" lon="-1.1080385">
<ele>499</ele>
<time>2013-06-29T18:44:17Z</time>
</trkpt>
<trkpt lat="38.2353463" lon="-1.10782701">
<ele>500</ele>
<time>2013-06-29T18:44:21Z</time>
</trkpt>
<trkpt lat="38.235496" lon="-1.10762832">
<ele>498</ele>
<time>2013-06-29T18:44:25Z</time>
</trkpt>
<trkpt lat="38.23568626" lon="-1.10742169">
<ele>495</ele>
<time>2013-06-29T18:44:29Z</time>
</trkpt>
<trkpt lat="38.23587319" lon="-1.10719532">
<ele>494</ele>
<time>2013-06-29T18:44:33Z</time>
</trkpt>
<trkpt lat="38.23607953" lon="-1.10694789">
<ele>488</ele>
<time>2013-06-29T18:44:37Z</time>
</trkpt>
<trkpt lat="38.23627362" lon="-1.10667702">
<ele>485</ele>
<time>2013-06-29T18:44:41Z</time>
</trkpt>
<trkpt lat="38.23641289" lon="-1.10641083">
<ele>486</ele>
<time>2013-06-29T18:44:45Z</time>
</trkpt>
<trkpt lat="38.23654429" lon="-1.10617572">
<ele>482</ele>
<time>2013-06-29T18:44:49Z</time>
</trkpt>
<trkpt lat="38.23667619" lon="-1.10588696">
<ele>486</ele>
<time>2013-06-29T18:44:53Z</time>
</trkpt>
<trkpt lat="38.23690632" lon="-1.10564701">
<ele>486</ele>
<time>2013-06-29T18:44:57Z</time>
</trkpt>
<trkpt lat="38.23720704" lon="-1.10543467">
<ele>486</ele>
<time>2013-06-29T18:45:01Z</time>
</trkpt>
<trkpt lat="38.23745069" lon="-1.10519391">
<ele>487</ele>
<time>2013-06-29T18:45:05Z</time>
</trkpt>
<trkpt lat="38.23745748" lon="-1.10489589">
<ele>490</ele>
<time>2013-06-29T18:45:09Z</time>
</trkpt>
<trkpt lat="38.23725441" lon="-1.10471352">
<ele>494</ele>
<time>2013-06-29T18:45:13Z</time>
</trkpt>
<trkpt lat="38.23707477" lon="-1.10463722">
<ele>500</ele>
<time>2013-06-29T18:45:17Z</time>
</trkpt>
<trkpt lat="38.23685121" lon="-1.10464564">
<ele>504</ele>
<time>2013-06-29T18:45:21Z</time>
</trkpt>
<trkpt lat="38.23658103" lon="-1.10470126">
<ele>507</ele>
<time>2013-06-29T18:45:25Z</time>
</trkpt>
<trkpt lat="38.23635357" lon="-1.10503304">
<ele>515</ele>
<time>2013-06-29T18:45:29Z</time>
</trkpt>
<trkpt lat="38.23632249" lon="-1.10551439">
<ele>519</ele>
<time>2013-06-29T18:45:33Z</time>
</trkpt>
<trkpt lat="38.23631408" lon="-1.1060449">
<ele>524</ele>
<time>2013-06-29T18:45:37Z</time>
</trkpt>
<trkpt lat="38.23628813" lon="-1.10654118">
<ele>532</ele>
<time>2013-06-29T18:45:41Z</time>
</trkpt>
<trkpt lat="38.23616391" lon="-1.10691753">
<ele>538</ele>
<time>2013-06-29T18:45:45Z</time>
</trkpt>
<trkpt lat="38.2359279" lon="-1.10722035">
<ele>537</ele>
<time>2013-06-29T18:45:49Z</time>
</trkpt>
<trkpt lat="38.23584711" lon="-1.10773639">
<ele>541</ele>
<time>2013-06-29T18:45:53Z</time>
</trkpt>
<trkpt lat="38.235784" lon="-1.10826417">
<ele>546</ele>
<time>2013-06-29T18:45:57Z</time>
</trkpt>
<trkpt lat="38.23567416" lon="-1.10866071">
<ele>557</ele>
<time>2013-06-29T18:46:01Z</time>
</trkpt>
<trkpt lat="38.23546877" lon="-1.10899756">
<ele>568</ele>
<time>2013-06-29T18:46:05Z</time>
</trkpt>
<trkpt lat="38.23527119" lon="-1.10904751">
<ele>577</ele>
<time>2013-06-29T18:46:09Z</time>
</trkpt>
<trkpt lat="38.23528025" lon="-1.1088309">
<ele>582</ele>
<time>2013-06-29T18:46:13Z</time>
</trkpt>
<trkpt lat="38.23536948" lon="-1.10852319">
<ele>584</ele>
<time>2013-06-29T18:46:17Z</time>
</trkpt>
<trkpt lat="38.23559418" lon="-1.10825228">
<ele>590</ele>
<time>2013-06-29T18:46:21Z</time>
</trkpt>
<trkpt lat="38.23573095" lon="-1.10805412">
<ele>594</ele>
<time>2013-06-29T18:46:25Z</time>
</trkpt>
<trkpt lat="38.23586079" lon="-1.10783683">
<ele>590</ele>
<time>2013-06-29T18:46:29Z</time>
</trkpt>
<trkpt lat="38.23567076" lon="-1.10787456">
<ele>587</ele>
<time>2013-06-29T18:46:33Z</time>
</trkpt>
<trkpt lat="38.23553162" lon="-1.10839112">
<ele>585</ele>
<time>2013-06-29T18:46:37Z</time>
</trkpt>
<trkpt lat="38.23558413" lon="-1.10898735">
<ele>586</ele>
<time>2013-06-29T18:46:41Z</time>
</trkpt>
<trkpt lat="38.23559463" lon="-1.10952802">
<ele>588</ele>
<time>2013-06-29T18:46:45Z</time>
</trkpt>
<trkpt lat="38.23544575" lon="-1.10983065">
<ele>587</ele>
<time>2013-06-29T18:46:49Z</time>
</trkpt>
<trkpt lat="38.23529986" lon="-1.10970763">
<ele>583</ele>
<time>2013-06-29T18:46:53Z</time>
</trkpt>
<trkpt lat="38.2352997" lon="-1.10948063">
<ele>584</ele>
<time>2013-06-29T18:46:57Z</time>
</trkpt>
<trkpt lat="38.23531137" lon="-1.10927149">
<ele>585</ele>
<time>2013-06-29T18:47:01Z</time>
</trkpt>
<trkpt lat="38.23547848" lon="-1.10903838">
<ele>587</ele>
<time>2013-06-29T18:47:05Z</time>
</trkpt>
<trkpt lat="38.23571746" lon="-1.10882778">
<ele>593</ele>
<time>2013-06-29T18:47:09Z</time>
</trkpt>
<trkpt lat="38.23588174" lon="-1.10859801">
<ele>595</ele>
<time>2013-06-29T18:47:13Z</time>
</trkpt>
<trkpt lat="38.23599996" lon="-1.10834759">
<ele>600</ele>
<time>2013-06-29T18:47:17Z</time>
</trkpt>
<trkpt lat="38.23608021" lon="-1.10808267">
<ele>600</ele>
<time>2013-06-29T18:47:21Z</time>
</trkpt>
<trkpt lat="38.23615824" lon="-1.10779402">
<ele>599</ele>
<time>2013-06-29T18:47:25Z</time>
</trkpt>
<trkpt lat="38.23626694" lon="-1.10754007">
<ele>600</ele>
<time>2013-06-29T18:47:29Z</time>
</trkpt>
<trkpt lat="38.23634775" lon="-1.10724082">
<ele>600</ele>
<time>2013-06-29T18:47:33Z</time>
</trkpt>
<trkpt lat="38.23644205" lon="-1.10690363">
<ele>600</ele>
<time>2013-06-29T18:47:37Z</time>
</trkpt>
<trkpt lat="38.23657182" lon="-1.10661173">
<ele>597</ele>
<time>2013-06-29T18:47:41Z</time>
</trkpt>
<trkpt lat="38.23677189" lon="-1.10635368">
<ele>591</ele>
<time>2013-06-29T18:47:45Z</time>
</trkpt>
<trkpt lat="38.23694204" lon="-1.10604334">
<ele>584</ele>
<time>2013-06-29T18:47:49Z</time>
</trkpt>
<trkpt lat="38.2371816" lon="-1.10576294">
<ele>580</ele>
<time>2013-06-29T18:47:53Z</time>
</trkpt>
<trkpt lat="38.2372913" lon="-1.10544564">
<ele>572</ele>
<time>2013-06-29T18:47:57Z</time>
</trkpt>
<trkpt lat="38.23704816" lon="-1.10544298">
<ele>566</ele>
<time>2013-06-29T18:48:01Z</time>
</trkpt>
<trkpt lat="38.23686692" lon="-1.10575107">
<ele>564</ele>
<time>2013-06-29T18:48:05Z</time>
</trkpt>
<trkpt lat="38.23669108" lon="-1.10611318">
<ele>560</ele>
<time>2013-06-29T18:48:09Z</time>
</trkpt>
<trkpt lat="38.23660119" lon="-1.10651907">
<ele>556</ele>
<time>2013-06-29T18:48:13Z</time>
</trkpt>
<trkpt lat="38.23657677" lon="-1.10703133">
<ele>551</ele>
<time>2013-06-29T18:48:17Z</time>
</trkpt>
<trkpt lat="38.23662441" lon="-1.10757401">
<ele>550</ele>
<time>2013-06-29T18:48:21Z</time>
</trkpt>
<trkpt lat="38.23656288" lon="-1.10807207">
<ele>554</ele>
<time>2013-06-29T18:48:25Z</time>
</trkpt>
<trkpt lat="38.23645205" lon="-1.10848032">
<ele>561</ele>
<time>2013-06-29T18:48:29Z</time>
</trkpt>
<trkpt lat="38.2362264" lon="-1.10877272">
<ele>567</ele>
<time>2013-06-29T18:48:33Z</time>
</trkpt>
<trkpt lat="38.2360452" lon="-1.1090977">
<ele>572</ele>
<time>2013-06-29T18:48:37Z</time>
</trkpt>
<trkpt lat="38.23587746" lon="-1.10936959">
<ele>574</ele>
<time>2013-06-29T18:48:41Z</time>
</trkpt>
<trkpt lat="38.23565705" lon="-1.10941525">
<ele>572</ele>
<time>2013-06-29T18:48:45Z</time>
</trkpt>
<trkpt lat="38.2355405" lon="-1.10925986">
<ele>571</ele>
<time>2013-06-29T18:48:49Z</time>
</trkpt>
<trkpt lat="38.23565507" lon="-1.10893559">
<ele>570</ele>
<time>2013-06-29T18:48:53Z</time>
</trkpt>
<trkpt lat="38.23579011" lon="-1.10864229">
<ele>566</ele>
<time>2013-06-29T18:48:57Z</time>
</trkpt>
<trkpt lat="38.23593264" lon="-1.10831302">
<ele>564</ele>
<time>2013-06-29T18:49:01Z</time>
</trkpt>
<trkpt lat="38.23617074" lon="-1.10807015">
<ele>561</ele>
<time>2013-06-29T18:49:05Z</time>
</trkpt>
<trkpt lat="38.2363163" lon="-1.10776064">
<ele>562</ele>
<time>2013-06-29T18:49:09Z</time>
</trkpt>
<trkpt lat="38.23641248" lon="-1.10745247">
<ele>564</ele>
<time>2013-06-29T18:49:13Z</time>
</trkpt>
<trkpt lat="38.23656501" lon="-1.10708632">
<ele>565</ele>
<time>2013-06-29T18:49:17Z</time>
</trkpt>
<trkpt lat="38.23668382" lon="-1.10674636">
<ele>561</ele>
<time>2013-06-29T18:49:21Z</time>
</trkpt>
<trkpt lat="38.23682135" lon="-1.10639086">
<ele>555</ele>
<time>2013-06-29T18:49:25Z</time>
</trkpt>
<trkpt lat="38.23695817" lon="-1.1060951">
<ele>556</ele>
<time>2013-06-29T18:49:29Z</time>
</trkpt>
<trkpt lat="38.23705511" lon="-1.10577447">
<ele>555</ele>
<time>2013-06-29T18:49:33Z</time>
</trkpt>
<trkpt lat="38.23716386" lon="-1.10554757">
<ele>554</ele>
<time>2013-06-29T18:49:37Z</time>
</trkpt>
<trkpt lat="38.23740772" lon="-1.10527418">
<ele>552</ele>
<time>2013-06-29T18:49:41Z</time>
</trkpt>
<trkpt lat="38.23755418" lon="-1.10494531">
<ele>548</ele>
<time>2013-06-29T18:49:45Z</time>
</trkpt>
<trkpt lat="38.23765258" lon="-1.10464044">
<ele>544</ele>
<time>2013-06-29T18:49:49Z</time>
</trkpt>
<trkpt lat="38.23777873" lon="-1.10434683">
<ele>540</ele>
<time>2013-06-29T18:49:53Z</time>
</trkpt>
<trkpt lat="38.23785121" lon="-1.10404256">
<ele>542</ele>
<time>2013-06-29T18:49:57Z</time>
</trkpt>
<trkpt lat="38.23770251" lon="-1.10391062">
<ele>538</ele>
<time>2013-06-29T18:50:01Z</time>
</trkpt>
<trkpt lat="38.23746097" lon="-1.10408674">
<ele>540</ele>
<time>2013-06-29T18:50:05Z</time>
</trkpt>
<trkpt lat="38.23723744" lon="-1.10439814">
<ele>540</ele>
<time>2013-06-29T18:50:09Z</time>
</trkpt>
<trkpt lat="38.23706218" lon="-1.10475086">
<ele>544</ele>
<time>2013-06-29T18:50:13Z</time>
</trkpt>
<trkpt lat="38.23689964" lon="-1.10503626">
<ele>546</ele>
<time>2013-06-29T18:50:17Z</time>
</trkpt>
<trkpt lat="38.23676081" lon="-1.10541555">
<ele>550</ele>
<time>2013-06-29T18:50:21Z</time>
</trkpt>
<trkpt lat="38.23664208" lon="-1.10578683">
<ele>551</ele>
<time>2013-06-29T18:50:25Z</time>
</trkpt>
<trkpt lat="38.23649664" lon="-1.10614156">
<ele>553</ele>
<time>2013-06-29T18:50:29Z</time>
</trkpt>
<trkpt lat="38.23635403" lon="-1.10651534">
<ele>560</ele>
<time>2013-06-29T18:50:33Z</time>
</trkpt>
<trkpt lat="38.23633311" lon="-1.10689626">
<ele>561</ele>
<time>2013-06-29T18:50:37Z</time>
</trkpt>
<trkpt lat="38.23645736" lon="-1.10741984">
<ele>563</ele>
<time>2013-06-29T18:50:41Z</time>
</trkpt>
<trkpt lat="38.23639397" lon="-1.10789989">
<ele>565</ele>
<time>2013-06-29T18:50:45Z</time>
</trkpt>
<trkpt lat="38.23628405" lon="-1.10831267">
<ele>572</ele>
<time>2013-06-29T18:50:49Z</time>
</trkpt>
<trkpt lat="38.23613092" lon="-1.10869015">
<ele>572</ele>
<time>2013-06-29T18:50:53Z</time>
</trkpt>
<trkpt lat="38.23596407" lon="-1.10901813">
<ele>580</ele>
<time>2013-06-29T18:50:57Z</time>
</trkpt>
<trkpt lat="38.23576435" lon="-1.10916147">
<ele>583</ele>
<time>2013-06-29T18:51:01Z</time>
</trkpt>
<trkpt lat="38.23561171" lon="-1.10906742">
<ele>581</ele>
<time>2013-06-29T18:51:05Z</time>
</trkpt>
<trkpt lat="38.23552821" lon="-1.10881427">
<ele>586</ele>
<time>2013-06-29T18:51:09Z</time>
</trkpt>
<trkpt lat="38.23551189" lon="-1.10851152">
<ele>592</ele>
<time>2013-06-29T18:51:13Z</time>
</trkpt>
<trkpt lat="38.23558261" lon="-1.10819141">
<ele>593</ele>
<time>2013-06-29T18:51:17Z</time>
</trkpt>
<trkpt lat="38.23564055" lon="-1.10789921">
<ele>591</ele>
<time>2013-06-29T18:51:21Z</time>
</trkpt>
<trkpt lat="38.23589691" lon="-1.10763498">
<ele>588</ele>
<time>2013-06-29T18:51:25Z</time>
</trkpt>
<trkpt lat="38.23620588" lon="-1.10737994">
<ele>581</ele>
<time>2013-06-29T18:51:29Z</time>
</trkpt>
<trkpt lat="38.23648394" lon="-1.10703997">
<ele>583</ele>
<time>2013-06-29T18:51:33Z</time>
</trkpt>
<trkpt lat="38.23653243" lon="-1.10677133">
<ele>583</ele>
<time>2013-06-29T18:51:37Z</time>
</trkpt>
<trkpt lat="38.23633321" lon="-1.10667585">
<ele>589</ele>
<time>2013-06-29T18:51:41Z</time>
</trkpt>
<trkpt lat="38.23614511" lon="-1.10683517">
<ele>592</ele>
<time>2013-06-29T18:51:45Z</time>
</trkpt>
<trkpt lat="38.23594268" lon="-1.10696358">
<ele>593</ele>
<time>2013-06-29T18:51:49Z</time>
</trkpt>
<trkpt lat="38.23575842" lon="-1.10718956">
<ele>589</ele>
<time>2013-06-29T18:51:53Z</time>
</trkpt>
<trkpt lat="38.23558541" lon="-1.10752763">
<ele>588</ele>
<time>2013-06-29T18:51:57Z</time>
</trkpt>
<trkpt lat="38.23541891" lon="-1.1079159">
<ele>587</ele>
<time>2013-06-29T18:52:01Z</time>
</trkpt>
<trkpt lat="38.23525779" lon="-1.10825477">
<ele>585</ele>
<time>2013-06-29T18:52:05Z</time>
</trkpt>
<trkpt lat="38.23507322" lon="-1.10856608">
<ele>581</ele>
<time>2013-06-29T18:52:09Z</time>
</trkpt>
<trkpt lat="38.23489949" lon="-1.10895291">
<ele>580</ele>
<time>2013-06-29T18:52:13Z</time>
</trkpt>
<trkpt lat="38.23483573" lon="-1.10941333">
<ele>581</ele>
<time>2013-06-29T18:52:17Z</time>
</trkpt>
<trkpt lat="38.23466203" lon="-1.10976482">
<ele>580</ele>
<time>2013-06-29T18:52:21Z</time>
</trkpt>
<trkpt lat="38.2344551" lon="-1.10982298">
<ele>579</ele>
<time>2013-06-29T18:52:25Z</time>
</trkpt>
<trkpt lat="38.23434585" lon="-1.10972195">
<ele>581</ele>
<time>2013-06-29T18:52:29Z</time>
</trkpt>
<trkpt lat="38.23422933" lon="-1.1095094">
<ele>583</ele>
<time>2013-06-29T18:52:33Z</time>
</trkpt>
<trkpt lat="38.23411498" lon="-1.10939211">
<ele>585</ele>
<time>2013-06-29T18:52:37Z</time>
</trkpt>
<trkpt lat="38.234009" lon="-1.10917031">
<ele>587</ele>
<time>2013-06-29T18:52:41Z</time>
</trkpt>
<trkpt lat="38.23392576" lon="-1.10899262">
<ele>589</ele>
<time>2013-06-29T18:52:45Z</time>
</trkpt>
<trkpt lat="38.23400633" lon="-1.10870458">
<ele>589</ele>
<time>2013-06-29T18:52:49Z</time>
</trkpt>
<trkpt lat="38.2340647" lon="-1.10845418">
<ele>584</ele>
<time>2013-06-29T18:52:53Z</time>
</trkpt>
<trkpt lat="38.2340932" lon="-1.10818878">
<ele>579</ele>
<time>2013-06-29T18:52:57Z</time>
</trkpt>
<trkpt lat="38.23410719" lon="-1.10790581">
<ele>577</ele>
<time>2013-06-29T18:53:01Z</time>
</trkpt>
<trkpt lat="38.23408082" lon="-1.10755166">
<ele>575</ele>
<time>2013-06-29T18:53:05Z</time>
</trkpt>
<trkpt lat="38.23406584" lon="-1.10726345">
<ele>569</ele>
<time>2013-06-29T18:53:09Z</time>
</trkpt>
<trkpt lat="38.23417001" lon="-1.10699324">
<ele>563</ele>
<time>2013-06-29T18:53:13Z</time>
</trkpt>
<trkpt lat="38.23422972" lon="-1.10660429">
<ele>558</ele>
<time>2013-06-29T18:53:17Z</time>
</trkpt>
<trkpt lat="38.23439663" lon="-1.10636237">
<ele>558</ele>
<time>2013-06-29T18:53:21Z</time>
</trkpt>
<trkpt lat="38.23479382" lon="-1.10637525">
<ele>556</ele>
<time>2013-06-29T18:53:25Z</time>
</trkpt>
<trkpt lat="38.23513525" lon="-1.10674086">
<ele>554</ele>
<time>2013-06-29T18:53:29Z</time>
</trkpt>
<trkpt lat="38.23554187" lon="-1.10704266">
<ele>549</ele>
<time>2013-06-29T18:53:33Z</time>
</trkpt>
<trkpt lat="38.235934" lon="-1.10692134">
<ele>546</ele>
<time>2013-06-29T18:53:37Z</time>
</trkpt>
<trkpt lat="38.23616341" lon="-1.10664333">
<ele>547</ele>
<time>2013-06-29T18:53:41Z</time>
</trkpt>
<trkpt lat="38.23628403" lon="-1.10645236">
<ele>549</ele>
<time>2013-06-29T18:53:45Z</time>
</trkpt>
<trkpt lat="38.23639664" lon="-1.10619311">
<ele>547</ele>
<time>2013-06-29T18:53:49Z</time>
</trkpt>
<trkpt lat="38.23644927" lon="-1.10591561">
<ele>548</ele>
<time>2013-06-29T18:53:53Z</time>
</trkpt>
<trkpt lat="38.23642407" lon="-1.10571686">
<ele>556</ele>
<time>2013-06-29T18:53:57Z</time>
</trkpt>
<trkpt lat="38.23635711" lon="-1.10550258">
<ele>561</ele>
<time>2013-06-29T18:54:01Z</time>
</trkpt>
<trkpt lat="38.23625121" lon="-1.10536147">
<ele>567</ele>
<time>2013-06-29T18:54:05Z</time>
</trkpt>
<trkpt lat="38.23608458" lon="-1.10553778">
<ele>566</ele>
<time>2013-06-29T18:54:09Z</time>
</trkpt>
<trkpt lat="38.23621088" lon="-1.10610214">
<ele>568</ele>
<time>2013-06-29T18:54:13Z</time>
</trkpt>
<trkpt lat="38.2366112" lon="-1.10617841">
<ele>569</ele>
<time>2013-06-29T18:54:17Z</time>
</trkpt>
<trkpt lat="38.23655701" lon="-1.10594886">
<ele>569</ele>
<time>2013-06-29T18:54:21Z</time>
</trkpt>
<trkpt lat="38.23639479" lon="-1.106183">
<ele>576</ele>
<time>2013-06-29T18:54:25Z</time>
</trkpt>
<trkpt lat="38.23639769" lon="-1.10668469">
<ele>577</ele>
<time>2013-06-29T18:54:29Z</time>
</trkpt>
<trkpt lat="38.23678782" lon="-1.10698356">
<ele>579</ele>
<time>2013-06-29T18:54:33Z</time>
</trkpt>
<trkpt lat="38.23696261" lon="-1.10673842">
<ele>581</ele>
<time>2013-06-29T18:54:37Z</time>
</trkpt>
<trkpt lat="38.23685498" lon="-1.1066029">
<ele>591</ele>
<time>2013-06-29T18:54:41Z</time>
</trkpt>
<trkpt lat="38.23667833" lon="-1.10650312">
<ele>595</ele>
<time>2013-06-29T18:54:45Z</time>
</trkpt>
<trkpt lat="38.23651243" lon="-1.10643954">
<ele>598</ele>
<time>2013-06-29T18:54:49Z</time>
</trkpt>
<trkpt lat="38.23630907" lon="-1.10649762">
<ele>598</ele>
<time>2013-06-29T18:54:53Z</time>
</trkpt>
<trkpt lat="38.23615569" lon="-1.10682596">
<ele>595</ele>
<time>2013-06-29T18:54:57Z</time>
</trkpt>
<trkpt lat="38.23610921" lon="-1.10731654">
<ele>600</ele>
<time>2013-06-29T18:55:01Z</time>
</trkpt>
<trkpt lat="38.23605374" lon="-1.10775482">
<ele>603</ele>
<time>2013-06-29T18:55:05Z</time>
</trkpt>
<trkpt lat="38.23597425" lon="-1.10821918">
<ele>607</ele>
<time>2013-06-29T18:55:09Z</time>
</trkpt>
<trkpt lat="38.2358568" lon="-1.10865914">
<ele>615</ele>
<time>2013-06-29T18:55:13Z</time>
</trkpt>
<trkpt lat="38.23566409" lon="-1.10899522">
<ele>624</ele>
<time>2013-06-29T18:55:17Z</time>
</trkpt>
<trkpt lat="38.23551046" lon="-1.10897848">
<ele>630</ele>
<time>2013-06-29T18:55:21Z</time>
</trkpt>
<trkpt lat="38.23564998" lon="-1.10876222">
<ele>635</ele>
<time>2013-06-29T18:55:25Z</time>
</trkpt>
<trkpt lat="38.23604182" lon="-1.10916014">
<ele>641</ele>
<time>2013-06-29T18:55:29Z</time>
</trkpt>
<trkpt lat="38.23593811" lon="-1.10966499">
<ele>649</ele>
<time>2013-06-29T18:55:33Z</time>
</trkpt>
<trkpt lat="38.23575214" lon="-1.10971739">
<ele>658</ele>
<time>2013-06-29T18:55:37Z</time>
</trkpt>
<trkpt lat="38.23586566" lon="-1.10949168">
<ele>662</ele>
<time>2013-06-29T18:55:41Z</time>
</trkpt>
<trkpt lat="38.23627118" lon="-1.10981333">
<ele>664</ele>
<time>2013-06-29T18:55:45Z</time>
</trkpt>
<trkpt lat="38.23629426" lon="-1.11035806">
<ele>676</ele>
<time>2013-06-29T18:55:49Z</time>
</trkpt>
<trkpt lat="38.23609691" lon="-1.11069699">
<ele>679</ele>
<time>2013-06-29T18:55:53Z</time>
</trkpt>
<trkpt lat="38.23589212" lon="-1.11080486">
<ele>686</ele>
<time>2013-06-29T18:55:57Z</time>
</trkpt>
<trkpt lat="38.23586985" lon="-1.11066295">
<ele>688</ele>
<time>2013-06-29T18:56:01Z</time>
</trkpt>
<trkpt lat="38.23617057" lon="-1.11053735">
<ele>689</ele>
<time>2013-06-29T18:56:05Z</time>
</trkpt>
<trkpt lat="38.23648566" lon="-1.1110334">
<ele>692</ele>
<time>2013-06-29T18:56:09Z</time>
</trkpt>
<trkpt lat="38.23641871" lon="-1.1115694">
<ele>697</ele>
<time>2013-06-29T18:56:13Z</time>
</trkpt>
<trkpt lat="38.2362422" lon="-1.11175205">
<ele>700</ele>
<time>2013-06-29T18:56:17Z</time>
</trkpt>
<trkpt lat="38.23608948" lon="-1.11174875">
<ele>700</ele>
<time>2013-06-29T18:56:21Z</time>
</trkpt>
<trkpt lat="38.23605597" lon="-1.11150327">
<ele>705</ele>
<time>2013-06-29T18:56:25Z</time>
</trkpt>
<trkpt lat="38.23599455" lon="-1.11140981">
<ele>710</ele>
<time>2013-06-29T18:56:29Z</time>
</trkpt>
<trkpt lat="38.23593047" lon="-1.11122181">
<ele>713</ele>
<time>2013-06-29T18:56:33Z</time>
</trkpt>
<trkpt lat="38.23578506" lon="-1.11115264">
<ele>720</ele>
<time>2013-06-29T18:56:37Z</time>
</trkpt>
<trkpt lat="38.23556101" lon="-1.111226">
<ele>726</ele>
<time>2013-06-29T18:56:41Z</time>
</trkpt>
<trkpt lat="38.23531096" lon="-1.11141987">
<ele>732</ele>
<time>2013-06-29T18:56:45Z</time>
</trkpt>
<trkpt lat="38.2350555" lon="-1.111624">
<ele>733</ele>
<time>2013-06-29T18:56:49Z</time>
</trkpt>
<trkpt lat="38.23482542" lon="-1.1117832">
<ele>733</ele>
<time>2013-06-29T18:56:53Z</time>
</trkpt>
<trkpt lat="38.23457665" lon="-1.11189085">
<ele>732</ele>
<time>2013-06-29T18:56:57Z</time>
</trkpt>
<trkpt lat="38.23438608" lon="-1.11187747">
<ele>729</ele>
<time>2013-06-29T18:57:01Z</time>
</trkpt>
<trkpt lat="38.23420693" lon="-1.11180687">
<ele>724</ele>
<time>2013-06-29T18:57:05Z</time>
</trkpt>
<trkpt lat="38.23406421" lon="-1.11169439">
<ele>715</ele>
<time>2013-06-29T18:57:09Z</time>
</trkpt>
<trkpt lat="38.23399005" lon="-1.1114639">
<ele>709</ele>
<time>2013-06-29T18:57:13Z</time>
</trkpt>
<trkpt lat="38.23391036" lon="-1.11128701">
<ele>706</ele>
<time>2013-06-29T18:57:17Z</time>
</trkpt>
<trkpt lat="38.23390232" lon="-1.1110785">
<ele>704</ele>
<time>2013-06-29T18:57:21Z</time>
</trkpt>
<trkpt lat="38.2338618" lon="-1.11085319">
<ele>706</ele>
<time>2013-06-29T18:57:25Z</time>
</trkpt>
<trkpt lat="38.23378581" lon="-1.11065059">
<ele>710</ele>
<time>2013-06-29T18:57:29Z</time>
</trkpt>
<trkpt lat="38.23369538" lon="-1.11043908">
<ele>713</ele>
<time>2013-06-29T18:57:33Z</time>
</trkpt>
<trkpt lat="38.23360512" lon="-1.11021608">
<ele>715</ele>
<time>2013-06-29T18:57:37Z</time>
</trkpt>
<trkpt lat="38.23352266" lon="-1.10996767">
<ele>714</ele>
<time>2013-06-29T18:57:41Z</time>
</trkpt>
<trkpt lat="38.23335652" lon="-1.10982133">
<ele>712</ele>
<time>2013-06-29T18:57:45Z</time>
</trkpt>
<trkpt lat="38.23320909" lon="-1.10961541">
<ele>709</ele>
<time>2013-06-29T18:57:49Z</time>
</trkpt>
<trkpt lat="38.2331994" lon="-1.10935389">
<ele>706</ele>
<time>2013-06-29T18:57:53Z</time>
</trkpt>
<trkpt lat="38.23327895" lon="-1.10905455">
<ele>706</ele>
<time>2013-06-29T18:57:57Z</time>
</trkpt>
<trkpt lat="38.23332142" lon="-1.10881849">
<ele>704</ele>
<time>2013-06-29T18:58:01Z</time>
</trkpt>
<trkpt lat="38.23336927" lon="-1.10858629">
<ele>702</ele>
<time>2013-06-29T18:58:05Z</time>
</trkpt>
<trkpt lat="38.23347142" lon="-1.10832998">
<ele>702</ele>
<time>2013-06-29T18:58:09Z</time>
</trkpt>
<trkpt lat="38.2335773" lon="-1.10806184">
<ele>705</ele>
<time>2013-06-29T18:58:13Z</time>
</trkpt>
<trkpt lat="38.23369719" lon="-1.10783673">
<ele>710</ele>
<time>2013-06-29T18:58:17Z</time>
</trkpt>
<trkpt lat="38.23382687" lon="-1.10760258">
<ele>711</ele>
<time>2013-06-29T18:58:21Z</time>
</trkpt>
<trkpt lat="38.23390311" lon="-1.10733659">
<ele>709</ele>
<time>2013-06-29T18:58:25Z</time>
</trkpt>
<trkpt lat="38.23397514" lon="-1.10712194">
<ele>708</ele>
<time>2013-06-29T18:58:29Z</time>
</trkpt>
<trkpt lat="38.23402135" lon="-1.10692907">
<ele>707</ele>
<time>2013-06-29T18:58:33Z</time>
</trkpt>
<trkpt lat="38.23411657" lon="-1.10668832">
<ele>708</ele>
<time>2013-06-29T18:58:37Z</time>
</trkpt>
<trkpt lat="38.23417848" lon="-1.10646552">
<ele>708</ele>
<time>2013-06-29T18:58:41Z</time>
</trkpt>
<trkpt lat="38.23426539" lon="-1.10624143">
<ele>703</ele>
<time>2013-06-29T18:58:45Z</time>
</trkpt>
<trkpt lat="38.23429092" lon="-1.10599632">
<ele>700</ele>
<time>2013-06-29T18:58:49Z</time>
</trkpt>
<trkpt lat="38.23424373" lon="-1.10578793">
<ele>695</ele>
<time>2013-06-29T18:58:53Z</time>
</trkpt>
<trkpt lat="38.23416958" lon="-1.10560051">
<ele>691</ele>
<time>2013-06-29T18:58:57Z</time>
</trkpt>
<trkpt lat="38.23406672" lon="-1.10542627">
<ele>686</ele>
<time>2013-06-29T18:59:01Z</time>
</trkpt>
<trkpt lat="38.23395333" lon="-1.10528059">
<ele>681</ele>
<time>2013-06-29T18:59:05Z</time>
</trkpt>
<trkpt lat="38.23386817" lon="-1.10509755">
<ele>680</ele>
<time>2013-06-29T18:59:09Z</time>
</trkpt>
<trkpt lat="38.23383982" lon="-1.10488353">
<ele>678</ele>
<time>2013-06-29T18:59:13Z</time>
</trkpt>
<trkpt lat="38.23385157" lon="-1.10461623">
<ele>678</ele>
<time>2013-06-29T18:59:17Z</time>
</trkpt>
<trkpt lat="38.23382898" lon="-1.10436675">
<ele>677</ele>
<time>2013-06-29T18:59:21Z</time>
</trkpt>
<trkpt lat="38.23383546" lon="-1.10414734">
<ele>671</ele>
<time>2013-06-29T18:59:25Z</time>
</trkpt>
<trkpt lat="38.2338457" lon="-1.10386643">
<ele>666</ele>
<time>2013-06-29T18:59:29Z</time>
</trkpt>
<trkpt lat="38.23385515" lon="-1.10367679">
<ele>668</ele>
<time>2013-06-29T18:59:33Z</time>
</trkpt>
<trkpt lat="38.23388087" lon="-1.10348098">
<ele>665</ele>
<time>2013-06-29T18:59:37Z</time>
</trkpt>
<trkpt lat="38.23392827" lon="-1.10321344">
<ele>663</ele>
<time>2013-06-29T18:59:41Z</time>
</trkpt>
<trkpt lat="38.23394688" lon="-1.10289203">
<ele>665</ele>
<time>2013-06-29T18:59:45Z</time>
</trkpt>
<trkpt lat="38.23393985" lon="-1.10266273">
<ele>666</ele>
<time>2013-06-29T18:59:49Z</time>
</trkpt>
<trkpt lat="38.23390928" lon="-1.10249922">
<ele>662</ele>
<time>2013-06-29T18:59:53Z</time>
</trkpt>
<trkpt lat="38.23390234" lon="-1.10229527">
<ele>663</ele>
<time>2013-06-29T18:59:57Z</time>
</trkpt>
<trkpt lat="38.23388558" lon="-1.10208342">
<ele>658</ele>
<time>2013-06-29T19:00:01Z</time>
</trkpt>
<trkpt lat="38.23385198" lon="-1.10181893">
<ele>653</ele>
<time>2013-06-29T19:00:05Z</time>
</trkpt>
<trkpt lat="38.23380526" lon="-1.10155017">
<ele>647</ele>
<time>2013-06-29T19:00:09Z</time>
</trkpt>
<trkpt lat="38.23377596" lon="-1.10135925">
<ele>645</ele>
<time>2013-06-29T19:00:13Z</time>
</trkpt>
<trkpt lat="38.23373681" lon="-1.10109621">
<ele>641</ele>
<time>2013-06-29T19:00:17Z</time>
</trkpt>
<trkpt lat="38.23374735" lon="-1.10089467">
<ele>638</ele>
<time>2013-06-29T19:00:21Z</time>
</trkpt>
<trkpt lat="38.23376021" lon="-1.10062974">
<ele>634</ele>
<time>2013-06-29T19:00:25Z</time>
</trkpt>
<trkpt lat="38.23379367" lon="-1.10038286">
<ele>626</ele>
<time>2013-06-29T19:00:29Z</time>
</trkpt>
<trkpt lat="38.23386139" lon="-1.10005616">
<ele>619</ele>
<time>2013-06-29T19:00:33Z</time>
</trkpt>
<trkpt lat="38.23389432" lon="-1.09979043">
<ele>617</ele>
<time>2013-06-29T19:00:37Z</time>
</trkpt>
<trkpt lat="38.23390622" lon="-1.09950333">
<ele>617</ele>
<time>2013-06-29T19:00:41Z</time>
</trkpt>
<trkpt lat="38.23398852" lon="-1.09927744">
<ele>614</ele>
<time>2013-06-29T19:00:45Z</time>
</trkpt>
<trkpt lat="38.23404134" lon="-1.09901811">
<ele>612</ele>
<time>2013-06-29T19:00:49Z</time>
</trkpt>
<trkpt lat="38.23416404" lon="-1.09870743">
<ele>609</ele>
<time>2013-06-29T19:00:53Z</time>
</trkpt>
<trkpt lat="38.23418112" lon="-1.09845906">
<ele>608</ele>
<time>2013-06-29T19:00:57Z</time>
</trkpt>
<trkpt lat="38.23424471" lon="-1.09826137">
<ele>609</ele>
<time>2013-06-29T19:01:01Z</time>
</trkpt>
<trkpt lat="38.2343422" lon="-1.09807005">
<ele>607</ele>
<time>2013-06-29T19:01:05Z</time>
</trkpt>
<trkpt lat="38.23445284" lon="-1.09785917">
<ele>606</ele>
<time>2013-06-29T19:01:09Z</time>
</trkpt>
<trkpt lat="38.23449832" lon="-1.09765355">
<ele>605</ele>
<time>2013-06-29T19:01:13Z</time>
</trkpt>
<trkpt lat="38.23456481" lon="-1.09747188">
<ele>604</ele>
<time>2013-06-29T19:01:17Z</time>
</trkpt>
<trkpt lat="38.23465994" lon="-1.09725644">
<ele>600</ele>
<time>2013-06-29T19:01:21Z</time>
</trkpt>
<trkpt lat="38.2347664" lon="-1.09702692">
<ele>588</ele>
<time>2013-06-29T19:01:25Z</time>
</trkpt>
<trkpt lat="38.23486032" lon="-1.09672257">
<ele>586</ele>
<time>2013-06-29T19:01:29Z</time>
</trkpt>
<trkpt lat="38.23496122" lon="-1.09644169">
<ele>583</ele>
<time>2013-06-29T19:01:33Z</time>
</trkpt>
<trkpt lat="38.23510414" lon="-1.09619771">
<ele>580</ele>
<time>2013-06-29T19:01:37Z</time>
</trkpt>
<trkpt lat="38.23524483" lon="-1.09593038">
<ele>574</ele>
<time>2013-06-29T19:01:41Z</time>
</trkpt>
<trkpt lat="38.23542685" lon="-1.095635">
<ele>573</ele>
<time>2013-06-29T19:01:45Z</time>
</trkpt>
<trkpt lat="38.23553329" lon="-1.09534862">
<ele>571</ele>
<time>2013-06-29T19:01:49Z</time>
</trkpt>
<trkpt lat="38.23567713" lon="-1.09507514">
<ele>571</ele>
<time>2013-06-29T19:01:53Z</time>
</trkpt>
<trkpt lat="38.23583139" lon="-1.09481757">
<ele>564</ele>
<time>2013-06-29T19:01:57Z</time>
</trkpt>
<trkpt lat="38.23600747" lon="-1.09456781">
<ele>562</ele>
<time>2013-06-29T19:02:01Z</time>
</trkpt>
<trkpt lat="38.23615882" lon="-1.09436168">
<ele>559</ele>
<time>2013-06-29T19:02:05Z</time>
</trkpt>
<trkpt lat="38.23635062" lon="-1.09410961">
<ele>555</ele>
<time>2013-06-29T19:02:09Z</time>
</trkpt>
<trkpt lat="38.23654853" lon="-1.09391034">
<ele>551</ele>
<time>2013-06-29T19:02:13Z</time>
</trkpt>
<trkpt lat="38.23674052" lon="-1.09364128">
<ele>554</ele>
<time>2013-06-29T19:02:17Z</time>
</trkpt>
<trkpt lat="38.23688582" lon="-1.09343761">
<ele>555</ele>
<time>2013-06-29T19:02:21Z</time>
</trkpt>
<trkpt lat="38.23705758" lon="-1.09322448">
<ele>559</ele>
<time>2013-06-29T19:02:25Z</time>
</trkpt>
<trkpt lat="38.23719442" lon="-1.09299526">
<ele>561</ele>
<time>2013-06-29T19:02:29Z</time>
</trkpt>
<trkpt lat="38.2372645" lon="-1.09281624">
<ele>560</ele>
<time>2013-06-29T19:02:33Z</time>
</trkpt>
<trkpt lat="38.23741155" lon="-1.09260282">
<ele>553</ele>
<time>2013-06-29T19:02:37Z</time>
</trkpt>
<trkpt lat="38.23754749" lon="-1.09237815">
<ele>551</ele>
<time>2013-06-29T19:02:41Z</time>
</trkpt>
<trkpt lat="38.23771073" lon="-1.09214944">
<ele>544</ele>
<time>2013-06-29T19:02:45Z</time>
</trkpt>
<trkpt lat="38.23789758" lon="-1.09193859">
<ele>535</ele>
<time>2013-06-29T19:02:49Z</time>
</trkpt>
<trkpt lat="38.2381293" lon="-1.091677">
<ele>527</ele>
<time>2013-06-29T19:02:53Z</time>
</trkpt>
<trkpt lat="38.23838114" lon="-1.09148393">
<ele>522</ele>
<time>2013-06-29T19:02:57Z</time>
</trkpt>
<trkpt lat="38.23859336" lon="-1.09127098">
<ele>513</ele>
<time>2013-06-29T19:03:01Z</time>
</trkpt>
<trkpt lat="38.23889252" lon="-1.09102267">
<ele>509</ele>
<time>2013-06-29T19:03:05Z</time>
</trkpt>
<trkpt lat="38.23916439" lon="-1.09084651">
<ele>509</ele>
<time>2013-06-29T19:03:09Z</time>
</trkpt>
<trkpt lat="38.23937659" lon="-1.09066937">
<ele>515</ele>
<time>2013-06-29T19:03:13Z</time>
</trkpt>
<trkpt lat="38.23947345" lon="-1.09044937">
<ele>521</ele>
<time>2013-06-29T19:03:17Z</time>
</trkpt>
<trkpt lat="38.2395209" lon="-1.09019658">
<ele>526</ele>
<time>2013-06-29T19:03:21Z</time>
</trkpt>
<trkpt lat="38.23955983" lon="-1.0899898">
<ele>530</ele>
<time>2013-06-29T19:03:25Z</time>
</trkpt>
<trkpt lat="38.23968786" lon="-1.08977054">
<ele>534</ele>
<time>2013-06-29T19:03:29Z</time>
</trkpt>
<trkpt lat="38.2397613" lon="-1.08954368">
<ele>534</ele>
<time>2013-06-29T19:03:33Z</time>
</trkpt>
<trkpt lat="38.23993002" lon="-1.08936066">
<ele>534</ele>
<time>2013-06-29T19:03:37Z</time>
</trkpt>
<trkpt lat="38.24012203" lon="-1.08915602">
<ele>529</ele>
<time>2013-06-29T19:03:41Z</time>
</trkpt>
<trkpt lat="38.24039433" lon="-1.08907301">
<ele>525</ele>
<time>2013-06-29T19:03:45Z</time>
</trkpt>
<trkpt lat="38.24072156" lon="-1.08907907">
<ele>521</ele>
<time>2013-06-29T19:03:49Z</time>
</trkpt>
<trkpt lat="38.24109131" lon="-1.08910487">
<ele>515</ele>
<time>2013-06-29T19:03:53Z</time>
</trkpt>
<trkpt lat="38.24140681" lon="-1.08911662">
<ele>511</ele>
<time>2013-06-29T19:03:57Z</time>
</trkpt>
<trkpt lat="38.24171719" lon="-1.08902694">
<ele>507</ele>
<time>2013-06-29T19:04:01Z</time>
</trkpt>
<trkpt lat="38.24203349" lon="-1.08893643">
<ele>500</ele>
<time>2013-06-29T19:04:05Z</time>
</trkpt>
<trkpt lat="38.24236088" lon="-1.08874047">
<ele>500</ele>
<time>2013-06-29T19:04:09Z</time>
</trkpt>
<trkpt lat="38.24252734" lon="-1.08854102">
<ele>502</ele>
<time>2013-06-29T19:04:13Z</time>
</trkpt>
<trkpt lat="38.24261514" lon="-1.08830403">
<ele>504</ele>
<time>2013-06-29T19:04:17Z</time>
</trkpt>
<trkpt lat="38.24266332" lon="-1.08805616">
<ele>500</ele>
<time>2013-06-29T19:04:21Z</time>
</trkpt>
<trkpt lat="38.24259145" lon="-1.08778585">
<ele>498</ele>
<time>2013-06-29T19:04:25Z</time>
</trkpt>
<trkpt lat="38.24233564" lon="-1.08794495">
<ele>498</ele>
<time>2013-06-29T19:04:29Z</time>
</trkpt>
<trkpt lat="38.24218961" lon="-1.08838057">
<ele>503</ele>
<time>2013-06-29T19:04:33Z</time>
</trkpt>
<trkpt lat="38.24206342" lon="-1.0887691">
<ele>502</ele>
<time>2013-06-29T19:04:37Z</time>
</trkpt>
<trkpt lat="38.24185272" lon="-1.0891935">
<ele>506</ele>
<time>2013-06-29T19:04:41Z</time>
</trkpt>
<trkpt lat="38.24162831" lon="-1.0895195">
<ele>509</ele>
<time>2013-06-29T19:04:45Z</time>
</trkpt>
<trkpt lat="38.24134358" lon="-1.08978403">
<ele>512</ele>
<time>2013-06-29T19:04:49Z</time>
</trkpt>
<trkpt lat="38.24110259" lon="-1.09004073">
<ele>516</ele>
<time>2013-06-29T19:04:53Z</time>
</trkpt>
<trkpt lat="38.24077454" lon="-1.09027917">
<ele>516</ele>
<time>2013-06-29T19:04:57Z</time>
</trkpt>
<trkpt lat="38.24049437" lon="-1.09067736">
<ele>514</ele>
<time>2013-06-29T19:05:01Z</time>
</trkpt>
<trkpt lat="38.24023049" lon="-1.09101391">
<ele>513</ele>
<time>2013-06-29T19:05:05Z</time>
</trkpt>
<trkpt lat="38.23995313" lon="-1.09106964">
<ele>514</ele>
<time>2013-06-29T19:05:09Z</time>
</trkpt>
<trkpt lat="38.23989525" lon="-1.09091857">
<ele>514</ele>
<time>2013-06-29T19:05:13Z</time>
</trkpt>
<trkpt lat="38.24011274" lon="-1.09070237">
<ele>514</ele>
<time>2013-06-29T19:05:17Z</time>
</trkpt>
<trkpt lat="38.24033922" lon="-1.09056032">
<ele>515</ele>
<time>2013-06-29T19:05:21Z</time>
</trkpt>
<trkpt lat="38.24054645" lon="-1.0903851">
<ele>517</ele>
<time>2013-06-29T19:05:25Z</time>
</trkpt>
<trkpt lat="38.24065814" lon="-1.09017973">
<ele>521</ele>
<time>2013-06-29T19:05:29Z</time>
</trkpt>
<trkpt lat="38.24078835" lon="-1.08999766">
<ele>526</ele>
<time>2013-06-29T19:05:33Z</time>
</trkpt>
<trkpt lat="38.24095065" lon="-1.08980389">
<ele>521</ele>
<time>2013-06-29T19:05:37Z</time>
</trkpt>
<trkpt lat="38.2411594" lon="-1.08963155">
<ele>527</ele>
<time>2013-06-29T19:05:41Z</time>
</trkpt>
<trkpt lat="38.24135338" lon="-1.08946687">
<ele>530</ele>
<time>2013-06-29T19:05:45Z</time>
</trkpt>
<trkpt lat="38.24156659" lon="-1.08933117">
<ele>529</ele>
<time>2013-06-29T19:05:49Z</time>
</trkpt>
<trkpt lat="38.24181024" lon="-1.08913741">
<ele>528</ele>
<time>2013-06-29T19:05:53Z</time>
</trkpt>
<trkpt lat="38.24199115" lon="-1.08890115">
<ele>529</ele>
<time>2013-06-29T19:05:57Z</time>
</trkpt>
<trkpt lat="38.24217066" lon="-1.08863319">
<ele>532</ele>
<time>2013-06-29T19:06:01Z</time>
</trkpt>
<trkpt lat="38.24237883" lon="-1.08842877">
<ele>533</ele>
<time>2013-06-29T19:06:05Z</time>
</trkpt>
<trkpt lat="38.24256744" lon="-1.08820433">
<ele>534</ele>
<time>2013-06-29T19:06:09Z</time>
</trkpt>
<trkpt lat="38.2424857" lon="-1.08802714">
<ele>528</ele>
<time>2013-06-29T19:06:13Z</time>
</trkpt>
<trkpt lat="38.24220165" lon="-1.08832579">
<ele>525</ele>
<time>2013-06-29T19:06:17Z</time>
</trkpt>
<trkpt lat="38.24202625" lon="-1.0887869">
<ele>522</ele>
<time>2013-06-29T19:06:21Z</time>
</trkpt>
<trkpt lat="38.24186782" lon="-1.08928723">
<ele>522</ele>
<time>2013-06-29T19:06:25Z</time>
</trkpt>
<trkpt lat="38.24169475" lon="-1.08978794">
<ele>522</ele>
<time>2013-06-29T19:06:29Z</time>
</trkpt>
<trkpt lat="38.24141171" lon="-1.09006153">
<ele>527</ele>
<time>2013-06-29T19:06:33Z</time>
</trkpt>
<trkpt lat="38.24109725" lon="-1.09021479">
<ele>528</ele>
<time>2013-06-29T19:06:37Z</time>
</trkpt>
<trkpt lat="38.24079157" lon="-1.09051975">
<ele>531</ele>
<time>2013-06-29T19:06:41Z</time>
</trkpt>
<trkpt lat="38.24054478" lon="-1.09089294">
<ele>536</ele>
<time>2013-06-29T19:06:45Z</time>
</trkpt>
<trkpt lat="38.24028187" lon="-1.09121972">
<ele>541</ele>
<time>2013-06-29T19:06:49Z</time>
</trkpt>
<trkpt lat="38.24003239" lon="-1.09148544">
<ele>546</ele>
<time>2013-06-29T19:06:53Z</time>
</trkpt>
<trkpt lat="38.23980466" lon="-1.09168308">
<ele>548</ele>
<time>2013-06-29T19:06:57Z</time>
</trkpt>
<trkpt lat="38.23973492" lon="-1.09152999">
<ele>547</ele>
<time>2013-06-29T19:07:01Z</time>
</trkpt>
<trkpt lat="38.23979536" lon="-1.09129469">
<ele>546</ele>
<time>2013-06-29T19:07:05Z</time>
</trkpt>
<trkpt lat="38.24004491" lon="-1.09108626">
<ele>547</ele>
<time>2013-06-29T19:07:09Z</time>
</trkpt>
<trkpt lat="38.24022042" lon="-1.09089845">
<ele>549</ele>
<time>2013-06-29T19:07:13Z</time>
</trkpt>
<trkpt lat="38.2403284" lon="-1.09067081">
<ele>556</ele>
<time>2013-06-29T19:07:17Z</time>
</trkpt>
<trkpt lat="38.24045019" lon="-1.09041818">
<ele>555</ele>
<time>2013-06-29T19:07:21Z</time>
</trkpt>
<trkpt lat="38.24057063" lon="-1.09018147">
<ele>555</ele>
<time>2013-06-29T19:07:25Z</time>
</trkpt>
<trkpt lat="38.24073149" lon="-1.08999917">
<ele>557</ele>
<time>2013-06-29T19:07:29Z</time>
</trkpt>
<trkpt lat="38.24094152" lon="-1.08981713">
<ele>555</ele>
<time>2013-06-29T19:07:33Z</time>
</trkpt>
<trkpt lat="38.24126217" lon="-1.08983875">
<ele>555</ele>
<time>2013-06-29T19:07:37Z</time>
</trkpt>
<trkpt lat="38.24151721" lon="-1.0897336">
<ele>549</ele>
<time>2013-06-29T19:07:41Z</time>
</trkpt>
<trkpt lat="38.2417082" lon="-1.08949212">
<ele>549</ele>
<time>2013-06-29T19:07:45Z</time>
</trkpt>
<trkpt lat="38.24183355" lon="-1.08922637">
<ele>557</ele>
<time>2013-06-29T19:07:49Z</time>
</trkpt>
<trkpt lat="38.24186074" lon="-1.08898764">
<ele>557</ele>
<time>2013-06-29T19:07:53Z</time>
</trkpt>
<trkpt lat="38.24193925" lon="-1.08872062">
<ele>557</ele>
<time>2013-06-29T19:07:57Z</time>
</trkpt>
<trkpt lat="38.2422231" lon="-1.08852">
<ele>561</ele>
<time>2013-06-29T19:08:01Z</time>
</trkpt>
<trkpt lat="38.24252663" lon="-1.08833179">
<ele>556</ele>
<time>2013-06-29T19:08:05Z</time>
</trkpt>
<trkpt lat="38.24250496" lon="-1.08807753">
<ele>557</ele>
<time>2013-06-29T19:08:09Z</time>
</trkpt>
<trkpt lat="38.24227641" lon="-1.08800175">
<ele>562</ele>
<time>2013-06-29T19:08:13Z</time>
</trkpt>
<trkpt lat="38.24201195" lon="-1.08806008">
<ele>567</ele>
<time>2013-06-29T19:08:17Z</time>
</trkpt>
<trkpt lat="38.24177016" lon="-1.08808606">
<ele>571</ele>
<time>2013-06-29T19:08:21Z</time>
</trkpt>
<trkpt lat="38.24151535" lon="-1.08805965">
<ele>575</ele>
<time>2013-06-29T19:08:25Z</time>
</trkpt>
<trkpt lat="38.24134863" lon="-1.08793778">
<ele>581</ele>
<time>2013-06-29T19:08:29Z</time>
</trkpt>
<trkpt lat="38.24124818" lon="-1.08772024">
<ele>583</ele>
<time>2013-06-29T19:08:33Z</time>
</trkpt>
<trkpt lat="38.24134969" lon="-1.08758391">
<ele>584</ele>
<time>2013-06-29T19:08:37Z</time>
</trkpt>
<trkpt lat="38.24171654" lon="-1.08779579">
<ele>586</ele>
<time>2013-06-29T19:08:41Z</time>
</trkpt>
<trkpt lat="38.24162238" lon="-1.08821576">
<ele>587</ele>
<time>2013-06-29T19:08:45Z</time>
</trkpt>
<trkpt lat="38.24134356" lon="-1.08851188">
<ele>594</ele>
<time>2013-06-29T19:08:49Z</time>
</trkpt>
<trkpt lat="38.24113389" lon="-1.08838577">
<ele>594</ele>
<time>2013-06-29T19:08:53Z</time>
</trkpt>
<trkpt lat="38.24135209" lon="-1.08813731">
<ele>596</ele>
<time>2013-06-29T19:08:57Z</time>
</trkpt>
<trkpt lat="38.24172123" lon="-1.08838427">
<ele>595</ele>
<time>2013-06-29T19:09:01Z</time>
</trkpt>
<trkpt lat="38.24170138" lon="-1.08890956">
<ele>598</ele>
<time>2013-06-29T19:09:05Z</time>
</trkpt>
<trkpt lat="38.24145243" lon="-1.08914621">
<ele>601</ele>
<time>2013-06-29T19:09:09Z</time>
</trkpt>
<trkpt lat="38.24119697" lon="-1.08929836">
<ele>604</ele>
<time>2013-06-29T19:09:13Z</time>
</trkpt>
<trkpt lat="38.24092463" lon="-1.08936484">
<ele>609</ele>
<time>2013-06-29T19:09:17Z</time>
</trkpt>
<trkpt lat="38.24067013" lon="-1.08944068">
<ele>613</ele>
<time>2013-06-29T19:09:21Z</time>
</trkpt>
<trkpt lat="38.24042253" lon="-1.08957839">
<ele>616</ele>
<time>2013-06-29T19:09:25Z</time>
</trkpt>
<trkpt lat="38.24020384" lon="-1.08980096">
<ele>620</ele>
<time>2013-06-29T19:09:29Z</time>
</trkpt>
<trkpt lat="38.23996586" lon="-1.0899775">
<ele>623</ele>
<time>2013-06-29T19:09:33Z</time>
</trkpt>
<trkpt lat="38.23975165" lon="-1.09024247">
<ele>629</ele>
<time>2013-06-29T19:09:37Z</time>
</trkpt>
<trkpt lat="38.23955971" lon="-1.09057881">
<ele>634</ele>
<time>2013-06-29T19:09:41Z</time>
</trkpt>
<trkpt lat="38.23938157" lon="-1.09091679">
<ele>636</ele>
<time>2013-06-29T19:09:45Z</time>
</trkpt>
<trkpt lat="38.23916225" lon="-1.09091275">
<ele>640</ele>
<time>2013-06-29T19:09:49Z</time>
</trkpt>
<trkpt lat="38.23908592" lon="-1.0907056">
<ele>642</ele>
<time>2013-06-29T19:09:53Z</time>
</trkpt>
<trkpt lat="38.23913154" lon="-1.0905303">
<ele>637</ele>
<time>2013-06-29T19:09:57Z</time>
</trkpt>
<trkpt lat="38.23933188" lon="-1.0903195">
<ele>630</ele>
<time>2013-06-29T19:10:01Z</time>
</trkpt>
<trkpt lat="38.23917357" lon="-1.09018781">
<ele>630</ele>
<time>2013-06-29T19:10:05Z</time>
</trkpt>
<trkpt lat="38.23895844" lon="-1.09025297">
<ele>626</ele>
<time>2013-06-29T19:10:09Z</time>
</trkpt>
<trkpt lat="38.23868318" lon="-1.09048545">
<ele>625</ele>
<time>2013-06-29T19:10:13Z</time>
</trkpt>
<trkpt lat="38.23839514" lon="-1.09070454">
<ele>628</ele>
<time>2013-06-29T19:10:17Z</time>
</trkpt>
<trkpt lat="38.23812651" lon="-1.09081511">
<ele>634</ele>
<time>2013-06-29T19:10:21Z</time>
</trkpt>
<trkpt lat="38.23784817" lon="-1.09096372">
<ele>639</ele>
<time>2013-06-29T19:10:25Z</time>
</trkpt>
<trkpt lat="38.2375708" lon="-1.09123195">
<ele>636</ele>
<time>2013-06-29T19:10:29Z</time>
</trkpt>
<trkpt lat="38.23732982" lon="-1.0916095">
<ele>638</ele>
<time>2013-06-29T19:10:33Z</time>
</trkpt>
<trkpt lat="38.23712701" lon="-1.09197634">
<ele>633</ele>
<time>2013-06-29T19:10:37Z</time>
</trkpt>
<trkpt lat="38.23690494" lon="-1.09228228">
<ele>631</ele>
<time>2013-06-29T19:10:41Z</time>
</trkpt>
<trkpt lat="38.23669247" lon="-1.09249467">
<ele>624</ele>
<time>2013-06-29T19:10:45Z</time>
</trkpt>
<trkpt lat="38.23655848" lon="-1.093044">
<ele>618</ele>
<time>2013-06-29T19:10:49Z</time>
</trkpt>
<trkpt lat="38.23653049" lon="-1.09361296">
<ele>611</ele>
<time>2013-06-29T19:10:53Z</time>
</trkpt>
<trkpt lat="38.23654131" lon="-1.0942073">
<ele>604</ele>
<time>2013-06-29T19:10:57Z</time>
</trkpt>
<trkpt lat="38.23659422" lon="-1.09483051">
<ele>602</ele>
<time>2013-06-29T19:11:01Z</time>
</trkpt>
<trkpt lat="38.23663815" lon="-1.0953919">
<ele>598</ele>
<time>2013-06-29T19:11:05Z</time>
</trkpt>
<trkpt lat="38.23666493" lon="-1.09599365">
<ele>596</ele>
<time>2013-06-29T19:11:09Z</time>
</trkpt>
<trkpt lat="38.23673547" lon="-1.09652607">
<ele>597</ele>
<time>2013-06-29T19:11:13Z</time>
</trkpt>
<trkpt lat="38.23684112" lon="-1.09704924">
<ele>594</ele>
<time>2013-06-29T19:11:17Z</time>
</trkpt>
<trkpt lat="38.23682559" lon="-1.09759939">
<ele>592</ele>
<time>2013-06-29T19:11:21Z</time>
</trkpt>
<trkpt lat="38.23683214" lon="-1.0982043">
<ele>587</ele>
<time>2013-06-29T19:11:25Z</time>
</trkpt>
<trkpt lat="38.23687321" lon="-1.0988072">
<ele>583</ele>
<time>2013-06-29T19:11:29Z</time>
</trkpt>
<trkpt lat="38.23690679" lon="-1.0994447">
<ele>580</ele>
<time>2013-06-29T19:11:33Z</time>
</trkpt>
<trkpt lat="38.2369429" lon="-1.10008072">
<ele>575</ele>
<time>2013-06-29T19:11:37Z</time>
</trkpt>
<trkpt lat="38.23700279" lon="-1.10069267">
<ele>572</ele>
<time>2013-06-29T19:11:41Z</time>
</trkpt>
<trkpt lat="38.23704279" lon="-1.10137644">
<ele>571</ele>
<time>2013-06-29T19:11:45Z</time>
</trkpt>
<trkpt lat="38.23704845" lon="-1.10186692">
<ele>569</ele>
<time>2013-06-29T19:11:49Z</time>
</trkpt>
<trkpt lat="38.23704731" lon="-1.10242599">
<ele>565</ele>
<time>2013-06-29T19:11:53Z</time>
</trkpt>
<trkpt lat="38.23702173" lon="-1.10295823">
<ele>562</ele>
<time>2013-06-29T19:11:57Z</time>
</trkpt>
<trkpt lat="38.23698183" lon="-1.10349576">
<ele>561</ele>
<time>2013-06-29T19:12:01Z</time>
</trkpt>
<trkpt lat="38.23698876" lon="-1.10407849">
<ele>557</ele>
<time>2013-06-29T19:12:05Z</time>
</trkpt>
<trkpt lat="38.2369433" lon="-1.10462399">
<ele>556</ele>
<time>2013-06-29T19:12:09Z</time>
</trkpt>
<trkpt lat="38.23686233" lon="-1.10516556">
<ele>553</ele>
<time>2013-06-29T19:12:13Z</time>
</trkpt>
<trkpt lat="38.23687289" lon="-1.10574616">
<ele>555</ele>
<time>2013-06-29T19:12:17Z</time>
</trkpt>
<trkpt lat="38.23682297" lon="-1.10627599">
<ele>552</ele>
<time>2013-06-29T19:12:21Z</time>
</trkpt>
<trkpt lat="38.2367523" lon="-1.10680815">
<ele>549</ele>
<time>2013-06-29T19:12:25Z</time>
</trkpt>
<trkpt lat="38.23660595" lon="-1.10733921">
<ele>548</ele>
<time>2013-06-29T19:12:29Z</time>
</trkpt>
<trkpt lat="38.23646419" lon="-1.10779204">
<ele>553</ele>
<time>2013-06-29T19:12:33Z</time>
</trkpt>
<trkpt lat="38.23628692" lon="-1.10824258">
<ele>555</ele>
<time>2013-06-29T19:12:37Z</time>
</trkpt>
<trkpt lat="38.23613015" lon="-1.1086956">
<ele>561</ele>
<time>2013-06-29T19:12:41Z</time>
</trkpt>
<trkpt lat="38.23596687" lon="-1.10913814">
<ele>564</ele>
<time>2013-06-29T19:12:45Z</time>
</trkpt>
<trkpt lat="38.23579522" lon="-1.10954852">
<ele>572</ele>
<time>2013-06-29T19:12:49Z</time>
</trkpt>
<trkpt lat="38.23561672" lon="-1.10980363">
<ele>578</ele>
<time>2013-06-29T19:12:53Z</time>
</trkpt>
<trkpt lat="38.23549412" lon="-1.10963874">
<ele>580</ele>
<time>2013-06-29T19:12:57Z</time>
</trkpt>
<trkpt lat="38.23539096" lon="-1.10949847">
<ele>583</ele>
<time>2013-06-29T19:13:01Z</time>
</trkpt>
<trkpt lat="38.23541363" lon="-1.10927879">
<ele>588</ele>
<time>2013-06-29T19:13:05Z</time>
</trkpt>
<trkpt lat="38.23544243" lon="-1.10906427">
<ele>589</ele>
<time>2013-06-29T19:13:09Z</time>
</trkpt>
<trkpt lat="38.23546266" lon="-1.1088044">
<ele>595</ele>
<time>2013-06-29T19:13:13Z</time>
</trkpt>
<trkpt lat="38.23541143" lon="-1.10855042">
<ele>594</ele>
<time>2013-06-29T19:13:17Z</time>
</trkpt>
<trkpt lat="38.23543343" lon="-1.10830511">
<ele>600</ele>
<time>2013-06-29T19:13:21Z</time>
</trkpt>
<trkpt lat="38.23557346" lon="-1.10804363">
<ele>601</ele>
<time>2013-06-29T19:13:25Z</time>
</trkpt>
<trkpt lat="38.23573648" lon="-1.10779535">
<ele>604</ele>
<time>2013-06-29T19:13:29Z</time>
</trkpt>
<trkpt lat="38.23590161" lon="-1.10755317">
<ele>600</ele>
<time>2013-06-29T19:13:33Z</time>
</trkpt>
<trkpt lat="38.23602768" lon="-1.10728328">
<ele>597</ele>
<time>2013-06-29T19:13:37Z</time>
</trkpt>
<trkpt lat="38.23630396" lon="-1.10705566">
<ele>595</ele>
<time>2013-06-29T19:13:41Z</time>
</trkpt>
<trkpt lat="38.23637501" lon="-1.10680071">
<ele>594</ele>
<time>2013-06-29T19:13:45Z</time>
</trkpt>
<trkpt lat="38.23616677" lon="-1.1068877">
<ele>592</ele>
<time>2013-06-29T19:13:49Z</time>
</trkpt>
<trkpt lat="38.23605723" lon="-1.10735221">
<ele>589</ele>
<time>2013-06-29T19:13:53Z</time>
</trkpt>
<trkpt lat="38.235949" lon="-1.10782146">
<ele>595</ele>
<time>2013-06-29T19:13:57Z</time>
</trkpt>
<trkpt lat="38.23582421" lon="-1.10825766">
<ele>593</ele>
<time>2013-06-29T19:14:01Z</time>
</trkpt>
<trkpt lat="38.23574007" lon="-1.1087547">
<ele>598</ele>
<time>2013-06-29T19:14:05Z</time>
</trkpt>
<trkpt lat="38.23563727" lon="-1.1091607">
<ele>606</ele>
<time>2013-06-29T19:14:09Z</time>
</trkpt>
<trkpt lat="38.23548364" lon="-1.10916698">
<ele>609</ele>
<time>2013-06-29T19:14:13Z</time>
</trkpt>
<trkpt lat="38.23555873" lon="-1.10895026">
<ele>610</ele>
<time>2013-06-29T19:14:17Z</time>
</trkpt>
<trkpt lat="38.23575285" lon="-1.10869626">
<ele>608</ele>
<time>2013-06-29T19:14:21Z</time>
</trkpt>
<trkpt lat="38.23580694" lon="-1.10848059">
<ele>604</ele>
<time>2013-06-29T19:14:25Z</time>
</trkpt>
<trkpt lat="38.23600187" lon="-1.10827511">
<ele>603</ele>
<time>2013-06-29T19:14:29Z</time>
</trkpt>
<trkpt lat="38.23615372" lon="-1.10804074">
<ele>600</ele>
<time>2013-06-29T19:14:33Z</time>
</trkpt>
<trkpt lat="38.23631456" lon="-1.10777015">
<ele>603</ele>
<time>2013-06-29T19:14:37Z</time>
</trkpt>
<trkpt lat="38.23643837" lon="-1.10755136">
<ele>600</ele>
<time>2013-06-29T19:14:41Z</time>
</trkpt>
<trkpt lat="38.23665923" lon="-1.10725777">
<ele>599</ele>
<time>2013-06-29T19:14:45Z</time>
</trkpt>
<trkpt lat="38.23673125" lon="-1.10696387">
<ele>599</ele>
<time>2013-06-29T19:14:49Z</time>
</trkpt>
<trkpt lat="38.23668856" lon="-1.10678108">
<ele>607</ele>
<time>2013-06-29T19:14:53Z</time>
</trkpt>
<trkpt lat="38.23656314" lon="-1.10672521">
<ele>602</ele>
<time>2013-06-29T19:14:57Z</time>
</trkpt>
<trkpt lat="38.23631331" lon="-1.10697037">
<ele>605</ele>
<time>2013-06-29T19:15:01Z</time>
</trkpt>
<trkpt lat="38.23611771" lon="-1.10738863">
<ele>601</ele>
<time>2013-06-29T19:15:05Z</time>
</trkpt>
<trkpt lat="38.23592041" lon="-1.10782357">
<ele>602</ele>
<time>2013-06-29T19:15:09Z</time>
</trkpt>
<trkpt lat="38.23582926" lon="-1.10832904">
<ele>604</ele>
<time>2013-06-29T19:15:13Z</time>
</trkpt>
<trkpt lat="38.23577856" lon="-1.10881468">
<ele>607</ele>
<time>2013-06-29T19:15:17Z</time>
</trkpt>
<trkpt lat="38.23571621" lon="-1.10933907">
<ele>606</ele>
<time>2013-06-29T19:15:21Z</time>
</trkpt>
<trkpt lat="38.23560272" lon="-1.10978272">
<ele>608</ele>
<time>2013-06-29T19:15:25Z</time>
</trkpt>
<trkpt lat="38.23545502" lon="-1.11018196">
<ele>611</ele>
<time>2013-06-29T19:15:29Z</time>
</trkpt>
<trkpt lat="38.23528253" lon="-1.11009755">
<ele>608</ele>
<time>2013-06-29T19:15:33Z</time>
</trkpt>
<trkpt lat="38.23532534" lon="-1.10982289">
<ele>607</ele>
<time>2013-06-29T19:15:37Z</time>
</trkpt>
<trkpt lat="38.23544637" lon="-1.10946866">
<ele>609</ele>
<time>2013-06-29T19:15:41Z</time>
</trkpt>
<trkpt lat="38.23557173" lon="-1.10919829">
<ele>608</ele>
<time>2013-06-29T19:15:45Z</time>
</trkpt>
<trkpt lat="38.23571058" lon="-1.10888585">
<ele>609</ele>
<time>2013-06-29T19:15:49Z</time>
</trkpt>
<trkpt lat="38.23586244" lon="-1.10859917">
<ele>608</ele>
<time>2013-06-29T19:15:53Z</time>
</trkpt>
<trkpt lat="38.23600679" lon="-1.10831416">
<ele>608</ele>
<time>2013-06-29T19:15:57Z</time>
</trkpt>
<trkpt lat="38.2361886" lon="-1.10796929">
<ele>612</ele>
<time>2013-06-29T19:16:01Z</time>
</trkpt>
<trkpt lat="38.23630705" lon="-1.10764459">
<ele>615</ele>
<time>2013-06-29T19:16:05Z</time>
</trkpt>
<trkpt lat="38.23630098" lon="-1.1074336">
<ele>615</ele>
<time>2013-06-29T19:16:09Z</time>
</trkpt>
<trkpt lat="38.23634604" lon="-1.10714779">
<ele>615</ele>
<time>2013-06-29T19:16:13Z</time>
</trkpt>
<trkpt lat="38.23631589" lon="-1.10689883">
<ele>619</ele>
<time>2013-06-29T19:16:17Z</time>
</trkpt>
<trkpt lat="38.2362957" lon="-1.10665657">
<ele>616</ele>
<time>2013-06-29T19:16:21Z</time>
</trkpt>
<trkpt lat="38.23606632" lon="-1.10685516">
<ele>607</ele>
<time>2013-06-29T19:16:25Z</time>
</trkpt>
<trkpt lat="38.23593337" lon="-1.10737767">
<ele>606</ele>
<time>2013-06-29T19:16:29Z</time>
</trkpt>
<trkpt lat="38.23600144" lon="-1.10787866">
<ele>606</ele>
<time>2013-06-29T19:16:33Z</time>
</trkpt>
<trkpt lat="38.2360064" lon="-1.10840226">
<ele>602</ele>
<time>2013-06-29T19:16:37Z</time>
</trkpt>
<trkpt lat="38.23593809" lon="-1.10887871">
<ele>602</ele>
<time>2013-06-29T19:16:41Z</time>
</trkpt>
<trkpt lat="38.2358513" lon="-1.10935491">
<ele>605</ele>
<time>2013-06-29T19:16:45Z</time>
</trkpt>
<trkpt lat="38.23573044" lon="-1.10974654">
<ele>610</ele>
<time>2013-06-29T19:16:49Z</time>
</trkpt>
<trkpt lat="38.23550752" lon="-1.10984213">
<ele>612</ele>
<time>2013-06-29T19:16:53Z</time>
</trkpt>
<trkpt lat="38.2354735" lon="-1.10965506">
<ele>612</ele>
<time>2013-06-29T19:16:57Z</time>
</trkpt>
<trkpt lat="38.23548944" lon="-1.10933883">
<ele>614</ele>
<time>2013-06-29T19:17:01Z</time>
</trkpt>
<trkpt lat="38.23540067" lon="-1.10916284">
<ele>619</ele>
<time>2013-06-29T19:17:05Z</time>
</trkpt>
<trkpt lat="38.23534983" lon="-1.10893269">
<ele>620</ele>
<time>2013-06-29T19:17:09Z</time>
</trkpt>
<trkpt lat="38.23523372" lon="-1.10877095">
<ele>624</ele>
<time>2013-06-29T19:17:13Z</time>
</trkpt>
<trkpt lat="38.23503244" lon="-1.10885938">
<ele>627</ele>
<time>2013-06-29T19:17:17Z</time>
</trkpt>
<trkpt lat="38.23502987" lon="-1.10938771">
<ele>633</ele>
<time>2013-06-29T19:17:21Z</time>
</trkpt>
<trkpt lat="38.23528928" lon="-1.10977246">
<ele>633</ele>
<time>2013-06-29T19:17:25Z</time>
</trkpt>
<trkpt lat="38.23557282" lon="-1.10963436">
<ele>636</ele>
<time>2013-06-29T19:17:29Z</time>
</trkpt>
<trkpt lat="38.23545014" lon="-1.10946795">
<ele>644</ele>
<time>2013-06-29T19:17:33Z</time>
</trkpt>
<trkpt lat="38.23526566" lon="-1.10952167">
<ele>647</ele>
<time>2013-06-29T19:17:37Z</time>
</trkpt>
<trkpt lat="38.23521309" lon="-1.10997555">
<ele>650</ele>
<time>2013-06-29T19:17:41Z</time>
</trkpt>
<trkpt lat="38.23554547" lon="-1.11031851">
<ele>658</ele>
<time>2013-06-29T19:17:45Z</time>
</trkpt>
<trkpt lat="38.2358384" lon="-1.1101655">
<ele>661</ele>
<time>2013-06-29T19:17:49Z</time>
</trkpt>
<trkpt lat="38.23586727" lon="-1.10992573">
<ele>666</ele>
<time>2013-06-29T19:17:53Z</time>
</trkpt>
<trkpt lat="38.23569254" lon="-1.10985573">
<ele>666</ele>
<time>2013-06-29T19:17:57Z</time>
</trkpt>
<trkpt lat="38.23548865" lon="-1.11013705">
<ele>672</ele>
<time>2013-06-29T19:18:01Z</time>
</trkpt>
<trkpt lat="38.23550191" lon="-1.11066931">
<ele>675</ele>
<time>2013-06-29T19:18:05Z</time>
</trkpt>
<trkpt lat="38.23586099" lon="-1.11100145">
<ele>677</ele>
<time>2013-06-29T19:18:09Z</time>
</trkpt>
<trkpt lat="38.2360885" lon="-1.11080813">
<ele>683</ele>
<time>2013-06-29T19:18:13Z</time>
</trkpt>
<trkpt lat="38.23590575" lon="-1.11073547">
<ele>690</ele>
<time>2013-06-29T19:18:17Z</time>
</trkpt>
<trkpt lat="38.2357106" lon="-1.11108164">
<ele>694</ele>
<time>2013-06-29T19:18:21Z</time>
</trkpt>
<trkpt lat="38.23593406" lon="-1.11160835">
<ele>697</ele>
<time>2013-06-29T19:18:25Z</time>
</trkpt>
<trkpt lat="38.23625594" lon="-1.11154137">
<ele>698</ele>
<time>2013-06-29T19:18:29Z</time>
</trkpt>
<trkpt lat="38.23619213" lon="-1.11134502">
<ele>706</ele>
<time>2013-06-29T19:18:33Z</time>
</trkpt>
<trkpt lat="38.23602461" lon="-1.11128257">
<ele>710</ele>
<time>2013-06-29T19:18:37Z</time>
</trkpt>
<trkpt lat="38.23577926" lon="-1.11146732">
<ele>719</ele>
<time>2013-06-29T19:18:41Z</time>
</trkpt>
<trkpt lat="38.23565122" lon="-1.11191947">
<ele>719</ele>
<time>2013-06-29T19:18:45Z</time>
</trkpt>
<trkpt lat="38.23590783" lon="-1.11239116">
<ele>720</ele>
<time>2013-06-29T19:18:49Z</time>
</trkpt>
<trkpt lat="38.23620334" lon="-1.11221475">
<ele>724</ele>
<time>2013-06-29T19:18:53Z</time>
</trkpt>
<trkpt lat="38.23612834" lon="-1.11205845">
<ele>729</ele>
<time>2013-06-29T19:18:57Z</time>
</trkpt>
<trkpt lat="38.23594347" lon="-1.11201084">
<ele>730</ele>
<time>2013-06-29T19:19:01Z</time>
</trkpt>
<trkpt lat="38.23571192" lon="-1.11209255">
<ele>732</ele>
<time>2013-06-29T19:19:05Z</time>
</trkpt>
<trkpt lat="38.23548114" lon="-1.11218564">
<ele>731</ele>
<time>2013-06-29T19:19:09Z</time>
</trkpt>
<trkpt lat="38.23522396" lon="-1.11235797">
<ele>734</ele>
<time>2013-06-29T19:19:13Z</time>
</trkpt>
<trkpt lat="38.23493165" lon="-1.11248412">
<ele>733</ele>
<time>2013-06-29T19:19:17Z</time>
</trkpt>
<trkpt lat="38.23465491" lon="-1.11281376">
<ele>732</ele>
<time>2013-06-29T19:19:21Z</time>
</trkpt>
<trkpt lat="38.23448706" lon="-1.11322552">
<ele>728</ele>
<time>2013-06-29T19:19:25Z</time>
</trkpt>
<trkpt lat="38.2343015" lon="-1.11369624">
<ele>722</ele>
<time>2013-06-29T19:19:29Z</time>
</trkpt>
<trkpt lat="38.23409038" lon="-1.11420533">
<ele>719</ele>
<time>2013-06-29T19:19:33Z</time>
</trkpt>
<trkpt lat="38.23399663" lon="-1.1145904">
<ele>720</ele>
<time>2013-06-29T19:19:37Z</time>
</trkpt>
<trkpt lat="38.23383675" lon="-1.11500893">
<ele>712</ele>
<time>2013-06-29T19:19:41Z</time>
</trkpt>
<trkpt lat="38.23372675" lon="-1.11548423">
<ele>709</ele>
<time>2013-06-29T19:19:45Z</time>
</trkpt>
<trkpt lat="38.23364424" lon="-1.11597532">
<ele>704</ele>
<time>2013-06-29T19:19:49Z</time>
</trkpt>
<trkpt lat="38.23358913" lon="-1.11648809">
<ele>705</ele>
<time>2013-06-29T19:19:53Z</time>
</trkpt>
<trkpt lat="38.23350251" lon="-1.11698046">
<ele>706</ele>
<time>2013-06-29T19:19:57Z</time>
</trkpt>
<trkpt lat="38.23345253" lon="-1.11748425">
<ele>705</ele>
<time>2013-06-29T19:20:01Z</time>
</trkpt>
<trkpt lat="38.23340046" lon="-1.11803426">
<ele>699</ele>
<time>2013-06-29T19:20:05Z</time>
</trkpt>
<trkpt lat="38.23337655" lon="-1.11865652">
<ele>697</ele>
<time>2013-06-29T19:20:09Z</time>
</trkpt>
<trkpt lat="38.23340557" lon="-1.11931332">
<ele>697</ele>
<time>2013-06-29T19:20:13Z</time>
</trkpt>
<trkpt lat="38.23344208" lon="-1.11992457">
<ele>698</ele>
<time>2013-06-29T19:20:17Z</time>
</trkpt>
<trkpt lat="38.23349962" lon="-1.1205425">
<ele>697</ele>
<time>2013-06-29T19:20:21Z</time>
</trkpt>
<trkpt lat="38.23357065" lon="-1.12118891">
<ele>694</ele>
<time>2013-06-29T19:20:25Z</time>
</trkpt>
<trkpt lat="38.23368097" lon="-1.12185924">
<ele>694</ele>
<time>2013-06-29T19:20:29Z</time>
</trkpt>
<trkpt lat="38.23379059" lon="-1.12248211">
<ele>690</ele>
<time>2013-06-29T19:20:33Z</time>
</trkpt>
<trkpt lat="38.23393619" lon="-1.12311867">
<ele>682</ele>
<time>2013-06-29T19:20:37Z</time>
</trkpt>
<trkpt lat="38.23410656" lon="-1.12377389">
<ele>679</ele>
<time>2013-06-29T19:20:41Z</time>
</trkpt>
<trkpt lat="38.23435174" lon="-1.1243796">
<ele>675</ele>
<time>2013-06-29T19:20:45Z</time>
</trkpt>
<trkpt lat="38.23462703" lon="-1.12497581">
<ele>672</ele>
<time>2013-06-29T19:20:49Z</time>
</trkpt>
<trkpt lat="38.23489288" lon="-1.12551407">
<ele>670</ele>
<time>2013-06-29T19:20:53Z</time>
</trkpt>
<trkpt lat="38.23516249" lon="-1.12610176">
<ele>664</ele>
<time>2013-06-29T19:20:57Z</time>
</trkpt>
<trkpt lat="38.23539529" lon="-1.1267">
<ele>657</ele>
<time>2013-06-29T19:21:01Z</time>
</trkpt>
<trkpt lat="38.23561969" lon="-1.1273139">
<ele>648</ele>
<time>2013-06-29T19:21:05Z</time>
</trkpt>
<trkpt lat="38.23588435" lon="-1.12792899">
<ele>645</ele>
<time>2013-06-29T19:21:09Z</time>
</trkpt>
<trkpt lat="38.23612087" lon="-1.1284706">
<ele>642</ele>
<time>2013-06-29T19:21:13Z</time>
</trkpt>
<trkpt lat="38.23643998" lon="-1.12903091">
<ele>635</ele>
<time>2013-06-29T19:21:17Z</time>
</trkpt>
<trkpt lat="38.23679949" lon="-1.12955586">
<ele>628</ele>
<time>2013-06-29T19:21:21Z</time>
</trkpt>
<trkpt lat="38.23716894" lon="-1.13006278">
<ele>623</ele>
<time>2013-06-29T19:21:25Z</time>
</trkpt>
<trkpt lat="38.23756641" lon="-1.1305108">
<ele>619</ele>
<time>2013-06-29T19:21:29Z</time>
</trkpt>
<trkpt lat="38.23796745" lon="-1.13096911">
<ele>615</ele>
<time>2013-06-29T19:21:33Z</time>
</trkpt>
<trkpt lat="38.23840012" lon="-1.13136453">
<ele>616</ele>
<time>2013-06-29T19:21:37Z</time>
</trkpt>
<trkpt lat="38.23875216" lon="-1.13180598">
<ele>617</ele>
<time>2013-06-29T19:21:41Z</time>
</trkpt>
<trkpt lat="38.23878183" lon="-1.13233558">
<ele>622</ele>
<time>2013-06-29T19:21:45Z</time>
</trkpt>
<trkpt lat="38.23869484" lon="-1.13270856">
<ele>625</ele>
<time>2013-06-29T19:21:49Z</time>
</trkpt>
<trkpt lat="38.23852187" lon="-1.13295978">
<ele>627</ele>
<time>2013-06-29T19:21:53Z</time>
</trkpt>
<trkpt lat="38.2383563" lon="-1.13326205">
<ele>632</ele>
<time>2013-06-29T19:21:57Z</time>
</trkpt>
<trkpt lat="38.23819352" lon="-1.13360272">
<ele>636</ele>
<time>2013-06-29T19:22:01Z</time>
</trkpt>
<trkpt lat="38.23801136" lon="-1.13389559">
<ele>644</ele>
<time>2013-06-29T19:22:05Z</time>
</trkpt>
<trkpt lat="38.23787788" lon="-1.13413406">
<ele>653</ele>
<time>2013-06-29T19:22:09Z</time>
</trkpt>
<trkpt lat="38.23774796" lon="-1.13441036">
<ele>658</ele>
<time>2013-06-29T19:22:13Z</time>
</trkpt>
<trkpt lat="38.23759418" lon="-1.13459522">
<ele>664</ele>
<time>2013-06-29T19:22:17Z</time>
</trkpt>
<trkpt lat="38.23750184" lon="-1.13442326">
<ele>671</ele>
<time>2013-06-29T19:22:21Z</time>
</trkpt>
<trkpt lat="38.23758899" lon="-1.13415517">
<ele>674</ele>
<time>2013-06-29T19:22:25Z</time>
</trkpt>
<trkpt lat="38.23757712" lon="-1.13385806">
<ele>681</ele>
<time>2013-06-29T19:22:29Z</time>
</trkpt>
<trkpt lat="38.2375408" lon="-1.13357638">
<ele>697</ele>
<time>2013-06-29T19:22:33Z</time>
</trkpt>
<trkpt lat="38.23743846" lon="-1.13342263">
<ele>708</ele>
<time>2013-06-29T19:22:37Z</time>
</trkpt>
<trkpt lat="38.2373765" lon="-1.13332665">
<ele>709</ele>
<time>2013-06-29T19:22:41Z</time>
</trkpt>
<trkpt lat="38.23723284" lon="-1.1331861">
<ele>715</ele>
<time>2013-06-29T19:22:45Z</time>
</trkpt>
<trkpt lat="38.23708648" lon="-1.13308168">
<ele>715</ele>
<time>2013-06-29T19:22:49Z</time>
</trkpt>
<trkpt lat="38.23713821" lon="-1.13290454">
<ele>714</ele>
<time>2013-06-29T19:22:53Z</time>
</trkpt>
<trkpt lat="38.23711384" lon="-1.13272097">
<ele>712</ele>
<time>2013-06-29T19:22:57Z</time>
</trkpt>
<trkpt lat="38.23687575" lon="-1.13290445">
<ele>711</ele>
<time>2013-06-29T19:23:01Z</time>
</trkpt>
<trkpt lat="38.23676977" lon="-1.13345031">
<ele>711</ele>
<time>2013-06-29T19:23:05Z</time>
</trkpt>
<trkpt lat="38.23694219" lon="-1.1340437">
<ele>712</ele>
<time>2013-06-29T19:23:09Z</time>
</trkpt>
<trkpt lat="38.23713078" lon="-1.13463398">
<ele>712</ele>
<time>2013-06-29T19:23:13Z</time>
</trkpt>
<trkpt lat="38.237264" lon="-1.13523814">
<ele>713</ele>
<time>2013-06-29T19:23:17Z</time>
</trkpt>
<trkpt lat="38.23736661" lon="-1.13580719">
<ele>716</ele>
<time>2013-06-29T19:23:21Z</time>
</trkpt>
<trkpt lat="38.23725714" lon="-1.13622118">
<ele>722</ele>
<time>2013-06-29T19:23:25Z</time>
</trkpt>
<trkpt lat="38.23705023" lon="-1.13624568">
<ele>729</ele>
<time>2013-06-29T19:23:29Z</time>
</trkpt>
<trkpt lat="38.23688984" lon="-1.13600551">
<ele>741</ele>
<time>2013-06-29T19:23:33Z</time>
</trkpt>
<trkpt lat="38.23675462" lon="-1.13595169">
<ele>748</ele>
<time>2013-06-29T19:23:37Z</time>
</trkpt>
<trkpt lat="38.2365617" lon="-1.13587815">
<ele>754</ele>
<time>2013-06-29T19:23:41Z</time>
</trkpt>
<trkpt lat="38.23642534" lon="-1.13572195">
<ele>758</ele>
<time>2013-06-29T19:23:45Z</time>
</trkpt>
<trkpt lat="38.23630452" lon="-1.13559077">
<ele>762</ele>
<time>2013-06-29T19:23:49Z</time>
</trkpt>
<trkpt lat="38.23615707" lon="-1.13539014">
<ele>761</ele>
<time>2013-06-29T19:23:53Z</time>
</trkpt>
<trkpt lat="38.23608422" lon="-1.13511777">
<ele>762</ele>
<time>2013-06-29T19:23:57Z</time>
</trkpt>
<trkpt lat="38.23594644" lon="-1.13495485">
<ele>771</ele>
<time>2013-06-29T19:24:01Z</time>
</trkpt>
<trkpt lat="38.23581824" lon="-1.13481331">
<ele>771</ele>
<time>2013-06-29T19:24:05Z</time>
</trkpt>
<trkpt lat="38.23580995" lon="-1.13454828">
<ele>770</ele>
<time>2013-06-29T19:24:09Z</time>
</trkpt>
<trkpt lat="38.23575755" lon="-1.13433047">
<ele>768</ele>
<time>2013-06-29T19:24:13Z</time>
</trkpt>
<trkpt lat="38.23548957" lon="-1.13445918">
<ele>763</ele>
<time>2013-06-29T19:24:17Z</time>
</trkpt>
<trkpt lat="38.23541371" lon="-1.13502641">
<ele>760</ele>
<time>2013-06-29T19:24:21Z</time>
</trkpt>
<trkpt lat="38.23549963" lon="-1.1356441">
<ele>757</ele>
<time>2013-06-29T19:24:25Z</time>
</trkpt>
<trkpt lat="38.23556064" lon="-1.13626055">
<ele>759</ele>
<time>2013-06-29T19:24:29Z</time>
</trkpt>
<trkpt lat="38.23557294" lon="-1.13690467">
<ele>753</ele>
<time>2013-06-29T19:24:33Z</time>
</trkpt>
<trkpt lat="38.23557174" lon="-1.13755883">
<ele>753</ele>
<time>2013-06-29T19:24:37Z</time>
</trkpt>
<trkpt lat="38.23559404" lon="-1.13819194">
<ele>751</ele>
<time>2013-06-29T19:24:41Z</time>
</trkpt>
<trkpt lat="38.23558047" lon="-1.13880969">
<ele>754</ele>
<time>2013-06-29T19:24:45Z</time>
</trkpt>
<trkpt lat="38.23558264" lon="-1.13942004">
<ele>754</ele>
<time>2013-06-29T19:24:49Z</time>
</trkpt>
<trkpt lat="38.23555133" lon="-1.13999538">
<ele>756</ele>
<time>2013-06-29T19:24:53Z</time>
</trkpt>
<trkpt lat="38.23551667" lon="-1.14058857">
<ele>760</ele>
<time>2013-06-29T19:24:57Z</time>
</trkpt>
<trkpt lat="38.23541608" lon="-1.14110336">
<ele>757</ele>
<time>2013-06-29T19:25:01Z</time>
</trkpt>
<trkpt lat="38.23534565" lon="-1.14160212">
<ele>754</ele>
<time>2013-06-29T19:25:05Z</time>
</trkpt>
<trkpt lat="38.23523032" lon="-1.14208838">
<ele>748</ele>
<time>2013-06-29T19:25:09Z</time>
</trkpt>
<trkpt lat="38.23515422" lon="-1.14260381">
<ele>747</ele>
<time>2013-06-29T19:25:13Z</time>
</trkpt>
<trkpt lat="38.23508741" lon="-1.14311856">
<ele>750</ele>
<time>2013-06-29T19:25:17Z</time>
</trkpt>
<trkpt lat="38.23499697" lon="-1.14355013">
<ele>753</ele>
<time>2013-06-29T19:25:21Z</time>
</trkpt>
<trkpt lat="38.23483757" lon="-1.14396973">
<ele>762</ele>
<time>2013-06-29T19:25:25Z</time>
</trkpt>
<trkpt lat="38.23469074" lon="-1.1444225">
<ele>767</ele>
<time>2013-06-29T19:25:29Z</time>
</trkpt>
<trkpt lat="38.23451413" lon="-1.14477234">
<ele>775</ele>
<time>2013-06-29T19:25:33Z</time>
</trkpt>
<trkpt lat="38.23434301" lon="-1.14518044">
<ele>783</ele>
<time>2013-06-29T19:25:37Z</time>
</trkpt>
<trkpt lat="38.23416797" lon="-1.14563011">
<ele>787</ele>
<time>2013-06-29T19:25:41Z</time>
</trkpt>
<trkpt lat="38.23397035" lon="-1.14609628">
<ele>791</ele>
<time>2013-06-29T19:25:45Z</time>
</trkpt>
<trkpt lat="38.2337796" lon="-1.14658223">
<ele>795</ele>
<time>2013-06-29T19:25:49Z</time>
</trkpt>
<trkpt lat="38.23353791" lon="-1.14692768">
<ele>800</ele>
<time>2013-06-29T19:25:53Z</time>
</trkpt>
<trkpt lat="38.23325097" lon="-1.1471281">
<ele>806</ele>
<time>2013-06-29T19:25:57Z</time>
</trkpt>
<trkpt lat="38.23298387" lon="-1.14725375">
<ele>820</ele>
<time>2013-06-29T19:26:01Z</time>
</trkpt>
<trkpt lat="38.23270067" lon="-1.1473049">
<ele>829</ele>
<time>2013-06-29T19:26:05Z</time>
</trkpt>
<trkpt lat="38.23248966" lon="-1.14723859">
<ele>838</ele>
<time>2013-06-29T19:26:09Z</time>
</trkpt>
<trkpt lat="38.23233575" lon="-1.14712604">
<ele>844</ele>
<time>2013-06-29T19:26:13Z</time>
</trkpt>
<trkpt lat="38.2322561" lon="-1.1469574">
<ele>843</ele>
<time>2013-06-29T19:26:17Z</time>
</trkpt>
<trkpt lat="38.23238448" lon="-1.14672128">
<ele>843</ele>
<time>2013-06-29T19:26:21Z</time>
</trkpt>
<trkpt lat="38.23258974" lon="-1.14648512">
<ele>845</ele>
<time>2013-06-29T19:26:25Z</time>
</trkpt>
<trkpt lat="38.2327414" lon="-1.14627135">
<ele>847</ele>
<time>2013-06-29T19:26:29Z</time>
</trkpt>
<trkpt lat="38.23290902" lon="-1.14608309">
<ele>846</ele>
<time>2013-06-29T19:26:33Z</time>
</trkpt>
<trkpt lat="38.23310042" lon="-1.14592651">
<ele>846</ele>
<time>2013-06-29T19:26:37Z</time>
</trkpt>
<trkpt lat="38.23333114" lon="-1.1457389">
<ele>844</ele>
<time>2013-06-29T19:26:41Z</time>
</trkpt>
<trkpt lat="38.23358422" lon="-1.14560126">
<ele>844</ele>
<time>2013-06-29T19:26:45Z</time>
</trkpt>
<trkpt lat="38.23377163" lon="-1.14545225">
<ele>845</ele>
<time>2013-06-29T19:26:49Z</time>
</trkpt>
<trkpt lat="38.23391002" lon="-1.14523245">
<ele>845</ele>
<time>2013-06-29T19:26:53Z</time>
</trkpt>
<trkpt lat="38.23414314" lon="-1.14509808">
<ele>848</ele>
<time>2013-06-29T19:26:57Z</time>
</trkpt>
<trkpt lat="38.23439886" lon="-1.14500818">
<ele>849</ele>
<time>2013-06-29T19:27:01Z</time>
</trkpt>
<trkpt lat="38.23475136" lon="-1.14502461">
<ele>850</ele>
<time>2013-06-29T19:27:05Z</time>
</trkpt>
<trkpt lat="38.23505554" lon="-1.14500267">
<ele>850</ele>
<time>2013-06-29T19:27:09Z</time>
</trkpt>
<trkpt lat="38.2353784" lon="-1.14489042">
<ele>851</ele>
<time>2013-06-29T19:27:13Z</time>
</trkpt>
<trkpt lat="38.23568789" lon="-1.14467014">
<ele>848</ele>
<time>2013-06-29T19:27:17Z</time>
</trkpt>
<trkpt lat="38.23569163" lon="-1.14452436">
<ele>851</ele>
<time>2013-06-29T19:27:21Z</time>
</trkpt>
<trkpt lat="38.23550089" lon="-1.14472109">
<ele>853</ele>
<time>2013-06-29T19:27:25Z</time>
</trkpt>
<trkpt lat="38.23526989" lon="-1.14500932">
<ele>859</ele>
<time>2013-06-29T19:27:29Z</time>
</trkpt>
<trkpt lat="38.23508401" lon="-1.14514958">
<ele>862</ele>
<time>2013-06-29T19:27:33Z</time>
</trkpt>
<trkpt lat="38.23483166" lon="-1.14531022">
<ele>865</ele>
<time>2013-06-29T19:27:37Z</time>
</trkpt>
<trkpt lat="38.23459158" lon="-1.14544814">
<ele>870</ele>
<time>2013-06-29T19:27:41Z</time>
</trkpt>
<trkpt lat="38.23430556" lon="-1.14561136">
<ele>881</ele>
<time>2013-06-29T19:27:45Z</time>
</trkpt>
<trkpt lat="38.23409637" lon="-1.14571435">
<ele>887</ele>
<time>2013-06-29T19:27:49Z</time>
</trkpt>
<trkpt lat="38.2338412" lon="-1.14588862">
<ele>899</ele>
<time>2013-06-29T19:27:53Z</time>
</trkpt>
<trkpt lat="38.23356048" lon="-1.14592221">
<ele>910</ele>
<time>2013-06-29T19:27:57Z</time>
</trkpt>
<trkpt lat="38.23327961" lon="-1.14591469">
<ele>919</ele>
<time>2013-06-29T19:28:01Z</time>
</trkpt>
<trkpt lat="38.23303905" lon="-1.14584809">
<ele>931</ele>
<time>2013-06-29T19:28:05Z</time>
</trkpt>
<trkpt lat="38.23282955" lon="-1.14576305">
<ele>938</ele>
<time>2013-06-29T19:28:09Z</time>
</trkpt>
<trkpt lat="38.23257286" lon="-1.14566462">
<ele>944</ele>
<time>2013-06-29T19:28:13Z</time>
</trkpt>
<trkpt lat="38.23245834" lon="-1.14557614">
<ele>953</ele>
<time>2013-06-29T19:28:17Z</time>
</trkpt>
<trkpt lat="38.23247451" lon="-1.14539415">
<ele>957</ele>
<time>2013-06-29T19:28:21Z</time>
</trkpt>
<trkpt lat="38.23279803" lon="-1.14545535">
<ele>960</ele>
<time>2013-06-29T19:28:25Z</time>
</trkpt>
<trkpt lat="38.23304035" lon="-1.14596661">
<ele>964</ele>
<time>2013-06-29T19:28:29Z</time>
</trkpt>
<trkpt lat="38.23290405" lon="-1.14647881">
<ele>976</ele>
<time>2013-06-29T19:28:33Z</time>
</trkpt>
<trkpt lat="38.23267467" lon="-1.14670663">
<ele>981</ele>
<time>2013-06-29T19:28:37Z</time>
</trkpt>
<trkpt lat="38.23252926" lon="-1.14657433">
<ele>987</ele>
<time>2013-06-29T19:28:41Z</time>
</trkpt>
<trkpt lat="38.23257404" lon="-1.14640108">
<ele>990</ele>
<time>2013-06-29T19:28:45Z</time>
</trkpt>
<trkpt lat="38.23291075" lon="-1.14642749">
<ele>990</ele>
<time>2013-06-29T19:28:49Z</time>
</trkpt>
<trkpt lat="38.23308606" lon="-1.14701246">
<ele>994</ele>
<time>2013-06-29T19:28:53Z</time>
</trkpt>
<trkpt lat="38.23288784" lon="-1.14745843">
<ele>1000</ele>
<time>2013-06-29T19:28:57Z</time>
</trkpt>
<trkpt lat="38.23263913" lon="-1.14756761">
<ele>1005</ele>
<time>2013-06-29T19:29:01Z</time>
</trkpt>
<trkpt lat="38.23252365" lon="-1.14743842">
<ele>1009</ele>
<time>2013-06-29T19:29:05Z</time>
</trkpt>
<trkpt lat="38.23254149" lon="-1.14724695">
<ele>1009</ele>
<time>2013-06-29T19:29:09Z</time>
</trkpt>
<trkpt lat="38.23258259" lon="-1.14703593">
<ele>1009</ele>
<time>2013-06-29T19:29:13Z</time>
</trkpt>
<trkpt lat="38.23260796" lon="-1.1467827">
<ele>1010</ele>
<time>2013-06-29T19:29:17Z</time>
</trkpt>
<trkpt lat="38.23259259" lon="-1.14657034">
<ele>1007</ele>
<time>2013-06-29T19:29:21Z</time>
</trkpt>
<trkpt lat="38.2325673" lon="-1.14631434">
<ele>1006</ele>
<time>2013-06-29T19:29:25Z</time>
</trkpt>
<trkpt lat="38.23250787" lon="-1.14605169">
<ele>1005</ele>
<time>2013-06-29T19:29:29Z</time>
</trkpt>
<trkpt lat="38.23241859" lon="-1.14582445">
<ele>1003</ele>
<time>2013-06-29T19:29:33Z</time>
</trkpt>
<trkpt lat="38.23233541" lon="-1.14557656">
<ele>1001</ele>
<time>2013-06-29T19:29:37Z</time>
</trkpt>
<trkpt lat="38.23222997" lon="-1.14532364">
<ele>999</ele>
<time>2013-06-29T19:29:41Z</time>
</trkpt>
<trkpt lat="38.23209537" lon="-1.14505789">
<ele>998</ele>
<time>2013-06-29T19:29:45Z</time>
</trkpt>
<trkpt lat="38.23195305" lon="-1.14482967">
<ele>995</ele>
<time>2013-06-29T19:29:49Z</time>
</trkpt>
<trkpt lat="38.23178279" lon="-1.14460682">
<ele>993</ele>
<time>2013-06-29T19:29:53Z</time>
</trkpt>
<trkpt lat="38.23165194" lon="-1.1444057">
<ele>991</ele>
<time>2013-06-29T19:29:57Z</time>
</trkpt>
<trkpt lat="38.23152265" lon="-1.14419068">
<ele>987</ele>
<time>2013-06-29T19:30:01Z</time>
</trkpt>
<trkpt lat="38.23142087" lon="-1.14399552">
<ele>987</ele>
<time>2013-06-29T19:30:05Z</time>
</trkpt>
<trkpt lat="38.23130922" lon="-1.14380308">
<ele>986</ele>
<time>2013-06-29T19:30:09Z</time>
</trkpt>
<trkpt lat="38.23116586" lon="-1.14361059">
<ele>984</ele>
<time>2013-06-29T19:30:13Z</time>
</trkpt>
<trkpt lat="38.23105547" lon="-1.14336248">
<ele>983</ele>
<time>2013-06-29T19:30:17Z</time>
</trkpt>
<trkpt lat="38.2309932" lon="-1.14314318">
<ele>979</ele>
<time>2013-06-29T19:30:21Z</time>
</trkpt>
<trkpt lat="38.2309738" lon="-1.14293765">
<ele>972</ele>
<time>2013-06-29T19:30:25Z</time>
</trkpt>
<trkpt lat="38.23090389" lon="-1.142672">
<ele>963</ele>
<time>2013-06-29T19:30:29Z</time>
</trkpt>
<trkpt lat="38.23079748" lon="-1.14242969">
<ele>955</ele>
<time>2013-06-29T19:30:33Z</time>
</trkpt>
<trkpt lat="38.23071591" lon="-1.14220169">
<ele>949</ele>
<time>2013-06-29T19:30:37Z</time>
</trkpt>
<trkpt lat="38.23064098" lon="-1.14196864">
<ele>945</ele>
<time>2013-06-29T19:30:41Z</time>
</trkpt>
<trkpt lat="38.23053499" lon="-1.14175726">
<ele>942</ele>
<time>2013-06-29T19:30:45Z</time>
</trkpt>
<trkpt lat="38.23049561" lon="-1.14148856">
<ele>942</ele>
<time>2013-06-29T19:30:49Z</time>
</trkpt>
<trkpt lat="38.23042508" lon="-1.14132287">
<ele>943</ele>
<time>2013-06-29T19:30:53Z</time>
</trkpt>
<trkpt lat="38.23034482" lon="-1.14109174">
<ele>942</ele>
<time>2013-06-29T19:30:57Z</time>
</trkpt>
<trkpt lat="38.23030649" lon="-1.14089865">
<ele>934</ele>
<time>2013-06-29T19:31:01Z</time>
</trkpt>
<trkpt lat="38.23026019" lon="-1.14069581">
<ele>930</ele>
<time>2013-06-29T19:31:05Z</time>
</trkpt>
<trkpt lat="38.23028339" lon="-1.14047164">
<ele>929</ele>
<time>2013-06-29T19:31:09Z</time>
</trkpt>
<trkpt lat="38.23027992" lon="-1.14026175">
<ele>929</ele>
<time>2013-06-29T19:31:13Z</time>
</trkpt>
<trkpt lat="38.23027839" lon="-1.1400319">
<ele>926</ele>
<time>2013-06-29T19:31:17Z</time>
</trkpt>
<trkpt lat="38.23026235" lon="-1.13980869">
<ele>925</ele>
<time>2013-06-29T19:31:21Z</time>
</trkpt>
<trkpt lat="38.23023444" lon="-1.13960579">
<ele>918</ele>
<time>2013-06-29T19:31:25Z</time>
</trkpt>
<trkpt lat="38.230192" lon="-1.13934245">
<ele>914</ele>
<time>2013-06-29T19:31:29Z</time>
</trkpt>
<trkpt lat="38.23010501" lon="-1.13911004">
<ele>912</ele>
<time>2013-06-29T19:31:33Z</time>
</trkpt>
<trkpt lat="38.23005189" lon="-1.13886373">
<ele>906</ele>
<time>2013-06-29T19:31:37Z</time>
</trkpt>
<trkpt lat="38.22998851" lon="-1.13857003">
<ele>897</ele>
<time>2013-06-29T19:31:41Z</time>
</trkpt>
<trkpt lat="38.22992403" lon="-1.13826598">
<ele>891</ele>
<time>2013-06-29T19:31:45Z</time>
</trkpt>
<trkpt lat="38.22982976" lon="-1.13795796">
<ele>881</ele>
<time>2013-06-29T19:31:49Z</time>
</trkpt>
<trkpt lat="38.22976181" lon="-1.13769793">
<ele>876</ele>
<time>2013-06-29T19:31:53Z</time>
</trkpt>
<trkpt lat="38.22967794" lon="-1.13739693">
<ele>870</ele>
<time>2013-06-29T19:31:57Z</time>
</trkpt>
<trkpt lat="38.22960721" lon="-1.13714494">
<ele>866</ele>
<time>2013-06-29T19:32:01Z</time>
</trkpt>
<trkpt lat="38.22954623" lon="-1.13685154">
<ele>861</ele>
<time>2013-06-29T19:32:05Z</time>
</trkpt>
<trkpt lat="38.2294554" lon="-1.13655977">
<ele>858</ele>
<time>2013-06-29T19:32:09Z</time>
</trkpt>
<trkpt lat="38.22931737" lon="-1.13629524">
<ele>854</ele>
<time>2013-06-29T19:32:13Z</time>
</trkpt>
<trkpt lat="38.22917562" lon="-1.13606499">
<ele>849</ele>
<time>2013-06-29T19:32:17Z</time>
</trkpt>
<trkpt lat="38.22903465" lon="-1.13583075">
<ele>845</ele>
<time>2013-06-29T19:32:21Z</time>
</trkpt>
<trkpt lat="38.22890104" lon="-1.13568685">
<ele>842</ele>
<time>2013-06-29T19:32:25Z</time>
</trkpt>
<trkpt lat="38.22877971" lon="-1.13550943">
<ele>836</ele>
<time>2013-06-29T19:32:29Z</time>
</trkpt>
<trkpt lat="38.22868001" lon="-1.13529097">
<ele>834</ele>
<time>2013-06-29T19:32:33Z</time>
</trkpt>
<trkpt lat="38.22860378" lon="-1.13500168">
<ele>835</ele>
<time>2013-06-29T19:32:37Z</time>
</trkpt>
<trkpt lat="38.22851352" lon="-1.13480581">
<ele>831</ele>
<time>2013-06-29T19:32:41Z</time>
</trkpt>
<trkpt lat="38.22838824" lon="-1.13460492">
<ele>827</ele>
<time>2013-06-29T19:32:45Z</time>
</trkpt>
<trkpt lat="38.22831477" lon="-1.13436462">
<ele>824</ele>
<time>2013-06-29T19:32:49Z</time>
</trkpt>
<trkpt lat="38.22825168" lon="-1.13420054">
<ele>825</ele>
<time>2013-06-29T19:32:53Z</time>
</trkpt>
<trkpt lat="38.22819069" lon="-1.13408992">
<ele>825</ele>
<time>2013-06-29T19:32:57Z</time>
</trkpt>
<trkpt lat="38.22810735" lon="-1.13396301">
<ele>828</ele>
<time>2013-06-29T19:33:01Z</time>
</trkpt>
<trkpt lat="38.22804764" lon="-1.1338025">
<ele>832</ele>
<time>2013-06-29T19:33:05Z</time>
</trkpt>
<trkpt lat="38.2280104" lon="-1.13365745">
<ele>837</ele>
<time>2013-06-29T19:33:09Z</time>
</trkpt>
<trkpt lat="38.22796697" lon="-1.13351063">
<ele>842</ele>
<time>2013-06-29T19:33:13Z</time>
</trkpt>
<trkpt lat="38.22793386" lon="-1.13338741">
<ele>846</ele>
<time>2013-06-29T19:33:17Z</time>
</trkpt>
<trkpt lat="38.22790163" lon="-1.13325173">
<ele>848</ele>
<time>2013-06-29T19:33:21Z</time>
</trkpt>
<trkpt lat="38.22785818" lon="-1.13309852">
<ele>848</ele>
<time>2013-06-29T19:33:25Z</time>
</trkpt>
<trkpt lat="38.22779319" lon="-1.13297257">
<ele>851</ele>
<time>2013-06-29T19:33:29Z</time>
</trkpt>
<trkpt lat="38.22773199" lon="-1.13284534">
<ele>853</ele>
<time>2013-06-29T19:33:33Z</time>
</trkpt>
<trkpt lat="38.22765967" lon="-1.13267762">
<ele>848</ele>
<time>2013-06-29T19:33:37Z</time>
</trkpt>
<trkpt lat="38.22760669" lon="-1.13246717">
<ele>850</ele>
<time>2013-06-29T19:33:41Z</time>
</trkpt>
<trkpt lat="38.22751459" lon="-1.13226472">
<ele>849</ele>
<time>2013-06-29T19:33:45Z</time>
</trkpt>
<trkpt lat="38.22741323" lon="-1.13203407">
<ele>848</ele>
<time>2013-06-29T19:33:49Z</time>
</trkpt>
<trkpt lat="38.22730096" lon="-1.13182854">
<ele>845</ele>
<time>2013-06-29T19:33:53Z</time>
</trkpt>
<trkpt lat="38.22720191" lon="-1.13160182">
<ele>834</ele>
<time>2013-06-29T19:33:57Z</time>
</trkpt>
<trkpt lat="38.22712749" lon="-1.13133945">
<ele>828</ele>
<time>2013-06-29T19:34:01Z</time>
</trkpt>
<trkpt lat="38.227" lon="-1.1310631">
<ele>820</ele>
<time>2013-06-29T19:34:05Z</time>
</trkpt>
<trkpt lat="38.22681562" lon="-1.1308111">
<ele>814</ele>
<time>2013-06-29T19:34:09Z</time>
</trkpt>
<trkpt lat="38.22664269" lon="-1.13053777">
<ele>810</ele>
<time>2013-06-29T19:34:13Z</time>
</trkpt>
<trkpt lat="38.22645394" lon="-1.13029006">
<ele>807</ele>
<time>2013-06-29T19:34:17Z</time>
</trkpt>
<trkpt lat="38.2262805" lon="-1.12999814">
<ele>804</ele>
<time>2013-06-29T19:34:21Z</time>
</trkpt>
<trkpt lat="38.2260698" lon="-1.12982192">
<ele>799</ele>
<time>2013-06-29T19:34:25Z</time>
</trkpt>
<trkpt lat="38.22587294" lon="-1.12958739">
<ele>794</ele>
<time>2013-06-29T19:34:29Z</time>
</trkpt>
<trkpt lat="38.22568184" lon="-1.12938823">
<ele>790</ele>
<time>2013-06-29T19:34:33Z</time>
</trkpt>
<trkpt lat="38.22553464" lon="-1.12916268">
<ele>787</ele>
<time>2013-06-29T19:34:37Z</time>
</trkpt>
<trkpt lat="38.22541443" lon="-1.1289677">
<ele>777</ele>
<time>2013-06-29T19:34:41Z</time>
</trkpt>
<trkpt lat="38.2252841" lon="-1.1287904">
<ele>769</ele>
<time>2013-06-29T19:34:45Z</time>
</trkpt>
<trkpt lat="38.22513029" lon="-1.12856597">
<ele>760</ele>
<time>2013-06-29T19:34:49Z</time>
</trkpt>
<trkpt lat="38.22496741" lon="-1.12836953">
<ele>756</ele>
<time>2013-06-29T19:34:53Z</time>
</trkpt>
<trkpt lat="38.22482992" lon="-1.12818003">
<ele>752</ele>
<time>2013-06-29T19:34:57Z</time>
</trkpt>
<trkpt lat="38.2246863" lon="-1.12797042">
<ele>748</ele>
<time>2013-06-29T19:35:01Z</time>
</trkpt>
<trkpt lat="38.22453434" lon="-1.12779607">
<ele>741</ele>
<time>2013-06-29T19:35:05Z</time>
</trkpt>
<trkpt lat="38.22436855" lon="-1.12762103">
<ele>734</ele>
<time>2013-06-29T19:35:09Z</time>
</trkpt>
<trkpt lat="38.22421847" lon="-1.12742332">
<ele>728</ele>
<time>2013-06-29T19:35:13Z</time>
</trkpt>
<trkpt lat="38.22402445" lon="-1.12722763">
<ele>721</ele>
<time>2013-06-29T19:35:17Z</time>
</trkpt>
<trkpt lat="38.22383681" lon="-1.12701858">
<ele>715</ele>
<time>2013-06-29T19:35:21Z</time>
</trkpt>
<trkpt lat="38.22360664" lon="-1.12680871">
<ele>709</ele>
<time>2013-06-29T19:35:25Z</time>
</trkpt>
<trkpt lat="38.22339748" lon="-1.12663314">
<ele>703</ele>
<time>2013-06-29T19:35:29Z</time>
</trkpt>
<trkpt lat="38.2231743" lon="-1.12646025">
<ele>698</ele>
<time>2013-06-29T19:35:33Z</time>
</trkpt>
<trkpt lat="38.22294469" lon="-1.1263116">
<ele>694</ele>
<time>2013-06-29T19:35:37Z</time>
</trkpt>
<trkpt lat="38.22273389" lon="-1.12616842">
<ele>688</ele>
<time>2013-06-29T19:35:41Z</time>
</trkpt>
<trkpt lat="38.22251429" lon="-1.12604113">
<ele>682</ele>
<time>2013-06-29T19:35:45Z</time>
</trkpt>
<trkpt lat="38.22229853" lon="-1.12592884">
<ele>677</ele>
<time>2013-06-29T19:35:49Z</time>
</trkpt>
<trkpt lat="38.22207924" lon="-1.12580783">
<ele>673</ele>
<time>2013-06-29T19:35:53Z</time>
</trkpt>
<trkpt lat="38.22188313" lon="-1.12569813">
<ele>669</ele>
<time>2013-06-29T19:35:57Z</time>
</trkpt>
<trkpt lat="38.22169664" lon="-1.12562101">
<ele>664</ele>
<time>2013-06-29T19:36:01Z</time>
</trkpt>
<trkpt lat="38.22155495" lon="-1.12546279">
<ele>660</ele>
<time>2013-06-29T19:36:05Z</time>
</trkpt>
<trkpt lat="38.2213965" lon="-1.12534197">
<ele>654</ele>
<time>2013-06-29T19:36:09Z</time>
</trkpt>
<trkpt lat="38.22121989" lon="-1.12524916">
<ele>644</ele>
<time>2013-06-29T19:36:13Z</time>
</trkpt>
<trkpt lat="38.2210219" lon="-1.12513327">
<ele>638</ele>
<time>2013-06-29T19:36:17Z</time>
</trkpt>
<trkpt lat="38.22082159" lon="-1.12504387">
<ele>632</ele>
<time>2013-06-29T19:36:21Z</time>
</trkpt>
<trkpt lat="38.22064035" lon="-1.12494464">
<ele>626</ele>
<time>2013-06-29T19:36:25Z</time>
</trkpt>
<trkpt lat="38.22045484" lon="-1.12481964">
<ele>621</ele>
<time>2013-06-29T19:36:29Z</time>
</trkpt>
<trkpt lat="38.22026605" lon="-1.12470301">
<ele>618</ele>
<time>2013-06-29T19:36:33Z</time>
</trkpt>
<trkpt lat="38.22008386" lon="-1.12460855">
<ele>615</ele>
<time>2013-06-29T19:36:37Z</time>
</trkpt>
<trkpt lat="38.21988364" lon="-1.1245339">
<ele>613</ele>
<time>2013-06-29T19:36:41Z</time>
</trkpt>
<trkpt lat="38.21970006" lon="-1.12443318">
<ele>609</ele>
<time>2013-06-29T19:36:45Z</time>
</trkpt>
<trkpt lat="38.21952201" lon="-1.12433372">
<ele>602</ele>
<time>2013-06-29T19:36:49Z</time>
</trkpt>
<trkpt lat="38.2193481" lon="-1.12421882">
<ele>596</ele>
<time>2013-06-29T19:36:53Z</time>
</trkpt>
<trkpt lat="38.21917825" lon="-1.12418026">
<ele>590</ele>
<time>2013-06-29T19:36:57Z</time>
</trkpt>
<trkpt lat="38.2189952" lon="-1.12408641">
<ele>586</ele>
<time>2013-06-29T19:37:01Z</time>
</trkpt>
<trkpt lat="38.21881918" lon="-1.12400771">
<ele>579</ele>
<time>2013-06-29T19:37:05Z</time>
</trkpt>
<trkpt lat="38.21865107" lon="-1.12395992">
<ele>571</ele>
<time>2013-06-29T19:37:09Z</time>
</trkpt>
<trkpt lat="38.21844662" lon="-1.12391434">
<ele>563</ele>
<time>2013-06-29T19:37:13Z</time>
</trkpt>
<trkpt lat="38.21825324" lon="-1.12378457">
<ele>557</ele>
<time>2013-06-29T19:37:17Z</time>
</trkpt>
<trkpt lat="38.21801989" lon="-1.12370288">
<ele>553</ele>
<time>2013-06-29T19:37:21Z</time>
</trkpt>
<trkpt lat="38.21783958" lon="-1.123621">
<ele>548</ele>
<time>2013-06-29T19:37:25Z</time>
</trkpt>
<trkpt lat="38.21761877" lon="-1.12359245">
<ele>539</ele>
<time>2013-06-29T19:37:29Z</time>
</trkpt>
<trkpt lat="38.21736946" lon="-1.12358118">
<ele>536</ele>
<time>2013-06-29T19:37:33Z</time>
</trkpt>
<trkpt lat="38.21711925" lon="-1.12363825">
<ele>538</ele>
<time>2013-06-29T19:37:37Z</time>
</trkpt>
<trkpt lat="38.21689254" lon="-1.12376928">
<ele>534</ele>
<time>2013-06-29T19:37:41Z</time>
</trkpt>
<trkpt lat="38.21664233" lon="-1.12379939">
<ele>532</ele>
<time>2013-06-29T19:37:45Z</time>
</trkpt>
<trkpt lat="38.21643007" lon="-1.12381326">
<ele>534</ele>
<time>2013-06-29T19:37:49Z</time>
</trkpt>
<trkpt lat="38.21625946" lon="-1.12378932">
<ele>536</ele>
<time>2013-06-29T19:37:53Z</time>
</trkpt>
<trkpt lat="38.21610467" lon="-1.12379099">
<ele>541</ele>
<time>2013-06-29T19:37:57Z</time>
</trkpt>
<trkpt lat="38.21593888" lon="-1.12379405">
<ele>540</ele>
<time>2013-06-29T19:38:01Z</time>
</trkpt>
<trkpt lat="38.21573481" lon="-1.12382022">
<ele>542</ele>
<time>2013-06-29T19:38:05Z</time>
</trkpt>
<trkpt lat="38.21551338" lon="-1.12382269">
<ele>543</ele>
<time>2013-06-29T19:38:09Z</time>
</trkpt>
<trkpt lat="38.2152963" lon="-1.12384215">
<ele>542</ele>
<time>2013-06-29T19:38:13Z</time>
</trkpt>
<trkpt lat="38.21509992" lon="-1.12385776">
<ele>548</ele>
<time>2013-06-29T19:38:17Z</time>
</trkpt>
<trkpt lat="38.21486118" lon="-1.12396682">
<ele>548</ele>
<time>2013-06-29T19:38:21Z</time>
</trkpt>
<trkpt lat="38.21464123" lon="-1.12406166">
<ele>554</ele>
<time>2013-06-29T19:38:25Z</time>
</trkpt>
<trkpt lat="38.21442805" lon="-1.12413108">
<ele>559</ele>
<time>2013-06-29T19:38:29Z</time>
</trkpt>
<trkpt lat="38.21417546" lon="-1.12431643">
<ele>565</ele>
<time>2013-06-29T19:38:33Z</time>
</trkpt>
<trkpt lat="38.21388319" lon="-1.12451323">
<ele>574</ele>
<time>2013-06-29T19:38:37Z</time>
</trkpt>
<trkpt lat="38.21363281" lon="-1.12474159">
<ele>581</ele>
<time>2013-06-29T19:38:41Z</time>
</trkpt>
<trkpt lat="38.21343453" lon="-1.12499436">
<ele>591</ele>
<time>2013-06-29T19:38:45Z</time>
</trkpt>
<trkpt lat="38.21324349" lon="-1.12523664">
<ele>599</ele>
<time>2013-06-29T19:38:49Z</time>
</trkpt>
<trkpt lat="38.21305464" lon="-1.12542947">
<ele>603</ele>
<time>2013-06-29T19:38:53Z</time>
</trkpt>
<trkpt lat="38.21293382" lon="-1.12540108">
<ele>608</ele>
<time>2013-06-29T19:38:57Z</time>
</trkpt>
<trkpt lat="38.21320111" lon="-1.12531816">
<ele>610</ele>
<time>2013-06-29T19:39:01Z</time>
</trkpt>
<trkpt lat="38.21347058" lon="-1.12528252">
<ele>610</ele>
<time>2013-06-29T19:39:05Z</time>
</trkpt>
<trkpt lat="38.21362713" lon="-1.1250576">
<ele>617</ele>
<time>2013-06-29T19:39:09Z</time>
</trkpt>
<trkpt lat="38.21351879" lon="-1.12493312">
<ele>630</ele>
<time>2013-06-29T19:39:13Z</time>
</trkpt>
<trkpt lat="38.21337046" lon="-1.12493111">
<ele>634</ele>
<time>2013-06-29T19:39:17Z</time>
</trkpt>
<trkpt lat="38.21324461" lon="-1.12490061">
<ele>636</ele>
<time>2013-06-29T19:39:21Z</time>
</trkpt>
<trkpt lat="38.21338156" lon="-1.12489197">
<ele>636</ele>
<time>2013-06-29T19:39:25Z</time>
</trkpt>
<trkpt lat="38.21372415" lon="-1.12502624">
<ele>638</ele>
<time>2013-06-29T19:39:29Z</time>
</trkpt>
<trkpt lat="38.21406145" lon="-1.12513319">
<ele>638</ele>
<time>2013-06-29T19:39:33Z</time>
</trkpt>
<trkpt lat="38.21412018" lon="-1.12503816">
<ele>637</ele>
<time>2013-06-29T19:39:37Z</time>
</trkpt>
<trkpt lat="38.21388592" lon="-1.12528842">
<ele>639</ele>
<time>2013-06-29T19:39:41Z</time>
</trkpt>
<trkpt lat="38.21366336" lon="-1.12573912">
<ele>642</ele>
<time>2013-06-29T19:39:45Z</time>
</trkpt>
<trkpt lat="38.21339323" lon="-1.12593606">
<ele>642</ele>
<time>2013-06-29T19:39:49Z</time>
</trkpt>
<trkpt lat="38.21327975" lon="-1.12585431">
<ele>640</ele>
<time>2013-06-29T19:39:53Z</time>
</trkpt>
<trkpt lat="38.21334772" lon="-1.1257044">
<ele>637</ele>
<time>2013-06-29T19:39:57Z</time>
</trkpt>
<trkpt lat="38.21361695" lon="-1.12569588">
<ele>633</ele>
<time>2013-06-29T19:40:01Z</time>
</trkpt>
<trkpt lat="38.21387571" lon="-1.12564622">
<ele>627</ele>
<time>2013-06-29T19:40:05Z</time>
</trkpt>
<trkpt lat="38.21384049" lon="-1.12543791">
<ele>631</ele>
<time>2013-06-29T19:40:09Z</time>
</trkpt>
<trkpt lat="38.21384382" lon="-1.12536565">
<ele>632</ele>
<time>2013-06-29T19:40:13Z</time>
</trkpt>
<trkpt lat="38.21376655" lon="-1.12520752">
<ele>632</ele>
<time>2013-06-29T19:40:17Z</time>
</trkpt>
<trkpt lat="38.21378812" lon="-1.12501179">
<ele>630</ele>
<time>2013-06-29T19:40:21Z</time>
</trkpt>
<trkpt lat="38.21373279" lon="-1.12485146">
<ele>630</ele>
<time>2013-06-29T19:40:25Z</time>
</trkpt>
<trkpt lat="38.21367636" lon="-1.12468439">
<ele>632</ele>
<time>2013-06-29T19:40:29Z</time>
</trkpt>
<trkpt lat="38.21362868" lon="-1.12451227">
<ele>633</ele>
<time>2013-06-29T19:40:33Z</time>
</trkpt>
<trkpt lat="38.213607" lon="-1.12433084">
<ele>633</ele>
<time>2013-06-29T19:40:37Z</time>
</trkpt>
<trkpt lat="38.21354662" lon="-1.12415612">
<ele>637</ele>
<time>2013-06-29T19:40:41Z</time>
</trkpt>
<trkpt lat="38.21346013" lon="-1.12400009">
<ele>639</ele>
<time>2013-06-29T19:40:45Z</time>
</trkpt>
<trkpt lat="38.2133709" lon="-1.12384598">
<ele>640</ele>
<time>2013-06-29T19:40:49Z</time>
</trkpt>
<trkpt lat="38.21332282" lon="-1.12366016">
<ele>641</ele>
<time>2013-06-29T19:40:53Z</time>
</trkpt>
<trkpt lat="38.21329852" lon="-1.12344693">
<ele>641</ele>
<time>2013-06-29T19:40:57Z</time>
</trkpt>
<trkpt lat="38.21326757" lon="-1.12321516">
<ele>640</ele>
<time>2013-06-29T19:41:01Z</time>
</trkpt>
<trkpt lat="38.21321195" lon="-1.12301637">
<ele>640</ele>
<time>2013-06-29T19:41:05Z</time>
</trkpt>
<trkpt lat="38.21320959" lon="-1.1227998">
<ele>638</ele>
<time>2013-06-29T19:41:09Z</time>
</trkpt>
<trkpt lat="38.213289" lon="-1.12258295">
<ele>636</ele>
<time>2013-06-29T19:41:13Z</time>
</trkpt>
<trkpt lat="38.21328581" lon="-1.12237784">
<ele>635</ele>
<time>2013-06-29T19:41:17Z</time>
</trkpt>
<trkpt lat="38.21324586" lon="-1.12221694">
<ele>634</ele>
<time>2013-06-29T19:41:21Z</time>
</trkpt>
<trkpt lat="38.21325249" lon="-1.12204406">
<ele>632</ele>
<time>2013-06-29T19:41:25Z</time>
</trkpt>
<trkpt lat="38.21330421" lon="-1.12183568">
<ele>630</ele>
<time>2013-06-29T19:41:29Z</time>
</trkpt>
<trkpt lat="38.21334383" lon="-1.12163516">
<ele>627</ele>
<time>2013-06-29T19:41:33Z</time>
</trkpt>
<trkpt lat="38.21337733" lon="-1.12143302">
<ele>628</ele>
<time>2013-06-29T19:41:37Z</time>
</trkpt>
<trkpt lat="38.21331669" lon="-1.12132204">
<ele>626</ele>
<time>2013-06-29T19:41:41Z</time>
</trkpt>
<trkpt lat="38.2133239" lon="-1.12113974">
<ele>624</ele>
<time>2013-06-29T19:41:45Z</time>
</trkpt>
<trkpt lat="38.21342682" lon="-1.12093654">
<ele>620</ele>
<time>2013-06-29T19:41:49Z</time>
</trkpt>
<trkpt lat="38.21356956" lon="-1.12079772">
<ele>615</ele>
<time>2013-06-29T19:41:53Z</time>
</trkpt>
<trkpt lat="38.21369395" lon="-1.12058796">
<ele>612</ele>
<time>2013-06-29T19:41:57Z</time>
</trkpt>
<trkpt lat="38.21387031" lon="-1.12042663">
<ele>608</ele>
<time>2013-06-29T19:42:01Z</time>
</trkpt>
<trkpt lat="38.21408543" lon="-1.1202658">
<ele>598</ele>
<time>2013-06-29T19:42:05Z</time>
</trkpt>
<trkpt lat="38.21433922" lon="-1.12006694">
<ele>591</ele>
<time>2013-06-29T19:42:09Z</time>
</trkpt>
<trkpt lat="38.21459737" lon="-1.11990328">
<ele>589</ele>
<time>2013-06-29T19:42:13Z</time>
</trkpt>
<trkpt lat="38.21477284" lon="-1.11971657">
<ele>585</ele>
<time>2013-06-29T19:42:17Z</time>
</trkpt>
<trkpt lat="38.21455009" lon="-1.11979302">
<ele>583</ele>
<time>2013-06-29T19:42:21Z</time>
</trkpt>
<trkpt lat="38.21433913" lon="-1.1200753">
<ele>576</ele>
<time>2013-06-29T19:42:25Z</time>
</trkpt>
<trkpt lat="38.21413684" lon="-1.12047983">
<ele>574</ele>
<time>2013-06-29T19:42:29Z</time>
</trkpt>
<trkpt lat="38.21393383" lon="-1.12096615">
<ele>568</ele>
<time>2013-06-29T19:42:33Z</time>
</trkpt>
<trkpt lat="38.2137993" lon="-1.12152257">
<ele>565</ele>
<time>2013-06-29T19:42:37Z</time>
</trkpt>
<trkpt lat="38.2137398" lon="-1.12215773">
<ele>561</ele>
<time>2013-06-29T19:42:41Z</time>
</trkpt>
<trkpt lat="38.21374619" lon="-1.12280447">
<ele>557</ele>
<time>2013-06-29T19:42:45Z</time>
</trkpt>
<trkpt lat="38.21385022" lon="-1.12343163">
<ele>557</ele>
<time>2013-06-29T19:42:49Z</time>
</trkpt>
<trkpt lat="38.21390774" lon="-1.12409378">
<ele>563</ele>
<time>2013-06-29T19:42:53Z</time>
</trkpt>
<trkpt lat="38.21379906" lon="-1.12454013">
<ele>567</ele>
<time>2013-06-29T19:42:57Z</time>
</trkpt>
<trkpt lat="38.2136092" lon="-1.12491588">
<ele>565</ele>
<time>2013-06-29T19:43:01Z</time>
</trkpt>
<trkpt lat="38.21339124" lon="-1.12524963">
<ele>570</ele>
<time>2013-06-29T19:43:05Z</time>
</trkpt>
<trkpt lat="38.21318112" lon="-1.12542396">
<ele>577</ele>
<time>2013-06-29T19:43:09Z</time>
</trkpt>
<trkpt lat="38.21302001" lon="-1.12547275">
<ele>579</ele>
<time>2013-06-29T19:43:13Z</time>
</trkpt>
<trkpt lat="38.21293719" lon="-1.12540469">
<ele>583</ele>
<time>2013-06-29T19:43:17Z</time>
</trkpt>
<trkpt lat="38.2130144" lon="-1.12534006">
<ele>584</ele>
<time>2013-06-29T19:43:21Z</time>
</trkpt>
<trkpt lat="38.21338103" lon="-1.12551725">
<ele>589</ele>
<time>2013-06-29T19:43:25Z</time>
</trkpt>
<trkpt lat="38.21376801" lon="-1.12577642">
<ele>591</ele>
<time>2013-06-29T19:43:29Z</time>
</trkpt>
<trkpt lat="38.21406562" lon="-1.12583201">
<ele>590</ele>
<time>2013-06-29T19:43:33Z</time>
</trkpt>
<trkpt lat="38.21396722" lon="-1.12576746">
<ele>592</ele>
<time>2013-06-29T19:43:37Z</time>
</trkpt>
<trkpt lat="38.21376149" lon="-1.12584213">
<ele>592</ele>
<time>2013-06-29T19:43:41Z</time>
</trkpt>
<trkpt lat="38.21352314" lon="-1.12598854">
<ele>594</ele>
<time>2013-06-29T19:43:45Z</time>
</trkpt>
<trkpt lat="38.21332946" lon="-1.12602804">
<ele>600</ele>
<time>2013-06-29T19:43:49Z</time>
</trkpt>
<trkpt lat="38.21325875" lon="-1.12597725">
<ele>599</ele>
<time>2013-06-29T19:43:53Z</time>
</trkpt>
<trkpt lat="38.21331737" lon="-1.12588486">
<ele>601</ele>
<time>2013-06-29T19:43:57Z</time>
</trkpt>
<trkpt lat="38.21353909" lon="-1.12587314">
<ele>602</ele>
<time>2013-06-29T19:44:01Z</time>
</trkpt>
<trkpt lat="38.21381598" lon="-1.12594533">
<ele>602</ele>
<time>2013-06-29T19:44:05Z</time>
</trkpt>
<trkpt lat="38.21406268" lon="-1.12588018">
<ele>605</ele>
<time>2013-06-29T19:44:09Z</time>
</trkpt>
<trkpt lat="38.21409904" lon="-1.12577532">
<ele>605</ele>
<time>2013-06-29T19:44:13Z</time>
</trkpt>
<trkpt lat="38.21384395" lon="-1.12589681">
<ele>608</ele>
<time>2013-06-29T19:44:17Z</time>
</trkpt>
<trkpt lat="38.21361967" lon="-1.12598536">
<ele>609</ele>
<time>2013-06-29T19:44:21Z</time>
</trkpt>
<trkpt lat="38.21347226" lon="-1.12592648">
<ele>610</ele>
<time>2013-06-29T19:44:25Z</time>
</trkpt>
<trkpt lat="38.21343537" lon="-1.12573888">
<ele>607</ele>
<time>2013-06-29T19:44:29Z</time>
</trkpt>
<trkpt lat="38.2132785" lon="-1.12568728">
<ele>610</ele>
<time>2013-06-29T19:44:33Z</time>
</trkpt>
<trkpt lat="38.21316178" lon="-1.12559406">
<ele>611</ele>
<time>2013-06-29T19:44:37Z</time>
</trkpt>
<trkpt lat="38.21319489" lon="-1.12548103">
<ele>611</ele>
<time>2013-06-29T19:44:41Z</time>
</trkpt>
<trkpt lat="38.21321019" lon="-1.12526892">
<ele>610</ele>
<time>2013-06-29T19:44:45Z</time>
</trkpt>
<trkpt lat="38.21315157" lon="-1.12515997">
<ele>616</ele>
<time>2013-06-29T19:44:49Z</time>
</trkpt>
<trkpt lat="38.21303419" lon="-1.1250692">
<ele>619</ele>
<time>2013-06-29T19:44:53Z</time>
</trkpt>
<trkpt lat="38.21302772" lon="-1.12492294">
<ele>617</ele>
<time>2013-06-29T19:44:57Z</time>
</trkpt>
<trkpt lat="38.21307057" lon="-1.12476766">
<ele>616</ele>
<time>2013-06-29T19:45:01Z</time>
</trkpt>
<trkpt lat="38.21313655" lon="-1.12455581">
<ele>616</ele>
<time>2013-06-29T19:45:05Z</time>
</trkpt>
<trkpt lat="38.21316739" lon="-1.12438294">
<ele>615</ele>
<time>2013-06-29T19:45:09Z</time>
</trkpt>
<trkpt lat="38.21312172" lon="-1.12418279">
<ele>615</ele>
<time>2013-06-29T19:45:13Z</time>
</trkpt>
<trkpt lat="38.2130822" lon="-1.12405496">
<ele>618</ele>
<time>2013-06-29T19:45:17Z</time>
</trkpt>
<trkpt lat="38.21304278" lon="-1.12392312">
<ele>620</ele>
<time>2013-06-29T19:45:21Z</time>
</trkpt>
<trkpt lat="38.21303308" lon="-1.12377924">
<ele>623</ele>
<time>2013-06-29T19:45:25Z</time>
</trkpt>
<trkpt lat="38.2130333" lon="-1.12364097">
<ele>626</ele>
<time>2013-06-29T19:45:29Z</time>
</trkpt>
<trkpt lat="38.21303789" lon="-1.1234954">
<ele>627</ele>
<time>2013-06-29T19:45:33Z</time>
</trkpt>
<trkpt lat="38.2130451" lon="-1.12326044">
<ele>624</ele>
<time>2013-06-29T19:45:37Z</time>
</trkpt>
<trkpt lat="38.21300695" lon="-1.12305374">
<ele>624</ele>
<time>2013-06-29T19:45:41Z</time>
</trkpt>
<trkpt lat="38.21293126" lon="-1.12286731">
<ele>623</ele>
<time>2013-06-29T19:45:45Z</time>
</trkpt>
<trkpt lat="38.21291542" lon="-1.12267644">
<ele>624</ele>
<time>2013-06-29T19:45:49Z</time>
</trkpt>
<trkpt lat="38.21286969" lon="-1.12244728">
<ele>623</ele>
<time>2013-06-29T19:45:53Z</time>
</trkpt>
<trkpt lat="38.21286512" lon="-1.12221245">
<ele>622</ele>
<time>2013-06-29T19:45:57Z</time>
</trkpt>
<trkpt lat="38.21286712" lon="-1.12204699">
<ele>621</ele>
<time>2013-06-29T19:46:01Z</time>
</trkpt>
<trkpt lat="38.21286133" lon="-1.121811">
<ele>618</ele>
<time>2013-06-29T19:46:05Z</time>
</trkpt>
<trkpt lat="38.21288616" lon="-1.12160512">
<ele>618</ele>
<time>2013-06-29T19:46:09Z</time>
</trkpt>
<trkpt lat="38.21286911" lon="-1.12145136">
<ele>617</ele>
<time>2013-06-29T19:46:13Z</time>
</trkpt>
<trkpt lat="38.21283779" lon="-1.12132003">
<ele>617</ele>
<time>2013-06-29T19:46:17Z</time>
</trkpt>
<trkpt lat="38.21281406" lon="-1.12116873">
<ele>616</ele>
<time>2013-06-29T19:46:21Z</time>
</trkpt>
<trkpt lat="38.21281249" lon="-1.12100795">
<ele>613</ele>
<time>2013-06-29T19:46:25Z</time>
</trkpt>
<trkpt lat="38.21279043" lon="-1.12083662">
<ele>611</ele>
<time>2013-06-29T19:46:29Z</time>
</trkpt>
<trkpt lat="38.21281044" lon="-1.12062432">
<ele>610</ele>
<time>2013-06-29T19:46:33Z</time>
</trkpt>
<trkpt lat="38.21282151" lon="-1.12041549">
<ele>605</ele>
<time>2013-06-29T19:46:37Z</time>
</trkpt>
<trkpt lat="38.21280891" lon="-1.12018669">
<ele>601</ele>
<time>2013-06-29T19:46:41Z</time>
</trkpt>
<trkpt lat="38.21279209" lon="-1.11996176">
<ele>597</ele>
<time>2013-06-29T19:46:45Z</time>
</trkpt>
<trkpt lat="38.21275953" lon="-1.11980269">
<ele>598</ele>
<time>2013-06-29T19:46:49Z</time>
</trkpt>
<trkpt lat="38.21271695" lon="-1.11968618">
<ele>599</ele>
<time>2013-06-29T19:46:53Z</time>
</trkpt>
<trkpt lat="38.21259796" lon="-1.11963383">
<ele>599</ele>
<time>2013-06-29T19:46:57Z</time>
</trkpt>
<trkpt lat="38.21261158" lon="-1.11945751">
<ele>595</ele>
<time>2013-06-29T19:47:01Z</time>
</trkpt>
<trkpt lat="38.21276582" lon="-1.11929685">
<ele>591</ele>
<time>2013-06-29T19:47:05Z</time>
</trkpt>
<trkpt lat="38.21297005" lon="-1.11909846">
<ele>588</ele>
<time>2013-06-29T19:47:09Z</time>
</trkpt>
<trkpt lat="38.21308164" lon="-1.11893421">
<ele>587</ele>
<time>2013-06-29T19:47:13Z</time>
</trkpt>
<trkpt lat="38.21315814" lon="-1.11874336">
<ele>583</ele>
<time>2013-06-29T19:47:17Z</time>
</trkpt>
<trkpt lat="38.21336008" lon="-1.11855964">
<ele>577</ele>
<time>2013-06-29T19:47:21Z</time>
</trkpt>
<trkpt lat="38.21362692" lon="-1.1183927">
<ele>571</ele>
<time>2013-06-29T19:47:25Z</time>
</trkpt>
<trkpt lat="38.21391422" lon="-1.1183185">
<ele>566</ele>
<time>2013-06-29T19:47:29Z</time>
</trkpt>
<trkpt lat="38.21425789" lon="-1.11821274">
<ele>563</ele>
<time>2013-06-29T19:47:33Z</time>
</trkpt>
<trkpt lat="38.21462091" lon="-1.11813736">
<ele>557</ele>
<time>2013-06-29T19:47:37Z</time>
</trkpt>
<trkpt lat="38.21498008" lon="-1.11804576">
<ele>552</ele>
<time>2013-06-29T19:47:41Z</time>
</trkpt>
<trkpt lat="38.215344" lon="-1.11795543">
<ele>546</ele>
<time>2013-06-29T19:47:45Z</time>
</trkpt>
<trkpt lat="38.21569462" lon="-1.11788661">
<ele>543</ele>
<time>2013-06-29T19:47:49Z</time>
</trkpt>
<trkpt lat="38.21607308" lon="-1.11783675">
<ele>538</ele>
<time>2013-06-29T19:47:53Z</time>
</trkpt>
<trkpt lat="38.21642543" lon="-1.11778866">
<ele>538</ele>
<time>2013-06-29T19:47:57Z</time>
</trkpt>
<trkpt lat="38.21672802" lon="-1.11776531">
<ele>542</ele>
<time>2013-06-29T19:48:01Z</time>
</trkpt>
<trkpt lat="38.21700352" lon="-1.11767642">
<ele>545</ele>
<time>2013-06-29T19:48:05Z</time>
</trkpt>
<trkpt lat="38.21732857" lon="-1.1176197">
<ele>549</ele>
<time>2013-06-29T19:48:09Z</time>
</trkpt>
<trkpt lat="38.21764401" lon="-1.1174921">
<ele>552</ele>
<time>2013-06-29T19:48:13Z</time>
</trkpt>
<trkpt lat="38.21786933" lon="-1.11743321">
<ele>553</ele>
<time>2013-06-29T19:48:17Z</time>
</trkpt>
<trkpt lat="38.21816486" lon="-1.11738466">
<ele>551</ele>
<time>2013-06-29T19:48:21Z</time>
</trkpt>
<trkpt lat="38.21849086" lon="-1.11735224">
<ele>546</ele>
<time>2013-06-29T19:48:25Z</time>
</trkpt>
<trkpt lat="38.2187962" lon="-1.11731652">
<ele>543</ele>
<time>2013-06-29T19:48:29Z</time>
</trkpt>
<trkpt lat="38.2191007" lon="-1.11721789">
<ele>538</ele>
<time>2013-06-29T19:48:33Z</time>
</trkpt>
<trkpt lat="38.21941588" lon="-1.11713294">
<ele>534</ele>
<time>2013-06-29T19:48:37Z</time>
</trkpt>
<trkpt lat="38.21973445" lon="-1.11708076">
<ele>530</ele>
<time>2013-06-29T19:48:41Z</time>
</trkpt>
<trkpt lat="38.2200617" lon="-1.11702525">
<ele>525</ele>
<time>2013-06-29T19:48:45Z</time>
</trkpt>
<trkpt lat="38.22041569" lon="-1.11696456">
<ele>519</ele>
<time>2013-06-29T19:48:49Z</time>
</trkpt>
<trkpt lat="38.22076209" lon="-1.11692906">
<ele>517</ele>
<time>2013-06-29T19:48:53Z</time>
</trkpt>
<trkpt lat="38.2211268" lon="-1.11693257">
<ele>515</ele>
<time>2013-06-29T19:48:57Z</time>
</trkpt>
<trkpt lat="38.22148791" lon="-1.11689558">
<ele>512</ele>
<time>2013-06-29T19:49:01Z</time>
</trkpt>
<trkpt lat="38.22183775" lon="-1.11687747">
<ele>510</ele>
<time>2013-06-29T19:49:05Z</time>
</trkpt>
<trkpt lat="38.22221618" lon="-1.11685927">
<ele>512</ele>
<time>2013-06-29T19:49:09Z</time>
</trkpt>
<trkpt lat="38.22255671" lon="-1.11683705">
<ele>511</ele>
<time>2013-06-29T19:49:13Z</time>
</trkpt>
<trkpt lat="38.22285879" lon="-1.11679815">
<ele>508</ele>
<time>2013-06-29T19:49:17Z</time>
</trkpt>
<trkpt lat="38.22322143" lon="-1.11671907">
<ele>505</ele>
<time>2013-06-29T19:49:21Z</time>
</trkpt>
<trkpt lat="38.22354254" lon="-1.11672084">
<ele>503</ele>
<time>2013-06-29T19:49:25Z</time>
</trkpt>
<trkpt lat="38.22389368" lon="-1.11665756">
<ele>498</ele>
<time>2013-06-29T19:49:29Z</time>
</trkpt>
<trkpt lat="38.22422522" lon="-1.11665673">
<ele>493</ele>
<time>2013-06-29T19:49:33Z</time>
</trkpt>
<trkpt lat="38.22462097" lon="-1.11665706">
<ele>489</ele>
<time>2013-06-29T19:49:37Z</time>
</trkpt>
<trkpt lat="38.22498005" lon="-1.11666843">
<ele>486</ele>
<time>2013-06-29T19:49:41Z</time>
</trkpt>
<trkpt lat="38.22540302" lon="-1.11670692">
<ele>481</ele>
<time>2013-06-29T19:49:45Z</time>
</trkpt>
<trkpt lat="38.22583481" lon="-1.11677474">
<ele>477</ele>
<time>2013-06-29T19:49:49Z</time>
</trkpt>
<trkpt lat="38.22623413" lon="-1.11686276">
<ele>472</ele>
<time>2013-06-29T19:49:53Z</time>
</trkpt>
<trkpt lat="38.22666096" lon="-1.11703928">
<ele>470</ele>
<time>2013-06-29T19:49:57Z</time>
</trkpt>
<trkpt lat="38.22714274" lon="-1.1172996">
<ele>464</ele>
<time>2013-06-29T19:50:01Z</time>
</trkpt>
<trkpt lat="38.22763527" lon="-1.11758587">
<ele>458</ele>
<time>2013-06-29T19:50:05Z</time>
</trkpt>
<trkpt lat="38.22812602" lon="-1.11791554">
<ele>452</ele>
<time>2013-06-29T19:50:09Z</time>
</trkpt>
<trkpt lat="38.22853174" lon="-1.11829483">
<ele>453</ele>
<time>2013-06-29T19:50:13Z</time>
</trkpt>
<trkpt lat="38.22891003" lon="-1.11860306">
<ele>448</ele>
<time>2013-06-29T19:50:17Z</time>
</trkpt>
<trkpt lat="38.22935352" lon="-1.11888267">
<ele>442</ele>
<time>2013-06-29T19:50:21Z</time>
</trkpt>
<trkpt lat="38.22978119" lon="-1.11911383">
<ele>440</ele>
<time>2013-06-29T19:50:25Z</time>
</trkpt>
<trkpt lat="38.23020305" lon="-1.11931761">
<ele>439</ele>
<time>2013-06-29T19:50:29Z</time>
</trkpt>
<trkpt lat="38.23061929" lon="-1.11952357">
<ele>436</ele>
<time>2013-06-29T19:50:33Z</time>
</trkpt>
<trkpt lat="38.23103181" lon="-1.11986118">
<ele>432</ele>
<time>2013-06-29T19:50:37Z</time>
</trkpt>
<trkpt lat="38.23139646" lon="-1.12019306">
<ele>437</ele>
<time>2013-06-29T19:50:41Z</time>
</trkpt>
<trkpt lat="38.23170969" lon="-1.12024014">
<ele>439</ele>
<time>2013-06-29T19:50:45Z</time>
</trkpt>
<trkpt lat="38.23194043" lon="-1.12019048">
<ele>440</ele>
<time>2013-06-29T19:50:49Z</time>
</trkpt>
<trkpt lat="38.23211717" lon="-1.12005068">
<ele>439</ele>
<time>2013-06-29T19:50:53Z</time>
</trkpt>
<trkpt lat="38.2322368" lon="-1.11990106">
<ele>441</ele>
<time>2013-06-29T19:50:57Z</time>
</trkpt>
<trkpt lat="38.23211239" lon="-1.11994606">
<ele>438</ele>
<time>2013-06-29T19:51:01Z</time>
</trkpt>
<trkpt lat="38.2318944" lon="-1.12037759">
<ele>444</ele>
<time>2013-06-29T19:51:05Z</time>
</trkpt>
<trkpt lat="38.23176578" lon="-1.12039805">
<ele>443</ele>
<time>2013-06-29T19:51:09Z</time>
</trkpt>
<trkpt lat="38.23188051" lon="-1.1201871">
<ele>444</ele>
<time>2013-06-29T19:51:13Z</time>
</trkpt>
<trkpt lat="38.2319935" lon="-1.1200508">
<ele>442</ele>
<time>2013-06-29T19:51:17Z</time>
</trkpt>
<trkpt lat="38.2321004" lon="-1.11984862">
<ele>444</ele>
<time>2013-06-29T19:51:21Z</time>
</trkpt>
<trkpt lat="38.23215603" lon="-1.11964443">
<ele>447</ele>
<time>2013-06-29T19:51:25Z</time>
</trkpt>
<trkpt lat="38.23216978" lon="-1.11947287">
<ele>448</ele>
<time>2013-06-29T19:51:29Z</time>
</trkpt>
<trkpt lat="38.23218129" lon="-1.11928854">
<ele>448</ele>
<time>2013-06-29T19:51:33Z</time>
</trkpt>
<trkpt lat="38.23221547" lon="-1.11905678">
<ele>445</ele>
<time>2013-06-29T19:51:37Z</time>
</trkpt>
<trkpt lat="38.23224461" lon="-1.11886751">
<ele>445</ele>
<time>2013-06-29T19:51:41Z</time>
</trkpt>
<trkpt lat="38.2322953" lon="-1.11867268">
<ele>445</ele>
<time>2013-06-29T19:51:45Z</time>
</trkpt>
<trkpt lat="38.23231678" lon="-1.11848915">
<ele>446</ele>
<time>2013-06-29T19:51:49Z</time>
</trkpt>
<trkpt lat="38.23234931" lon="-1.11827811">
<ele>445</ele>
<time>2013-06-29T19:51:53Z</time>
</trkpt>
<trkpt lat="38.23239957" lon="-1.11804998">
<ele>447</ele>
<time>2013-06-29T19:51:57Z</time>
</trkpt>
<trkpt lat="38.23242686" lon="-1.11782039">
<ele>446</ele>
<time>2013-06-29T19:52:01Z</time>
</trkpt>
<trkpt lat="38.23245102" lon="-1.11756124">
<ele>450</ele>
<time>2013-06-29T19:52:05Z</time>
</trkpt>
<trkpt lat="38.2324949" lon="-1.11737926">
<ele>451</ele>
<time>2013-06-29T19:52:09Z</time>
</trkpt>
<trkpt lat="38.23254523" lon="-1.11714903">
<ele>450</ele>
<time>2013-06-29T19:52:13Z</time>
</trkpt>
<trkpt lat="38.23255821" lon="-1.11693696">
<ele>449</ele>
<time>2013-06-29T19:52:17Z</time>
</trkpt>
<trkpt lat="38.23256765" lon="-1.1166789">
<ele>448</ele>
<time>2013-06-29T19:52:21Z</time>
</trkpt>
<trkpt lat="38.23255699" lon="-1.11642367">
<ele>450</ele>
<time>2013-06-29T19:52:25Z</time>
</trkpt>
<trkpt lat="38.23251873" lon="-1.11619869">
<ele>449</ele>
<time>2013-06-29T19:52:29Z</time>
</trkpt>
<trkpt lat="38.23251007" lon="-1.11591779">
<ele>447</ele>
<time>2013-06-29T19:52:33Z</time>
</trkpt>
<trkpt lat="38.2325136" lon="-1.11557554">
<ele>447</ele>
<time>2013-06-29T19:52:37Z</time>
</trkpt>
<trkpt lat="38.23249748" lon="-1.11530086">
<ele>445</ele>
<time>2013-06-29T19:52:41Z</time>
</trkpt>
<trkpt lat="38.23251203" lon="-1.11500899">
<ele>447</ele>
<time>2013-06-29T19:52:45Z</time>
</trkpt>
<trkpt lat="38.23249864" lon="-1.11477942">
<ele>448</ele>
<time>2013-06-29T19:52:49Z</time>
</trkpt>
<trkpt lat="38.23250603" lon="-1.11457481">
<ele>450</ele>
<time>2013-06-29T19:52:53Z</time>
</trkpt>
<trkpt lat="38.23253855" lon="-1.11432987">
<ele>451</ele>
<time>2013-06-29T19:52:57Z</time>
</trkpt>
<trkpt lat="38.23254538" lon="-1.11411346">
<ele>451</ele>
<time>2013-06-29T19:53:01Z</time>
</trkpt>
<trkpt lat="38.23256579" lon="-1.11387342">
<ele>449</ele>
<time>2013-06-29T19:53:05Z</time>
</trkpt>
<trkpt lat="38.23256566" lon="-1.11363341">
<ele>452</ele>
<time>2013-06-29T19:53:09Z</time>
</trkpt>
<trkpt lat="38.23256749" lon="-1.11340483">
<ele>454</ele>
<time>2013-06-29T19:53:13Z</time>
</trkpt>
<trkpt lat="38.23258249" lon="-1.11319199">
<ele>454</ele>
<time>2013-06-29T19:53:17Z</time>
</trkpt>
<trkpt lat="38.23262567" lon="-1.11301868">
<ele>456</ele>
<time>2013-06-29T19:53:21Z</time>
</trkpt>
<trkpt lat="38.23265082" lon="-1.11285068">
<ele>454</ele>
<time>2013-06-29T19:53:25Z</time>
</trkpt>
<trkpt lat="38.23266949" lon="-1.11272209">
<ele>454</ele>
<time>2013-06-29T19:53:29Z</time>
</trkpt>
<trkpt lat="38.23266656" lon="-1.11260427">
<ele>454</ele>
<time>2013-06-29T19:53:33Z</time>
</trkpt>
<trkpt lat="38.23269933" lon="-1.11248198">
<ele>453</ele>
<time>2013-06-29T19:53:37Z</time>
</trkpt>
<trkpt lat="38.23272413" lon="-1.11232684">
<ele>452</ele>
<time>2013-06-29T19:53:41Z</time>
</trkpt>
<trkpt lat="38.23276745" lon="-1.11215394">
<ele>448</ele>
<time>2013-06-29T19:53:45Z</time>
</trkpt>
<trkpt lat="38.23279881" lon="-1.11199315">
<ele>443</ele>
<time>2013-06-29T19:53:49Z</time>
</trkpt>
<trkpt lat="38.23288614" lon="-1.11179165">
<ele>439</ele>
<time>2013-06-29T19:53:53Z</time>
</trkpt>
<trkpt lat="38.23294959" lon="-1.11161801">
<ele>441</ele>
<time>2013-06-29T19:53:57Z</time>
</trkpt>
<trkpt lat="38.23303198" lon="-1.11140162">
<ele>440</ele>
<time>2013-06-29T19:54:01Z</time>
</trkpt>
<trkpt lat="38.23311429" lon="-1.11124145">
<ele>438</ele>
<time>2013-06-29T19:54:05Z</time>
</trkpt>
<trkpt lat="38.23316021" lon="-1.11109778">
<ele>440</ele>
<time>2013-06-29T19:54:09Z</time>
</trkpt>
<trkpt lat="38.23324217" lon="-1.11091185">
<ele>440</ele>
<time>2013-06-29T19:54:13Z</time>
</trkpt>
<trkpt lat="38.23334262" lon="-1.11071189">
<ele>439</ele>
<time>2013-06-29T19:54:17Z</time>
</trkpt>
<trkpt lat="38.23342105" lon="-1.1105093">
<ele>441</ele>
<time>2013-06-29T19:54:21Z</time>
</trkpt>
<trkpt lat="38.23347351" lon="-1.1102611">
<ele>445</ele>
<time>2013-06-29T19:54:25Z</time>
</trkpt>
<trkpt lat="38.23352567" lon="-1.11007434">
<ele>446</ele>
<time>2013-06-29T19:54:29Z</time>
</trkpt>
<trkpt lat="38.23362455" lon="-1.10987762">
<ele>449</ele>
<time>2013-06-29T19:54:33Z</time>
</trkpt>
<trkpt lat="38.2337383" lon="-1.10963771">
<ele>449</ele>
<time>2013-06-29T19:54:37Z</time>
</trkpt>
<trkpt lat="38.23382648" lon="-1.10931857">
<ele>455</ele>
<time>2013-06-29T19:54:41Z</time>
</trkpt>
<trkpt lat="38.23393425" lon="-1.1091035">
<ele>460</ele>
<time>2013-06-29T19:54:45Z</time>
</trkpt>
<trkpt lat="38.23405499" lon="-1.10894578">
<ele>458</ele>
<time>2013-06-29T19:54:49Z</time>
</trkpt>
<trkpt lat="38.23421117" lon="-1.10870776">
<ele>456</ele>
<time>2013-06-29T19:54:53Z</time>
</trkpt>
<trkpt lat="38.23436259" lon="-1.10852455">
<ele>460</ele>
<time>2013-06-29T19:54:57Z</time>
</trkpt>
<trkpt lat="38.23446634" lon="-1.1083498">
<ele>462</ele>
<time>2013-06-29T19:55:01Z</time>
</trkpt>
<trkpt lat="38.23461338" lon="-1.10820448">
<ele>467</ele>
<time>2013-06-29T19:55:05Z</time>
</trkpt>
<trkpt lat="38.2347971" lon="-1.10803797">
<ele>470</ele>
<time>2013-06-29T19:55:09Z</time>
</trkpt>
<trkpt lat="38.23505356" lon="-1.10789004">
<ele>476</ele>
<time>2013-06-29T19:55:13Z</time>
</trkpt>
<trkpt lat="38.23538514" lon="-1.10775472">
<ele>482</ele>
<time>2013-06-29T19:55:17Z</time>
</trkpt>
<trkpt lat="38.23560656" lon="-1.10757143">
<ele>482</ele>
<time>2013-06-29T19:55:21Z</time>
</trkpt>
<trkpt lat="38.23582734" lon="-1.10738557">
<ele>481</ele>
<time>2013-06-29T19:55:25Z</time>
</trkpt>
<trkpt lat="38.23583074" lon="-1.10714804">
<ele>479</ele>
<time>2013-06-29T19:55:29Z</time>
</trkpt>
<trkpt lat="38.23561354" lon="-1.10729658">
<ele>478</ele>
<time>2013-06-29T19:55:33Z</time>
</trkpt>
<trkpt lat="38.23547898" lon="-1.10769232">
<ele>480</ele>
<time>2013-06-29T19:55:37Z</time>
</trkpt>
<trkpt lat="38.23533226" lon="-1.10811105">
<ele>483</ele>
<time>2013-06-29T19:55:41Z</time>
</trkpt>
<trkpt lat="38.23509766" lon="-1.10839205">
<ele>487</ele>
<time>2013-06-29T19:55:45Z</time>
</trkpt>
<trkpt lat="38.2349721" lon="-1.10878772">
<ele>494</ele>
<time>2013-06-29T19:55:49Z</time>
</trkpt>
<trkpt lat="38.23486695" lon="-1.10922143">
<ele>497</ele>
<time>2013-06-29T19:55:53Z</time>
</trkpt>
<trkpt lat="38.23472337" lon="-1.10942542">
<ele>498</ele>
<time>2013-06-29T19:55:57Z</time>
</trkpt>
<trkpt lat="38.23468191" lon="-1.10925574">
<ele>501</ele>
<time>2013-06-29T19:56:01Z</time>
</trkpt>
<trkpt lat="38.2349593" lon="-1.109004">
<ele>510</ele>
<time>2013-06-29T19:56:05Z</time>
</trkpt>
<trkpt lat="38.23519435" lon="-1.10882518">
<ele>512</ele>
<time>2013-06-29T19:56:09Z</time>
</trkpt>
<trkpt lat="38.23542713" lon="-1.10863615">
<ele>514</ele>
<time>2013-06-29T19:56:13Z</time>
</trkpt>
<trkpt lat="38.23562632" lon="-1.10844089">
<ele>513</ele>
<time>2013-06-29T19:56:17Z</time>
</trkpt>
<trkpt lat="38.23583054" lon="-1.10828512">
<ele>521</ele>
<time>2013-06-29T19:56:21Z</time>
</trkpt>
<trkpt lat="38.23612768" lon="-1.10809774">
<ele>527</ele>
<time>2013-06-29T19:56:25Z</time>
</trkpt>
<trkpt lat="38.23636025" lon="-1.10786828">
<ele>527</ele>
<time>2013-06-29T19:56:29Z</time>
</trkpt>
<trkpt lat="38.23667729" lon="-1.10766384">
<ele>534</ele>
<time>2013-06-29T19:56:33Z</time>
</trkpt>
<trkpt lat="38.23693469" lon="-1.1074245">
<ele>542</ele>
<time>2013-06-29T19:56:37Z</time>
</trkpt>
<trkpt lat="38.23689369" lon="-1.10720333">
<ele>549</ele>
<time>2013-06-29T19:56:41Z</time>
</trkpt>
<trkpt lat="38.23671222" lon="-1.10734623">
<ele>550</ele>
<time>2013-06-29T19:56:45Z</time>
</trkpt>
<trkpt lat="38.23650379" lon="-1.10756156">
<ele>556</ele>
<time>2013-06-29T19:56:49Z</time>
</trkpt>
<trkpt lat="38.23630227" lon="-1.10775394">
<ele>561</ele>
<time>2013-06-29T19:56:53Z</time>
</trkpt>
<trkpt lat="38.23608432" lon="-1.10794551">
<ele>566</ele>
<time>2013-06-29T19:56:57Z</time>
</trkpt>
<trkpt lat="38.23587522" lon="-1.10825199">
<ele>570</ele>
<time>2013-06-29T19:57:01Z</time>
</trkpt>
<trkpt lat="38.23573115" lon="-1.10869171">
<ele>570</ele>
<time>2013-06-29T19:57:05Z</time>
</trkpt>
<trkpt lat="38.23561604" lon="-1.10915693">
<ele>573</ele>
<time>2013-06-29T19:57:09Z</time>
</trkpt>
<trkpt lat="38.23555104" lon="-1.10971718">
<ele>575</ele>
<time>2013-06-29T19:57:13Z</time>
</trkpt>
<trkpt lat="38.2353573" lon="-1.1099316">
<ele>576</ele>
<time>2013-06-29T19:57:17Z</time>
</trkpt>
<trkpt lat="38.23524807" lon="-1.10980539">
<ele>579</ele>
<time>2013-06-29T19:57:21Z</time>
</trkpt>
<trkpt lat="38.23530002" lon="-1.10959789">
<ele>580</ele>
<time>2013-06-29T19:57:25Z</time>
</trkpt>
<trkpt lat="38.23541434" lon="-1.10939613">
<ele>581</ele>
<time>2013-06-29T19:57:29Z</time>
</trkpt>
<trkpt lat="38.23557913" lon="-1.10915399">
<ele>585</ele>
<time>2013-06-29T19:57:33Z</time>
</trkpt>
<trkpt lat="38.23572792" lon="-1.10893205">
<ele>587</ele>
<time>2013-06-29T19:57:37Z</time>
</trkpt>
<trkpt lat="38.23589398" lon="-1.10870641">
<ele>589</ele>
<time>2013-06-29T19:57:41Z</time>
</trkpt>
<trkpt lat="38.2360645" lon="-1.10848565">
<ele>595</ele>
<time>2013-06-29T19:57:45Z</time>
</trkpt>
<trkpt lat="38.23622653" lon="-1.10823427">
<ele>600</ele>
<time>2013-06-29T19:57:49Z</time>
</trkpt>
<trkpt lat="38.23635535" lon="-1.10798606">
<ele>604</ele>
<time>2013-06-29T19:57:53Z</time>
</trkpt>
<trkpt lat="38.23641578" lon="-1.10779017">
<ele>608</ele>
<time>2013-06-29T19:57:57Z</time>
</trkpt>
<trkpt lat="38.23621003" lon="-1.10785383">
<ele>607</ele>
<time>2013-06-29T19:58:01Z</time>
</trkpt>
<trkpt lat="38.23609223" lon="-1.1083377">
<ele>613</ele>
<time>2013-06-29T19:58:05Z</time>
</trkpt>
<trkpt lat="38.23596253" lon="-1.10876282">
<ele>611</ele>
<time>2013-06-29T19:58:09Z</time>
</trkpt>
<trkpt lat="38.23579161" lon="-1.10909069">
<ele>613</ele>
<time>2013-06-29T19:58:13Z</time>
</trkpt>
<trkpt lat="38.23567262" lon="-1.10896978">
<ele>608</ele>
<time>2013-06-29T19:58:17Z</time>
</trkpt>
<trkpt lat="38.23580234" lon="-1.10876155">
<ele>610</ele>
<time>2013-06-29T19:58:21Z</time>
</trkpt>
<trkpt lat="38.23608277" lon="-1.10856974">
<ele>610</ele>
<time>2013-06-29T19:58:25Z</time>
</trkpt>
<trkpt lat="38.23632506" lon="-1.10834289">
<ele>611</ele>
<time>2013-06-29T19:58:29Z</time>
</trkpt>
<trkpt lat="38.23656761" lon="-1.10811074">
<ele>611</ele>
<time>2013-06-29T19:58:33Z</time>
</trkpt>
<trkpt lat="38.23677377" lon="-1.10784953">
<ele>613</ele>
<time>2013-06-29T19:58:37Z</time>
</trkpt>
<trkpt lat="38.23693031" lon="-1.10759984">
<ele>614</ele>
<time>2013-06-29T19:58:41Z</time>
</trkpt>
<trkpt lat="38.2370532" lon="-1.10733819">
<ele>618</ele>
<time>2013-06-29T19:58:45Z</time>
</trkpt>
<trkpt lat="38.2369271" lon="-1.10722838">
<ele>618</ele>
<time>2013-06-29T19:58:49Z</time>
</trkpt>
<trkpt lat="38.23674931" lon="-1.10722894">
<ele>619</ele>
<time>2013-06-29T19:58:53Z</time>
</trkpt>
<trkpt lat="38.23651474" lon="-1.10726622">
<ele>620</ele>
<time>2013-06-29T19:58:57Z</time>
</trkpt>
<trkpt lat="38.23628686" lon="-1.10741255">
<ele>625</ele>
<time>2013-06-29T19:59:01Z</time>
</trkpt>
<trkpt lat="38.2360844" lon="-1.10754682">
<ele>624</ele>
<time>2013-06-29T19:59:05Z</time>
</trkpt>
<trkpt lat="38.23594287" lon="-1.10743835">
<ele>628</ele>
<time>2013-06-29T19:59:09Z</time>
</trkpt>
<trkpt lat="38.23589674" lon="-1.10725215">
<ele>629</ele>
<time>2013-06-29T19:59:13Z</time>
</trkpt>
<trkpt lat="38.23587693" lon="-1.10709214">
<ele>630</ele>
<time>2013-06-29T19:59:17Z</time>
</trkpt>
<trkpt lat="38.23586672" lon="-1.10695412">
<ele>627</ele>
<time>2013-06-29T19:59:21Z</time>
</trkpt>
<trkpt lat="38.23566153" lon="-1.10714337">
<ele>623</ele>
<time>2013-06-29T19:59:25Z</time>
</trkpt>
<trkpt lat="38.23553491" lon="-1.10767399">
<ele>621</ele>
<time>2013-06-29T19:59:29Z</time>
</trkpt>
<trkpt lat="38.23553636" lon="-1.10825351">
<ele>620</ele>
<time>2013-06-29T19:59:33Z</time>
</trkpt>
<trkpt lat="38.23553872" lon="-1.10888367">
<ele>617</ele>
<time>2013-06-29T19:59:37Z</time>
</trkpt>
<trkpt lat="38.23553444" lon="-1.10948841">
<ele>618</ele>
<time>2013-06-29T19:59:41Z</time>
</trkpt>
<trkpt lat="38.23547429" lon="-1.11007305">
<ele>617</ele>
<time>2013-06-29T19:59:45Z</time>
</trkpt>
<trkpt lat="38.2353398" lon="-1.11056298">
<ele>618</ele>
<time>2013-06-29T19:59:49Z</time>
</trkpt>
<trkpt lat="38.23507696" lon="-1.11072503">
<ele>622</ele>
<time>2013-06-29T19:59:53Z</time>
</trkpt>
<trkpt lat="38.2349702" lon="-1.11058128">
<ele>623</ele>
<time>2013-06-29T19:59:57Z</time>
</trkpt>
<trkpt lat="38.23497867" lon="-1.11039279">
<ele>625</ele>
<time>2013-06-29T20:00:01Z</time>
</trkpt>
<trkpt lat="38.23516272" lon="-1.11030133">
<ele>625</ele>
<time>2013-06-29T20:00:05Z</time>
</trkpt>
<trkpt lat="38.23527979" lon="-1.11018262">
<ele>627</ele>
<time>2013-06-29T20:00:09Z</time>
</trkpt>
<trkpt lat="38.23523568" lon="-1.11003368">
<ele>628</ele>
<time>2013-06-29T20:00:13Z</time>
</trkpt>
<trkpt lat="38.23502169" lon="-1.11003045">
<ele>628</ele>
<time>2013-06-29T20:00:17Z</time>
</trkpt>
<trkpt lat="38.23477272" lon="-1.11037289">
<ele>627</ele>
<time>2013-06-29T20:00:21Z</time>
</trkpt>
<trkpt lat="38.23454475" lon="-1.11072777">
<ele>627</ele>
<time>2013-06-29T20:00:25Z</time>
</trkpt>
<trkpt lat="38.23429868" lon="-1.11105835">
<ele>627</ele>
<time>2013-06-29T20:00:29Z</time>
</trkpt>
<trkpt lat="38.23410411" lon="-1.11104249">
<ele>625</ele>
<time>2013-06-29T20:00:33Z</time>
</trkpt>
<trkpt lat="38.23424641" lon="-1.11082435">
<ele>625</ele>
<time>2013-06-29T20:00:37Z</time>
</trkpt>
<trkpt lat="38.23454572" lon="-1.1107615">
<ele>621</ele>
<time>2013-06-29T20:00:41Z</time>
</trkpt>
<trkpt lat="38.23489361" lon="-1.1107104">
<ele>619</ele>
<time>2013-06-29T20:00:45Z</time>
</trkpt>
<trkpt lat="38.23503168" lon="-1.11052208">
<ele>615</ele>
<time>2013-06-29T20:00:49Z</time>
</trkpt>
<trkpt lat="38.23480714" lon="-1.11049623">
<ele>616</ele>
<time>2013-06-29T20:00:53Z</time>
</trkpt>
<trkpt lat="38.23457975" lon="-1.11067637">
<ele>622</ele>
<time>2013-06-29T20:00:57Z</time>
</trkpt>
<trkpt lat="38.23439867" lon="-1.11089879">
<ele>628</ele>
<time>2013-06-29T20:01:01Z</time>
</trkpt>
<trkpt lat="38.23416666" lon="-1.11104327">
<ele>635</ele>
<time>2013-06-29T20:01:05Z</time>
</trkpt>
<trkpt lat="38.23396395" lon="-1.11125076">
<ele>642</ele>
<time>2013-06-29T20:01:09Z</time>
</trkpt>
<trkpt lat="38.23377701" lon="-1.11165935">
<ele>646</ele>
<time>2013-06-29T20:01:13Z</time>
</trkpt>
<trkpt lat="38.2337586" lon="-1.11219339">
<ele>649</ele>
<time>2013-06-29T20:01:17Z</time>
</trkpt>
<trkpt lat="38.23360909" lon="-1.11258414">
<ele>648</ele>
<time>2013-06-29T20:01:21Z</time>
</trkpt>
<trkpt lat="38.23341513" lon="-1.11257782">
<ele>651</ele>
<time>2013-06-29T20:01:25Z</time>
</trkpt>
<trkpt lat="38.23331502" lon="-1.1124878">
<ele>655</ele>
<time>2013-06-29T20:01:29Z</time>
</trkpt>
<trkpt lat="38.23353746" lon="-1.11234966">
<ele>654</ele>
<time>2013-06-29T20:01:33Z</time>
</trkpt>
<trkpt lat="38.23392386" lon="-1.11255456">
<ele>659</ele>
<time>2013-06-29T20:01:37Z</time>
</trkpt>
<trkpt lat="38.23426886" lon="-1.11296945">
<ele>661</ele>
<time>2013-06-29T20:01:41Z</time>
</trkpt>
<trkpt lat="38.23426501" lon="-1.11349996">
<ele>660</ele>
<time>2013-06-29T20:01:45Z</time>
</trkpt>
<trkpt lat="38.23407786" lon="-1.11358334">
<ele>663</ele>
<time>2013-06-29T20:01:49Z</time>
</trkpt>
<trkpt lat="38.23398767" lon="-1.11348294">
<ele>665</ele>
<time>2013-06-29T20:01:53Z</time>
</trkpt>
<trkpt lat="38.23415909" lon="-1.11329187">
<ele>660</ele>
<time>2013-06-29T20:01:57Z</time>
</trkpt>
<trkpt lat="38.23462047" lon="-1.11355649">
<ele>656</ele>
<time>2013-06-29T20:02:01Z</time>
</trkpt>
<trkpt lat="38.23473591" lon="-1.11419627">
<ele>661</ele>
<time>2013-06-29T20:02:05Z</time>
</trkpt>
<trkpt lat="38.2347983" lon="-1.11474884">
<ele>664</ele>
<time>2013-06-29T20:02:09Z</time>
</trkpt>
<trkpt lat="38.23463271" lon="-1.11507858">
<ele>662</ele>
<time>2013-06-29T20:02:13Z</time>
</trkpt>
<trkpt lat="38.23459119" lon="-1.11493581">
<ele>661</ele>
<time>2013-06-29T20:02:17Z</time>
</trkpt>
<trkpt lat="38.23489526" lon="-1.11489039">
<ele>656</ele>
<time>2013-06-29T20:02:21Z</time>
</trkpt>
<trkpt lat="38.23516922" lon="-1.11545609">
<ele>657</ele>
<time>2013-06-29T20:02:25Z</time>
</trkpt>
<trkpt lat="38.23506713" lon="-1.11585306">
<ele>660</ele>
<time>2013-06-29T20:02:29Z</time>
</trkpt>
<trkpt lat="38.23483199" lon="-1.11609807">
<ele>661</ele>
<time>2013-06-29T20:02:33Z</time>
</trkpt>
<trkpt lat="38.23466285" lon="-1.11612113">
<ele>663</ele>
<time>2013-06-29T20:02:37Z</time>
</trkpt>
<trkpt lat="38.23454652" lon="-1.11605618">
<ele>661</ele>
<time>2013-06-29T20:02:41Z</time>
</trkpt>
<trkpt lat="38.23448154" lon="-1.11595788">
<ele>660</ele>
<time>2013-06-29T20:02:45Z</time>
</trkpt>
<trkpt lat="38.23447005" lon="-1.11576379">
<ele>657</ele>
<time>2013-06-29T20:02:49Z</time>
</trkpt>
<trkpt lat="38.23442629" lon="-1.11559984">
<ele>654</ele>
<time>2013-06-29T20:02:53Z</time>
</trkpt>
<trkpt lat="38.23441842" lon="-1.11534808">
<ele>654</ele>
<time>2013-06-29T20:02:57Z</time>
</trkpt>
<trkpt lat="38.23439236" lon="-1.11517412">
<ele>658</ele>
<time>2013-06-29T20:03:01Z</time>
</trkpt>
<trkpt lat="38.23441792" lon="-1.1150877">
<ele>660</ele>
<time>2013-06-29T20:03:05Z</time>
</trkpt>
<trkpt lat="38.23437695" lon="-1.11501221">
<ele>657</ele>
<time>2013-06-29T20:03:09Z</time>
</trkpt>
<trkpt lat="38.23436986" lon="-1.11487742">
<ele>653</ele>
<time>2013-06-29T20:03:13Z</time>
</trkpt>
<trkpt lat="38.23435866" lon="-1.11467325">
<ele>651</ele>
<time>2013-06-29T20:03:17Z</time>
</trkpt>
<trkpt lat="38.23435918" lon="-1.11445541">
<ele>651</ele>
<time>2013-06-29T20:03:21Z</time>
</trkpt>
<trkpt lat="38.23435472" lon="-1.11422053">
<ele>651</ele>
<time>2013-06-29T20:03:25Z</time>
</trkpt>
<trkpt lat="38.23434202" lon="-1.11401267">
<ele>647</ele>
<time>2013-06-29T20:03:29Z</time>
</trkpt>
<trkpt lat="38.23435275" lon="-1.11378463">
<ele>647</ele>
<time>2013-06-29T20:03:33Z</time>
</trkpt>
<trkpt lat="38.23434834" lon="-1.11357937">
<ele>644</ele>
<time>2013-06-29T20:03:37Z</time>
</trkpt>
<trkpt lat="38.23439823" lon="-1.11337701">
<ele>638</ele>
<time>2013-06-29T20:03:41Z</time>
</trkpt>
<trkpt lat="38.23443864" lon="-1.11313762">
<ele>635</ele>
<time>2013-06-29T20:03:45Z</time>
</trkpt>
<trkpt lat="38.23447561" lon="-1.11290081">
<ele>630</ele>
<time>2013-06-29T20:03:49Z</time>
</trkpt>
<trkpt lat="38.23451138" lon="-1.11272489">
<ele>636</ele>
<time>2013-06-29T20:03:53Z</time>
</trkpt>
<trkpt lat="38.23450242" lon="-1.11259133">
<ele>639</ele>
<time>2013-06-29T20:03:57Z</time>
</trkpt>
<trkpt lat="38.23448433" lon="-1.11241781">
<ele>639</ele>
<time>2013-06-29T20:04:01Z</time>
</trkpt>
<trkpt lat="38.23450099" lon="-1.11217147">
<ele>641</ele>
<time>2013-06-29T20:04:05Z</time>
</trkpt>
<trkpt lat="38.2344912" lon="-1.11203759">
<ele>646</ele>
<time>2013-06-29T20:04:09Z</time>
</trkpt>
<trkpt lat="38.23447833" lon="-1.11188662">
<ele>651</ele>
<time>2013-06-29T20:04:13Z</time>
</trkpt>
<trkpt lat="38.23446043" lon="-1.11175418">
<ele>649</ele>
<time>2013-06-29T20:04:17Z</time>
</trkpt>
<trkpt lat="38.23443753" lon="-1.11154322">
<ele>649</ele>
<time>2013-06-29T20:04:21Z</time>
</trkpt>
<trkpt lat="38.23449848" lon="-1.11134317">
<ele>649</ele>
<time>2013-06-29T20:04:25Z</time>
</trkpt>
<trkpt lat="38.23453565" lon="-1.11113632">
<ele>649</ele>
<time>2013-06-29T20:04:29Z</time>
</trkpt>
<trkpt lat="38.23458571" lon="-1.11095429">
<ele>656</ele>
<time>2013-06-29T20:04:33Z</time>
</trkpt>
<trkpt lat="38.23459659" lon="-1.11083906">
<ele>657</ele>
<time>2013-06-29T20:04:37Z</time>
</trkpt>
<trkpt lat="38.23461003" lon="-1.11066028">
<ele>660</ele>
<time>2013-06-29T20:04:41Z</time>
</trkpt>
<trkpt lat="38.23457203" lon="-1.11051862">
<ele>667</ele>
<time>2013-06-29T20:04:45Z</time>
</trkpt>
<trkpt lat="38.23458698" lon="-1.11037517">
<ele>669</ele>
<time>2013-06-29T20:04:49Z</time>
</trkpt>
<trkpt lat="38.23453136" lon="-1.11025385">
<ele>672</ele>
<time>2013-06-29T20:04:53Z</time>
</trkpt>
<trkpt lat="38.2343315" lon="-1.11040727">
<ele>669</ele>
<time>2013-06-29T20:04:57Z</time>
</trkpt>
<trkpt lat="38.23426908" lon="-1.1110282">
<ele>667</ele>
<time>2013-06-29T20:05:01Z</time>
</trkpt>
<trkpt lat="38.23462354" lon="-1.11146216">
<ele>664</ele>
<time>2013-06-29T20:05:05Z</time>
</trkpt>
<trkpt lat="38.2349141" lon="-1.1113441">
<ele>667</ele>
<time>2013-06-29T20:05:09Z</time>
</trkpt>
<trkpt lat="38.23498884" lon="-1.111177">
<ele>668</ele>
<time>2013-06-29T20:05:13Z</time>
</trkpt>
<trkpt lat="38.23502306" lon="-1.11096757">
<ele>670</ele>
<time>2013-06-29T20:05:17Z</time>
</trkpt>
<trkpt lat="38.2350382" lon="-1.11077745">
<ele>668</ele>
<time>2013-06-29T20:05:21Z</time>
</trkpt>
<trkpt lat="38.23502174" lon="-1.11059986">
<ele>668</ele>
<time>2013-06-29T20:05:25Z</time>
</trkpt>
<trkpt lat="38.2350128" lon="-1.11042862">
<ele>670</ele>
<time>2013-06-29T20:05:29Z</time>
</trkpt>
<trkpt lat="38.23502948" lon="-1.11026736">
<ele>672</ele>
<time>2013-06-29T20:05:33Z</time>
</trkpt>
<trkpt lat="38.23500629" lon="-1.11010267">
<ele>672</ele>
<time>2013-06-29T20:05:37Z</time>
</trkpt>
<trkpt lat="38.23497031" lon="-1.10995303">
<ele>674</ele>
<time>2013-06-29T20:05:41Z</time>
</trkpt>
<trkpt lat="38.23497777" lon="-1.10973784">
<ele>674</ele>
<time>2013-06-29T20:05:45Z</time>
</trkpt>
<trkpt lat="38.23501721" lon="-1.1095649">
<ele>676</ele>
<time>2013-06-29T20:05:49Z</time>
</trkpt>
<trkpt lat="38.23517458" lon="-1.10935495">
<ele>676</ele>
<time>2013-06-29T20:05:53Z</time>
</trkpt>
<trkpt lat="38.23539247" lon="-1.1091566">
<ele>677</ele>
<time>2013-06-29T20:05:57Z</time>
</trkpt>
<trkpt lat="38.2355408" lon="-1.10891703">
<ele>679</ele>
<time>2013-06-29T20:06:01Z</time>
</trkpt>
<trkpt lat="38.23558977" lon="-1.10863936">
<ele>682</ele>
<time>2013-06-29T20:06:05Z</time>
</trkpt>
<trkpt lat="38.23561168" lon="-1.10839791">
<ele>688</ele>
<time>2013-06-29T20:06:09Z</time>
</trkpt>
<trkpt lat="38.23559468" lon="-1.10822316">
<ele>696</ele>
<time>2013-06-29T20:06:13Z</time>
</trkpt>
<trkpt lat="38.23556478" lon="-1.10805102">
<ele>704</ele>
<time>2013-06-29T20:06:17Z</time>
</trkpt>
<trkpt lat="38.23553754" lon="-1.10785256">
<ele>712</ele>
<time>2013-06-29T20:06:21Z</time>
</trkpt>
<trkpt lat="38.23551174" lon="-1.10765499">
<ele>721</ele>
<time>2013-06-29T20:06:25Z</time>
</trkpt>
<trkpt lat="38.23542555" lon="-1.10751113">
<ele>729</ele>
<time>2013-06-29T20:06:29Z</time>
</trkpt>
<trkpt lat="38.23539681" lon="-1.10726594">
<ele>732</ele>
<time>2013-06-29T20:06:33Z</time>
</trkpt>
<trkpt lat="38.23534006" lon="-1.10712603">
<ele>732</ele>
<time>2013-06-29T20:06:37Z</time>
</trkpt>
<trkpt lat="38.23504923" lon="-1.1072372">
<ele>728</ele>
<time>2013-06-29T20:06:41Z</time>
</trkpt>
<trkpt lat="38.23504439" lon="-1.10784508">
<ele>728</ele>
<time>2013-06-29T20:06:45Z</time>
</trkpt>
<trkpt lat="38.23533404" lon="-1.10821309">
<ele>726</ele>
<time>2013-06-29T20:06:49Z</time>
</trkpt>
<trkpt lat="38.2356729" lon="-1.10819375">
<ele>726</ele>
<time>2013-06-29T20:06:53Z</time>
</trkpt>
<trkpt lat="38.23561383" lon="-1.10801899">
<ele>729</ele>
<time>2013-06-29T20:06:57Z</time>
</trkpt>
<trkpt lat="38.23538238" lon="-1.10823794">
<ele>731</ele>
<time>2013-06-29T20:07:01Z</time>
</trkpt>
<trkpt lat="38.23514279" lon="-1.10851055">
<ele>732</ele>
<time>2013-06-29T20:07:05Z</time>
</trkpt>
<trkpt lat="38.23490892" lon="-1.10886821">
<ele>734</ele>
<time>2013-06-29T20:07:09Z</time>
</trkpt>
<trkpt lat="38.23468592" lon="-1.10925845">
<ele>738</ele>
<time>2013-06-29T20:07:13Z</time>
</trkpt>
<trkpt lat="38.23449405" lon="-1.10970148">
<ele>738</ele>
<time>2013-06-29T20:07:17Z</time>
</trkpt>
<trkpt lat="38.23439536" lon="-1.1102527">
<ele>742</ele>
<time>2013-06-29T20:07:21Z</time>
</trkpt>
<trkpt lat="38.23428652" lon="-1.11076431">
<ele>742</ele>
<time>2013-06-29T20:07:25Z</time>
</trkpt>
<trkpt lat="38.23414223" lon="-1.11128215">
<ele>743</ele>
<time>2013-06-29T20:07:29Z</time>
</trkpt>
<trkpt lat="38.23402629" lon="-1.11181199">
<ele>744</ele>
<time>2013-06-29T20:07:33Z</time>
</trkpt>
<trkpt lat="38.23391891" lon="-1.11231673">
<ele>741</ele>
<time>2013-06-29T20:07:37Z</time>
</trkpt>
<trkpt lat="38.23382976" lon="-1.11289204">
<ele>736</ele>
<time>2013-06-29T20:07:41Z</time>
</trkpt>
<trkpt lat="38.23377311" lon="-1.11343858">
<ele>735</ele>
<time>2013-06-29T20:07:45Z</time>
</trkpt>
<trkpt lat="38.23368631" lon="-1.11400467">
<ele>732</ele>
<time>2013-06-29T20:07:49Z</time>
</trkpt>
<trkpt lat="38.23362503" lon="-1.11459066">
<ele>731</ele>
<time>2013-06-29T20:07:53Z</time>
</trkpt>
<trkpt lat="38.23358591" lon="-1.115173">
<ele>727</ele>
<time>2013-06-29T20:07:57Z</time>
</trkpt>
<trkpt lat="38.23356806" lon="-1.11576594">
<ele>725</ele>
<time>2013-06-29T20:08:01Z</time>
</trkpt>
<trkpt lat="38.23356456" lon="-1.11637673">
<ele>722</ele>
<time>2013-06-29T20:08:05Z</time>
</trkpt>
<trkpt lat="38.23357133" lon="-1.11697245">
<ele>718</ele>
<time>2013-06-29T20:08:09Z</time>
</trkpt>
<trkpt lat="38.2335703" lon="-1.11761109">
<ele>712</ele>
<time>2013-06-29T20:08:13Z</time>
</trkpt>
<trkpt lat="38.23356854" lon="-1.11825334">
<ele>708</ele>
<time>2013-06-29T20:08:17Z</time>
</trkpt>
<trkpt lat="38.2335872" lon="-1.11889671">
<ele>700</ele>
<time>2013-06-29T20:08:21Z</time>
</trkpt>
<trkpt lat="38.23362236" lon="-1.11952353">
<ele>697</ele>
<time>2013-06-29T20:08:25Z</time>
</trkpt>
<trkpt lat="38.23367243" lon="-1.12013801">
<ele>691</ele>
<time>2013-06-29T20:08:29Z</time>
</trkpt>
<trkpt lat="38.2337386" lon="-1.12076037">
<ele>685</ele>
<time>2013-06-29T20:08:33Z</time>
</trkpt>
<trkpt lat="38.23382808" lon="-1.12140003">
<ele>681</ele>
<time>2013-06-29T20:08:37Z</time>
</trkpt>
<trkpt lat="38.23395478" lon="-1.12201572">
<ele>676</ele>
<time>2013-06-29T20:08:41Z</time>
</trkpt>
<trkpt lat="38.23407358" lon="-1.12262659">
<ele>669</ele>
<time>2013-06-29T20:08:45Z</time>
</trkpt>
<trkpt lat="38.23424279" lon="-1.12326046">
<ele>661</ele>
<time>2013-06-29T20:08:49Z</time>
</trkpt>
<trkpt lat="38.23443416" lon="-1.12385273">
<ele>654</ele>
<time>2013-06-29T20:08:53Z</time>
</trkpt>
<trkpt lat="38.23466968" lon="-1.12447804">
<ele>650</ele>
<time>2013-06-29T20:08:57Z</time>
</trkpt>
<trkpt lat="38.23493754" lon="-1.12505094">
<ele>647</ele>
<time>2013-06-29T20:09:01Z</time>
</trkpt>
<trkpt lat="38.23518275" lon="-1.12558475">
<ele>644</ele>
<time>2013-06-29T20:09:05Z</time>
</trkpt>
<trkpt lat="38.23544878" lon="-1.12612769">
<ele>640</ele>
<time>2013-06-29T20:09:09Z</time>
</trkpt>
<trkpt lat="38.23568103" lon="-1.12669911">
<ele>634</ele>
<time>2013-06-29T20:09:13Z</time>
</trkpt>
<trkpt lat="38.23591459" lon="-1.12727754">
<ele>628</ele>
<time>2013-06-29T20:09:17Z</time>
</trkpt>
<trkpt lat="38.23619017" lon="-1.127843">
<ele>625</ele>
<time>2013-06-29T20:09:21Z</time>
</trkpt>
<trkpt lat="38.23646705" lon="-1.12839203">
<ele>625</ele>
<time>2013-06-29T20:09:25Z</time>
</trkpt>
<trkpt lat="38.23676359" lon="-1.12893041">
<ele>623</ele>
<time>2013-06-29T20:09:29Z</time>
</trkpt>
<trkpt lat="38.23708166" lon="-1.12939554">
<ele>622</ele>
<time>2013-06-29T20:09:33Z</time>
</trkpt>
<trkpt lat="38.23741305" lon="-1.12986429">
<ele>617</ele>
<time>2013-06-29T20:09:37Z</time>
</trkpt>
<trkpt lat="38.23772211" lon="-1.13031644">
<ele>613</ele>
<time>2013-06-29T20:09:41Z</time>
</trkpt>
<trkpt lat="38.23804837" lon="-1.13077001">
<ele>611</ele>
<time>2013-06-29T20:09:45Z</time>
</trkpt>
<trkpt lat="38.23835702" lon="-1.13111904">
<ele>609</ele>
<time>2013-06-29T20:09:49Z</time>
</trkpt>
<trkpt lat="38.23861969" lon="-1.13165142">
<ele>605</ele>
<time>2013-06-29T20:09:53Z</time>
</trkpt>
<trkpt lat="38.2386344" lon="-1.13220722">
<ele>608</ele>
<time>2013-06-29T20:09:57Z</time>
</trkpt>
<trkpt lat="38.23857858" lon="-1.13267066">
<ele>613</ele>
<time>2013-06-29T20:10:01Z</time>
</trkpt>
<trkpt lat="38.23844364" lon="-1.13307443">
<ele>619</ele>
<time>2013-06-29T20:10:05Z</time>
</trkpt>
<trkpt lat="38.23828075" lon="-1.13338457">
<ele>624</ele>
<time>2013-06-29T20:10:09Z</time>
</trkpt>
<trkpt lat="38.23810613" lon="-1.13369646">
<ele>631</ele>
<time>2013-06-29T20:10:13Z</time>
</trkpt>
<trkpt lat="38.23787619" lon="-1.13398448">
<ele>633</ele>
<time>2013-06-29T20:10:17Z</time>
</trkpt>
<trkpt lat="38.23763494" lon="-1.1342857">
<ele>638</ele>
<time>2013-06-29T20:10:21Z</time>
</trkpt>
<trkpt lat="38.23740065" lon="-1.13438306">
<ele>636</ele>
<time>2013-06-29T20:10:25Z</time>
</trkpt>
<trkpt lat="38.23742301" lon="-1.13409969">
<ele>635</ele>
<time>2013-06-29T20:10:29Z</time>
</trkpt>
<trkpt lat="38.23770403" lon="-1.13403229">
<ele>638</ele>
<time>2013-06-29T20:10:33Z</time>
</trkpt>
<trkpt lat="38.23794004" lon="-1.13383852">
<ele>640</ele>
<time>2013-06-29T20:10:37Z</time>
</trkpt>
<trkpt lat="38.23814973" lon="-1.13366531">
<ele>647</ele>
<time>2013-06-29T20:10:41Z</time>
</trkpt>
<trkpt lat="38.23832767" lon="-1.13343306">
<ele>651</ele>
<time>2013-06-29T20:10:45Z</time>
</trkpt>
<trkpt lat="38.23845762" lon="-1.13322364">
<ele>653</ele>
<time>2013-06-29T20:10:49Z</time>
</trkpt>
<trkpt lat="38.23848708" lon="-1.13297097">
<ele>655</ele>
<time>2013-06-29T20:10:53Z</time>
</trkpt>
<trkpt lat="38.2382649" lon="-1.13310933">
<ele>655</ele>
<time>2013-06-29T20:10:57Z</time>
</trkpt>
<trkpt lat="38.23816198" lon="-1.13356224">
<ele>660</ele>
<time>2013-06-29T20:11:01Z</time>
</trkpt>
<trkpt lat="38.2380416" lon="-1.13399269">
<ele>663</ele>
<time>2013-06-29T20:11:05Z</time>
</trkpt>
<trkpt lat="38.23793163" lon="-1.13440105">
<ele>665</ele>
<time>2013-06-29T20:11:09Z</time>
</trkpt>
<trkpt lat="38.23774403" lon="-1.13474405">
<ele>667</ele>
<time>2013-06-29T20:11:13Z</time>
</trkpt>
<trkpt lat="38.23759355" lon="-1.1351471">
<ele>669</ele>
<time>2013-06-29T20:11:17Z</time>
</trkpt>
<trkpt lat="38.23743102" lon="-1.13549633">
<ele>675</ele>
<time>2013-06-29T20:11:21Z</time>
</trkpt>
<trkpt lat="38.23737346" lon="-1.13593254">
<ele>677</ele>
<time>2013-06-29T20:11:25Z</time>
</trkpt>
<trkpt lat="38.23713902" lon="-1.13602745">
<ele>679</ele>
<time>2013-06-29T20:11:29Z</time>
</trkpt>
<trkpt lat="38.23704031" lon="-1.13577274">
<ele>686</ele>
<time>2013-06-29T20:11:33Z</time>
</trkpt>
<trkpt lat="38.2371773" lon="-1.13550677">
<ele>690</ele>
<time>2013-06-29T20:11:37Z</time>
</trkpt>
<trkpt lat="38.23726557" lon="-1.13523034">
<ele>694</ele>
<time>2013-06-29T20:11:41Z</time>
</trkpt>
<trkpt lat="38.23736506" lon="-1.13498206">
<ele>696</ele>
<time>2013-06-29T20:11:45Z</time>
</trkpt>
<trkpt lat="38.23743432" lon="-1.1347371">
<ele>699</ele>
<time>2013-06-29T20:11:49Z</time>
</trkpt>
<trkpt lat="38.23747931" lon="-1.13446854">
<ele>701</ele>
<time>2013-06-29T20:11:53Z</time>
</trkpt>
<trkpt lat="38.23754021" lon="-1.13422145">
<ele>703</ele>
<time>2013-06-29T20:11:57Z</time>
</trkpt>
<trkpt lat="38.23766676" lon="-1.13399182">
<ele>703</ele>
<time>2013-06-29T20:12:01Z</time>
</trkpt>
<trkpt lat="38.23776431" lon="-1.1337212">
<ele>708</ele>
<time>2013-06-29T20:12:05Z</time>
</trkpt>
<trkpt lat="38.23791289" lon="-1.13349734">
<ele>711</ele>
<time>2013-06-29T20:12:09Z</time>
</trkpt>
<trkpt lat="38.23804248" lon="-1.13326934">
<ele>714</ele>
<time>2013-06-29T20:12:13Z</time>
</trkpt>
<trkpt lat="38.23787658" lon="-1.13323536">
<ele>710</ele>
<time>2013-06-29T20:12:17Z</time>
</trkpt>
<trkpt lat="38.23771776" lon="-1.13376048">
<ele>712</ele>
<time>2013-06-29T20:12:21Z</time>
</trkpt>
<trkpt lat="38.23765386" lon="-1.13427638">
<ele>715</ele>
<time>2013-06-29T20:12:25Z</time>
</trkpt>
<trkpt lat="38.23757063" lon="-1.13476784">
<ele>719</ele>
<time>2013-06-29T20:12:29Z</time>
</trkpt>
<trkpt lat="38.2375617" lon="-1.13529084">
<ele>724</ele>
<time>2013-06-29T20:12:33Z</time>
</trkpt>
<trkpt lat="38.23755925" lon="-1.1357863">
<ele>722</ele>
<time>2013-06-29T20:12:37Z</time>
</trkpt>
<trkpt lat="38.23748127" lon="-1.13632213">
<ele>723</ele>
<time>2013-06-29T20:12:41Z</time>
</trkpt>
<trkpt lat="38.23736003" lon="-1.13681106">
<ele>726</ele>
<time>2013-06-29T20:12:45Z</time>
</trkpt>
<trkpt lat="38.23722838" lon="-1.13724415">
<ele>727</ele>
<time>2013-06-29T20:12:49Z</time>
</trkpt>
<trkpt lat="38.23701703" lon="-1.13721387">
<ele>728</ele>
<time>2013-06-29T20:12:53Z</time>
</trkpt>
<trkpt lat="38.23710479" lon="-1.13689941">
<ele>735</ele>
<time>2013-06-29T20:12:57Z</time>
</trkpt>
<trkpt lat="38.23714693" lon="-1.13661339">
<ele>738</ele>
<time>2013-06-29T20:13:01Z</time>
</trkpt>
<trkpt lat="38.23715964" lon="-1.13634062">
<ele>748</ele>
<time>2013-06-29T20:13:05Z</time>
</trkpt>
<trkpt lat="38.23703167" lon="-1.13617504">
<ele>753</ele>
<time>2013-06-29T20:13:09Z</time>
</trkpt>
<trkpt lat="38.23675482" lon="-1.13637318">
<ele>756</ele>
<time>2013-06-29T20:13:13Z</time>
</trkpt>
<trkpt lat="38.23660164" lon="-1.13680988">
<ele>755</ele>
<time>2013-06-29T20:13:17Z</time>
</trkpt>
<trkpt lat="38.23643668" lon="-1.13734971">
<ele>755</ele>
<time>2013-06-29T20:13:21Z</time>
</trkpt>
<trkpt lat="38.23634212" lon="-1.13787993">
<ele>755</ele>
<time>2013-06-29T20:13:25Z</time>
</trkpt>
<trkpt lat="38.23623606" lon="-1.13843637">
<ele>757</ele>
<time>2013-06-29T20:13:29Z</time>
</trkpt>
<trkpt lat="38.23613578" lon="-1.13901208">
<ele>756</ele>
<time>2013-06-29T20:13:33Z</time>
</trkpt>
<trkpt lat="38.23607806" lon="-1.13954285">
<ele>755</ele>
<time>2013-06-29T20:13:37Z</time>
</trkpt>
<trkpt lat="38.23601763" lon="-1.14011064">
<ele>754</ele>
<time>2013-06-29T20:13:41Z</time>
</trkpt>
<trkpt lat="38.23596437" lon="-1.14067617">
<ele>755</ele>
<time>2013-06-29T20:13:45Z</time>
</trkpt>
<trkpt lat="38.23591192" lon="-1.14125187">
<ele>753</ele>
<time>2013-06-29T20:13:49Z</time>
</trkpt>
<trkpt lat="38.23583269" lon="-1.14180386">
<ele>750</ele>
<time>2013-06-29T20:13:53Z</time>
</trkpt>
<trkpt lat="38.23573624" lon="-1.14233825">
<ele>748</ele>
<time>2013-06-29T20:13:57Z</time>
</trkpt>
<trkpt lat="38.23562446" lon="-1.1428597">
<ele>746</ele>
<time>2013-06-29T20:14:01Z</time>
</trkpt>
<trkpt lat="38.23548582" lon="-1.14338287">
<ele>745</ele>
<time>2013-06-29T20:14:05Z</time>
</trkpt>
<trkpt lat="38.23533129" lon="-1.14388584">
<ele>744</ele>
<time>2013-06-29T20:14:09Z</time>
</trkpt>
<trkpt lat="38.23514278" lon="-1.14432832">
<ele>745</ele>
<time>2013-06-29T20:14:13Z</time>
</trkpt>
<trkpt lat="38.23491096" lon="-1.14473684">
<ele>745</ele>
<time>2013-06-29T20:14:17Z</time>
</trkpt>
<trkpt lat="38.23465111" lon="-1.14508899">
<ele>747</ele>
<time>2013-06-29T20:14:21Z</time>
</trkpt>
<trkpt lat="38.23439946" lon="-1.14546349">
<ele>748</ele>
<time>2013-06-29T20:14:25Z</time>
</trkpt>
<trkpt lat="38.23413659" lon="-1.14587465">
<ele>750</ele>
<time>2013-06-29T20:14:29Z</time>
</trkpt>
<trkpt lat="38.23387185" lon="-1.14629104">
<ele>753</ele>
<time>2013-06-29T20:14:33Z</time>
</trkpt>
<trkpt lat="38.23365465" lon="-1.14679346">
<ele>757</ele>
<time>2013-06-29T20:14:37Z</time>
</trkpt>
<trkpt lat="38.2334042" lon="-1.14725756">
<ele>763</ele>
<time>2013-06-29T20:14:41Z</time>
</trkpt>
<trkpt lat="38.23308532" lon="-1.14748124">
<ele>774</ele>
<time>2013-06-29T20:14:45Z</time>
</trkpt>
<trkpt lat="38.2328344" lon="-1.14768547">
<ele>785</ele>
<time>2013-06-29T20:14:49Z</time>
</trkpt>
<trkpt lat="38.2325514" lon="-1.14789919">
<ele>795</ele>
<time>2013-06-29T20:14:53Z</time>
</trkpt>
<trkpt lat="38.23231579" lon="-1.14810274">
<ele>805</ele>
<time>2013-06-29T20:14:57Z</time>
</trkpt>
<trkpt lat="38.23208379" lon="-1.14832023">
<ele>816</ele>
<time>2013-06-29T20:15:01Z</time>
</trkpt>
<trkpt lat="38.23185687" lon="-1.14855389">
<ele>823</ele>
<time>2013-06-29T20:15:05Z</time>
</trkpt>
<trkpt lat="38.23170374" lon="-1.1485496">
<ele>827</ele>
<time>2013-06-29T20:15:09Z</time>
</trkpt>
<trkpt lat="38.23192694" lon="-1.14837813">
<ele>830</ele>
<time>2013-06-29T20:15:13Z</time>
</trkpt>
<trkpt lat="38.2321523" lon="-1.14819244">
<ele>835</ele>
<time>2013-06-29T20:15:17Z</time>
</trkpt>
<trkpt lat="38.2323536" lon="-1.14797702">
<ele>845</ele>
<time>2013-06-29T20:15:21Z</time>
</trkpt>
<trkpt lat="38.23256458" lon="-1.14773207">
<ele>855</ele>
<time>2013-06-29T20:15:25Z</time>
</trkpt>
<trkpt lat="38.23273275" lon="-1.14748677">
<ele>863</ele>
<time>2013-06-29T20:15:29Z</time>
</trkpt>
<trkpt lat="38.23286568" lon="-1.14724852">
<ele>870</ele>
<time>2013-06-29T20:15:33Z</time>
</trkpt>
<trkpt lat="38.23303658" lon="-1.14700076">
<ele>878</ele>
<time>2013-06-29T20:15:37Z</time>
</trkpt>
<trkpt lat="38.23321196" lon="-1.14675926">
<ele>887</ele>
<time>2013-06-29T20:15:41Z</time>
</trkpt>
<trkpt lat="38.23334484" lon="-1.14652144">
<ele>897</ele>
<time>2013-06-29T20:15:45Z</time>
</trkpt>
<trkpt lat="38.23349434" lon="-1.14629253">
<ele>903</ele>
<time>2013-06-29T20:15:49Z</time>
</trkpt>
<trkpt lat="38.23366629" lon="-1.14606045">
<ele>908</ele>
<time>2013-06-29T20:15:53Z</time>
</trkpt>
<trkpt lat="38.23388712" lon="-1.14584828">
<ele>914</ele>
<time>2013-06-29T20:15:57Z</time>
</trkpt>
<trkpt lat="38.23406389" lon="-1.14564381">
<ele>919</ele>
<time>2013-06-29T20:16:01Z</time>
</trkpt>
<trkpt lat="38.23431934" lon="-1.14549487">
<ele>920</ele>
<time>2013-06-29T20:16:05Z</time>
</trkpt>
<trkpt lat="38.23447004" lon="-1.14529756">
<ele>918</ele>
<time>2013-06-29T20:16:09Z</time>
</trkpt>
<trkpt lat="38.23423377" lon="-1.14526606">
<ele>917</ele>
<time>2013-06-29T20:16:13Z</time>
</trkpt>
<trkpt lat="38.23398702" lon="-1.14562381">
<ele>918</ele>
<time>2013-06-29T20:16:17Z</time>
</trkpt>
<trkpt lat="38.23374842" lon="-1.14604362">
<ele>917</ele>
<time>2013-06-29T20:16:21Z</time>
</trkpt>
<trkpt lat="38.23348642" lon="-1.14637579">
<ele>926</ele>
<time>2013-06-29T20:16:25Z</time>
</trkpt>
<trkpt lat="38.23319462" lon="-1.14660876">
<ele>933</ele>
<time>2013-06-29T20:16:29Z</time>
</trkpt>
<trkpt lat="38.23291304" lon="-1.14693507">
<ele>940</ele>
<time>2013-06-29T20:16:33Z</time>
</trkpt>
<trkpt lat="38.2326891" lon="-1.14708439">
<ele>941</ele>
<time>2013-06-29T20:16:37Z</time>
</trkpt>
<trkpt lat="38.23261793" lon="-1.14687994">
<ele>941</ele>
<time>2013-06-29T20:16:41Z</time>
</trkpt>
<trkpt lat="38.23267231" lon="-1.14671104">
<ele>942</ele>
<time>2013-06-29T20:16:45Z</time>
</trkpt>
<trkpt lat="38.23281318" lon="-1.14650628">
<ele>944</ele>
<time>2013-06-29T20:16:49Z</time>
</trkpt>
<trkpt lat="38.23295157" lon="-1.14629839">
<ele>944</ele>
<time>2013-06-29T20:16:53Z</time>
</trkpt>
<trkpt lat="38.23312917" lon="-1.14611311">
<ele>949</ele>
<time>2013-06-29T20:16:57Z</time>
</trkpt>
<trkpt lat="38.23328319" lon="-1.1459302">
<ele>950</ele>
<time>2013-06-29T20:17:01Z</time>
</trkpt>
<trkpt lat="38.23350353" lon="-1.14572">
<ele>953</ele>
<time>2013-06-29T20:17:05Z</time>
</trkpt>
<trkpt lat="38.23377122" lon="-1.14561728">
<ele>951</ele>
<time>2013-06-29T20:17:09Z</time>
</trkpt>
<trkpt lat="38.2340029" lon="-1.14541126">
<ele>949</ele>
<time>2013-06-29T20:17:13Z</time>
</trkpt>
<trkpt lat="38.23421254" lon="-1.14518978">
<ele>950</ele>
<time>2013-06-29T20:17:17Z</time>
</trkpt>
<trkpt lat="38.23449236" lon="-1.14503688">
<ele>948</ele>
<time>2013-06-29T20:17:21Z</time>
</trkpt>
<trkpt lat="38.23479212" lon="-1.14492985">
<ele>947</ele>
<time>2013-06-29T20:17:25Z</time>
</trkpt>
<trkpt lat="38.23491076" lon="-1.14472853">
<ele>944</ele>
<time>2013-06-29T20:17:29Z</time>
</trkpt>
<trkpt lat="38.23465784" lon="-1.14472963">
<ele>942</ele>
<time>2013-06-29T20:17:33Z</time>
</trkpt>
<trkpt lat="38.23444999" lon="-1.14512036">
<ele>941</ele>
<time>2013-06-29T20:17:37Z</time>
</trkpt>
<trkpt lat="38.23419809" lon="-1.14547137">
<ele>940</ele>
<time>2013-06-29T20:17:41Z</time>
</trkpt>
<trkpt lat="38.23395377" lon="-1.14579479">
<ele>940</ele>
<time>2013-06-29T20:17:45Z</time>
</trkpt>
<trkpt lat="38.23368602" lon="-1.14617431">
<ele>941</ele>
<time>2013-06-29T20:17:49Z</time>
</trkpt>
<trkpt lat="38.23347273" lon="-1.14652127">
<ele>949</ele>
<time>2013-06-29T20:17:53Z</time>
</trkpt>
<trkpt lat="38.23317628" lon="-1.14679376">
<ele>957</ele>
<time>2013-06-29T20:17:57Z</time>
</trkpt>
<trkpt lat="38.23288451" lon="-1.14704279">
<ele>964</ele>
<time>2013-06-29T20:18:01Z</time>
</trkpt>
<trkpt lat="38.23262441" lon="-1.14700973">
<ele>963</ele>
<time>2013-06-29T20:18:05Z</time>
</trkpt>
<trkpt lat="38.23266453" lon="-1.1467753">
<ele>961</ele>
<time>2013-06-29T20:18:09Z</time>
</trkpt>
<trkpt lat="38.23298041" lon="-1.14686197">
<ele>960</ele>
<time>2013-06-29T20:18:13Z</time>
</trkpt>
<trkpt lat="38.23312058" lon="-1.14744286">
<ele>956</ele>
<time>2013-06-29T20:18:17Z</time>
</trkpt>
<trkpt lat="38.23289301" lon="-1.14788229">
<ele>957</ele>
<time>2013-06-29T20:18:21Z</time>
</trkpt>
<trkpt lat="38.23263479" lon="-1.14833026">
<ele>959</ele>
<time>2013-06-29T20:18:25Z</time>
</trkpt>
<trkpt lat="38.23239256" lon="-1.14865537">
<ele>959</ele>
<time>2013-06-29T20:18:29Z</time>
</trkpt>
<trkpt lat="38.23220146" lon="-1.14858221">
<ele>956</ele>
<time>2013-06-29T20:18:33Z</time>
</trkpt>
<trkpt lat="38.23218733" lon="-1.14838869">
<ele>954</ele>
<time>2013-06-29T20:18:37Z</time>
</trkpt>
<trkpt lat="38.2324034" lon="-1.14822402">
<ele>954</ele>
<time>2013-06-29T20:18:41Z</time>
</trkpt>
<trkpt lat="38.23267454" lon="-1.14814363">
<ele>955</ele>
<time>2013-06-29T20:18:45Z</time>
</trkpt>
<trkpt lat="38.23296144" lon="-1.14807058">
<ele>956</ele>
<time>2013-06-29T20:18:49Z</time>
</trkpt>
<trkpt lat="38.23320665" lon="-1.14795337">
<ele>956</ele>
<time>2013-06-29T20:18:53Z</time>
</trkpt>
<trkpt lat="38.23343158" lon="-1.14781625">
<ele>957</ele>
<time>2013-06-29T20:18:57Z</time>
</trkpt>
<trkpt lat="38.23368554" lon="-1.14769409">
<ele>959</ele>
<time>2013-06-29T20:19:01Z</time>
</trkpt>
<trkpt lat="38.23392225" lon="-1.14754227">
<ele>961</ele>
<time>2013-06-29T20:19:05Z</time>
</trkpt>
<trkpt lat="38.23418019" lon="-1.14742362">
<ele>960</ele>
<time>2013-06-29T20:19:09Z</time>
</trkpt>
<trkpt lat="38.23439241" lon="-1.1472744">
<ele>961</ele>
<time>2013-06-29T20:19:13Z</time>
</trkpt>
<trkpt lat="38.23459175" lon="-1.14708596">
<ele>960</ele>
<time>2013-06-29T20:19:17Z</time>
</trkpt>
<trkpt lat="38.23476672" lon="-1.14687267">
<ele>959</ele>
<time>2013-06-29T20:19:21Z</time>
</trkpt>
<trkpt lat="38.23495596" lon="-1.14664979">
<ele>959</ele>
<time>2013-06-29T20:19:25Z</time>
</trkpt>
<trkpt lat="38.23509751" lon="-1.14642147">
<ele>956</ele>
<time>2013-06-29T20:19:29Z</time>
</trkpt>
<trkpt lat="38.23523374" lon="-1.14617918">
<ele>954</ele>
<time>2013-06-29T20:19:33Z</time>
</trkpt>
<trkpt lat="38.23532324" lon="-1.14589371">
<ele>953</ele>
<time>2013-06-29T20:19:37Z</time>
</trkpt>
<trkpt lat="38.23538378" lon="-1.14564154">
<ele>952</ele>
<time>2013-06-29T20:19:41Z</time>
</trkpt>
<trkpt lat="38.2353734" lon="-1.14540162">
<ele>952</ele>
<time>2013-06-29T20:19:45Z</time>
</trkpt>
<trkpt lat="38.23534266" lon="-1.14514183">
<ele>953</ele>
<time>2013-06-29T20:19:49Z</time>
</trkpt>
<trkpt lat="38.23529892" lon="-1.14489969">
<ele>948</ele>
<time>2013-06-29T20:19:53Z</time>
</trkpt>
<trkpt lat="38.23525355" lon="-1.14459403">
<ele>945</ele>
<time>2013-06-29T20:19:57Z</time>
</trkpt>
<trkpt lat="38.23521019" lon="-1.14429003">
<ele>940</ele>
<time>2013-06-29T20:20:01Z</time>
</trkpt>
<trkpt lat="38.23519559" lon="-1.14397558">
<ele>940</ele>
<time>2013-06-29T20:20:05Z</time>
</trkpt>
<trkpt lat="38.23515785" lon="-1.14369149">
<ele>939</ele>
<time>2013-06-29T20:20:09Z</time>
</trkpt>
<trkpt lat="38.2350942" lon="-1.14339448">
<ele>938</ele>
<time>2013-06-29T20:20:13Z</time>
</trkpt>
<trkpt lat="38.2350252" lon="-1.14310206">
<ele>936</ele>
<time>2013-06-29T20:20:17Z</time>
</trkpt>
<trkpt lat="38.23494809" lon="-1.14277274">
<ele>935</ele>
<time>2013-06-29T20:20:21Z</time>
</trkpt>
<trkpt lat="38.23487635" lon="-1.14246731">
<ele>931</ele>
<time>2013-06-29T20:20:25Z</time>
</trkpt>
<trkpt lat="38.23479702" lon="-1.14216169">
<ele>929</ele>
<time>2013-06-29T20:20:29Z</time>
</trkpt>
<trkpt lat="38.23468937" lon="-1.14183947">
<ele>926</ele>
<time>2013-06-29T20:20:33Z</time>
</trkpt>
<trkpt lat="38.23462776" lon="-1.14153625">
<ele>922</ele>
<time>2013-06-29T20:20:37Z</time>
</trkpt>
<trkpt lat="38.23456372" lon="-1.14121292">
<ele>918</ele>
<time>2013-06-29T20:20:41Z</time>
</trkpt>
<trkpt lat="38.23448329" lon="-1.14092801">
<ele>913</ele>
<time>2013-06-29T20:20:45Z</time>
</trkpt>
<trkpt lat="38.23439998" lon="-1.14062133">
<ele>911</ele>
<time>2013-06-29T20:20:49Z</time>
</trkpt>
<trkpt lat="38.23433218" lon="-1.14031773">
<ele>907</ele>
<time>2013-06-29T20:20:53Z</time>
</trkpt>
<trkpt lat="38.23428998" lon="-1.14001865">
<ele>903</ele>
<time>2013-06-29T20:20:57Z</time>
</trkpt>
<trkpt lat="38.23425142" lon="-1.13969518">
<ele>900</ele>
<time>2013-06-29T20:21:01Z</time>
</trkpt>
<trkpt lat="38.23420281" lon="-1.13939773">
<ele>895</ele>
<time>2013-06-29T20:21:05Z</time>
</trkpt>
<trkpt lat="38.23416428" lon="-1.13911005">
<ele>891</ele>
<time>2013-06-29T20:21:09Z</time>
</trkpt>
<trkpt lat="38.23413937" lon="-1.13884701">
<ele>886</ele>
<time>2013-06-29T20:21:13Z</time>
</trkpt>
<trkpt lat="38.23414086" lon="-1.13855225">
<ele>881</ele>
<time>2013-06-29T20:21:17Z</time>
</trkpt>
<trkpt lat="38.23411158" lon="-1.13827864">
<ele>876</ele>
<time>2013-06-29T20:21:21Z</time>
</trkpt>
<trkpt lat="38.23407443" lon="-1.13797982">
<ele>871</ele>
<time>2013-06-29T20:21:25Z</time>
</trkpt>
<trkpt lat="38.23405038" lon="-1.1376944">
<ele>865</ele>
<time>2013-06-29T20:21:29Z</time>
</trkpt>
<trkpt lat="38.23397514" lon="-1.13740345">
<ele>862</ele>
<time>2013-06-29T20:21:33Z</time>
</trkpt>
<trkpt lat="38.23387757" lon="-1.137134">
<ele>856</ele>
<time>2013-06-29T20:21:37Z</time>
</trkpt>
<trkpt lat="38.23380539" lon="-1.13684913">
<ele>851</ele>
<time>2013-06-29T20:21:41Z</time>
</trkpt>
<trkpt lat="38.23377916" lon="-1.1365865">
<ele>846</ele>
<time>2013-06-29T20:21:45Z</time>
</trkpt>
<trkpt lat="38.23375532" lon="-1.13632722">
<ele>842</ele>
<time>2013-06-29T20:21:49Z</time>
</trkpt>
<trkpt lat="38.23375837" lon="-1.13607572">
<ele>836</ele>
<time>2013-06-29T20:21:53Z</time>
</trkpt>
<trkpt lat="38.23373767" lon="-1.13580938">
<ele>837</ele>
<time>2013-06-29T20:21:57Z</time>
</trkpt>
<trkpt lat="38.23372458" lon="-1.1355582">
<ele>832</ele>
<time>2013-06-29T20:22:01Z</time>
</trkpt>
<trkpt lat="38.23372114" lon="-1.13532191">
<ele>831</ele>
<time>2013-06-29T20:22:05Z</time>
</trkpt>
<trkpt lat="38.23369239" lon="-1.13504557">
<ele>828</ele>
<time>2013-06-29T20:22:09Z</time>
</trkpt>
<trkpt lat="38.2336677" lon="-1.13479059">
<ele>825</ele>
<time>2013-06-29T20:22:13Z</time>
</trkpt>
<trkpt lat="38.23367791" lon="-1.13451973">
<ele>818</ele>
<time>2013-06-29T20:22:17Z</time>
</trkpt>
<trkpt lat="38.23368763" lon="-1.1342363">
<ele>814</ele>
<time>2013-06-29T20:22:21Z</time>
</trkpt>
<trkpt lat="38.23369158" lon="-1.13397344">
<ele>809</ele>
<time>2013-06-29T20:22:25Z</time>
</trkpt>
<trkpt lat="38.23370516" lon="-1.13369067">
<ele>804</ele>
<time>2013-06-29T20:22:29Z</time>
</trkpt>
<trkpt lat="38.23374569" lon="-1.13338841">
<ele>801</ele>
<time>2013-06-29T20:22:33Z</time>
</trkpt>
<trkpt lat="38.23378359" lon="-1.1331016">
<ele>797</ele>
<time>2013-06-29T20:22:37Z</time>
</trkpt>
<trkpt lat="38.23383221" lon="-1.1327733">
<ele>793</ele>
<time>2013-06-29T20:22:41Z</time>
</trkpt>
<trkpt lat="38.23387261" lon="-1.13248557">
<ele>790</ele>
<time>2013-06-29T20:22:45Z</time>
</trkpt>
<trkpt lat="38.23382682" lon="-1.13218792">
<ele>789</ele>
<time>2013-06-29T20:22:49Z</time>
</trkpt>
<trkpt lat="38.23380397" lon="-1.13193522">
<ele>786</ele>
<time>2013-06-29T20:22:53Z</time>
</trkpt>
<trkpt lat="38.23376677" lon="-1.131633">
<ele>785</ele>
<time>2013-06-29T20:22:57Z</time>
</trkpt>
<trkpt lat="38.23372702" lon="-1.13135441">
<ele>781</ele>
<time>2013-06-29T20:23:01Z</time>
</trkpt>
<trkpt lat="38.23367265" lon="-1.13107028">
<ele>775</ele>
<time>2013-06-29T20:23:05Z</time>
</trkpt>
<trkpt lat="38.23363732" lon="-1.13079403">
<ele>767</ele>
<time>2013-06-29T20:23:09Z</time>
</trkpt>
<trkpt lat="38.23359106" lon="-1.13046648">
<ele>761</ele>
<time>2013-06-29T20:23:13Z</time>
</trkpt>
<trkpt lat="38.23349162" lon="-1.13020249">
<ele>756</ele>
<time>2013-06-29T20:23:17Z</time>
</trkpt>
<trkpt lat="38.23345564" lon="-1.12982275">
<ele>747</ele>
<time>2013-06-29T20:23:21Z</time>
</trkpt>
<trkpt lat="38.23339387" lon="-1.12945758">
<ele>741</ele>
<time>2013-06-29T20:23:25Z</time>
</trkpt>
<trkpt lat="38.23334911" lon="-1.12903744">
<ele>733</ele>
<time>2013-06-29T20:23:29Z</time>
</trkpt>
<trkpt lat="38.2333121" lon="-1.12869747">
<ele>730</ele>
<time>2013-06-29T20:23:33Z</time>
</trkpt>
<trkpt lat="38.23326607" lon="-1.12845205">
<ele>723</ele>
<time>2013-06-29T20:23:37Z</time>
</trkpt>
<trkpt lat="38.23318296" lon="-1.1282095">
<ele>720</ele>
<time>2013-06-29T20:23:41Z</time>
</trkpt>
<trkpt lat="38.23310595" lon="-1.127978">
<ele>715</ele>
<time>2013-06-29T20:23:45Z</time>
</trkpt>
<trkpt lat="38.2330526" lon="-1.12774944">
<ele>710</ele>
<time>2013-06-29T20:23:49Z</time>
</trkpt>
<trkpt lat="38.2330118" lon="-1.1274946">
<ele>706</ele>
<time>2013-06-29T20:23:53Z</time>
</trkpt>
<trkpt lat="38.23295577" lon="-1.12720358">
<ele>702</ele>
<time>2013-06-29T20:23:57Z</time>
</trkpt>
<trkpt lat="38.23290827" lon="-1.12692895">
<ele>697</ele>
<time>2013-06-29T20:24:01Z</time>
</trkpt>
<trkpt lat="38.2328768" lon="-1.12663936">
<ele>694</ele>
<time>2013-06-29T20:24:05Z</time>
</trkpt>
<trkpt lat="38.23281499" lon="-1.12637927">
<ele>692</ele>
<time>2013-06-29T20:24:09Z</time>
</trkpt>
<trkpt lat="38.23272035" lon="-1.12617755">
<ele>688</ele>
<time>2013-06-29T20:24:13Z</time>
</trkpt>
<trkpt lat="38.23259794" lon="-1.12596961">
<ele>686</ele>
<time>2013-06-29T20:24:17Z</time>
</trkpt>
<trkpt lat="38.2325418" lon="-1.12576393">
<ele>685</ele>
<time>2013-06-29T20:24:21Z</time>
</trkpt>
<trkpt lat="38.23250318" lon="-1.12549245">
<ele>679</ele>
<time>2013-06-29T20:24:25Z</time>
</trkpt>
<trkpt lat="38.23247243" lon="-1.12524641">
<ele>675</ele>
<time>2013-06-29T20:24:29Z</time>
</trkpt>
<trkpt lat="38.23244071" lon="-1.12495227">
<ele>672</ele>
<time>2013-06-29T20:24:33Z</time>
</trkpt>
<trkpt lat="38.23244762" lon="-1.12472905">
<ele>667</ele>
<time>2013-06-29T20:24:37Z</time>
</trkpt>
<trkpt lat="38.23247122" lon="-1.12447521">
<ele>664</ele>
<time>2013-06-29T20:24:41Z</time>
</trkpt>
<trkpt lat="38.23247218" lon="-1.12423354">
<ele>659</ele>
<time>2013-06-29T20:24:45Z</time>
</trkpt>
<trkpt lat="38.23248816" lon="-1.1239863">
<ele>654</ele>
<time>2013-06-29T20:24:49Z</time>
</trkpt>
<trkpt lat="38.23251032" lon="-1.12372711">
<ele>648</ele>
<time>2013-06-29T20:24:53Z</time>
</trkpt>
<trkpt lat="38.23252438" lon="-1.1235204">
<ele>643</ele>
<time>2013-06-29T20:24:57Z</time>
</trkpt>
<trkpt lat="38.23251821" lon="-1.12326742">
<ele>639</ele>
<time>2013-06-29T20:25:01Z</time>
</trkpt>
<trkpt lat="38.23250291" lon="-1.12303803">
<ele>637</ele>
<time>2013-06-29T20:25:05Z</time>
</trkpt>
<trkpt lat="38.23250841" lon="-1.1228164">
<ele>633</ele>
<time>2013-06-29T20:25:09Z</time>
</trkpt>
<trkpt lat="38.23249373" lon="-1.12257556">
<ele>628</ele>
<time>2013-06-29T20:25:13Z</time>
</trkpt>
<trkpt lat="38.23250286" lon="-1.12234038">
<ele>623</ele>
<time>2013-06-29T20:25:17Z</time>
</trkpt>
<trkpt lat="38.23249796" lon="-1.12209497">
<ele>619</ele>
<time>2013-06-29T20:25:21Z</time>
</trkpt>
<trkpt lat="38.23251059" lon="-1.12186537">
<ele>615</ele>
<time>2013-06-29T20:25:25Z</time>
</trkpt>
<trkpt lat="38.23251154" lon="-1.12164213">
<ele>610</ele>
<time>2013-06-29T20:25:29Z</time>
</trkpt>
<trkpt lat="38.23250373" lon="-1.12141365">
<ele>607</ele>
<time>2013-06-29T20:25:33Z</time>
</trkpt>
<trkpt lat="38.23249994" lon="-1.12122448">
<ele>604</ele>
<time>2013-06-29T20:25:37Z</time>
</trkpt>
<trkpt lat="38.2325036" lon="-1.12103009">
<ele>599</ele>
<time>2013-06-29T20:25:41Z</time>
</trkpt>
<trkpt lat="38.23248821" lon="-1.12078045">
<ele>597</ele>
<time>2013-06-29T20:25:45Z</time>
</trkpt>
<trkpt lat="38.23247065" lon="-1.12057018">
<ele>594</ele>
<time>2013-06-29T20:25:49Z</time>
</trkpt>
<trkpt lat="38.23244" lon="-1.12035039">
<ele>593</ele>
<time>2013-06-29T20:25:53Z</time>
</trkpt>
<trkpt lat="38.23240193" lon="-1.12013042">
<ele>589</ele>
<time>2013-06-29T20:25:57Z</time>
</trkpt>
<trkpt lat="38.23238959" lon="-1.11989789">
<ele>587</ele>
<time>2013-06-29T20:26:01Z</time>
</trkpt>
<trkpt lat="38.23236397" lon="-1.11965364">
<ele>583</ele>
<time>2013-06-29T20:26:05Z</time>
</trkpt>
<trkpt lat="38.23235371" lon="-1.11941827">
<ele>581</ele>
<time>2013-06-29T20:26:09Z</time>
</trkpt>
<trkpt lat="38.23236918" lon="-1.11917389">
<ele>579</ele>
<time>2013-06-29T20:26:13Z</time>
</trkpt>
<trkpt lat="38.2323445" lon="-1.11894339">
<ele>577</ele>
<time>2013-06-29T20:26:17Z</time>
</trkpt>
<trkpt lat="38.23231029" lon="-1.11874443">
<ele>576</ele>
<time>2013-06-29T20:26:21Z</time>
</trkpt>
<trkpt lat="38.23229363" lon="-1.11852529">
<ele>573</ele>
<time>2013-06-29T20:26:25Z</time>
</trkpt>
<trkpt lat="38.23230199" lon="-1.11827954">
<ele>571</ele>
<time>2013-06-29T20:26:29Z</time>
</trkpt>
<trkpt lat="38.23231223" lon="-1.11801683">
<ele>569</ele>
<time>2013-06-29T20:26:33Z</time>
</trkpt>
<trkpt lat="38.23233831" lon="-1.11774788">
<ele>569</ele>
<time>2013-06-29T20:26:37Z</time>
</trkpt>
<trkpt lat="38.23237793" lon="-1.11749422">
<ele>569</ele>
<time>2013-06-29T20:26:41Z</time>
</trkpt>
<trkpt lat="38.2323966" lon="-1.11723938">
<ele>569</ele>
<time>2013-06-29T20:26:45Z</time>
</trkpt>
<trkpt lat="38.23241966" lon="-1.11699106">
<ele>569</ele>
<time>2013-06-29T20:26:49Z</time>
</trkpt>
<trkpt lat="38.23245498" lon="-1.11678847">
<ele>570</ele>
<time>2013-06-29T20:26:53Z</time>
</trkpt>
<trkpt lat="38.2324838" lon="-1.11655183">
<ele>567</ele>
<time>2013-06-29T20:26:57Z</time>
</trkpt>
<trkpt lat="38.23246434" lon="-1.11630321">
<ele>571</ele>
<time>2013-06-29T20:27:01Z</time>
</trkpt>
<trkpt lat="38.23245746" lon="-1.11613782">
<ele>569</ele>
<time>2013-06-29T20:27:05Z</time>
</trkpt>
<trkpt lat="38.23248028" lon="-1.11587333">
<ele>570</ele>
<time>2013-06-29T20:27:09Z</time>
</trkpt>
<trkpt lat="38.2324711" lon="-1.11569172">
<ele>571</ele>
<time>2013-06-29T20:27:13Z</time>
</trkpt>
<trkpt lat="38.23247224" lon="-1.11547693">
<ele>569</ele>
<time>2013-06-29T20:27:17Z</time>
</trkpt>
<trkpt lat="38.23247541" lon="-1.11524243">
<ele>564</ele>
<time>2013-06-29T20:27:21Z</time>
</trkpt>
<trkpt lat="38.23252304" lon="-1.11493603">
<ele>560</ele>
<time>2013-06-29T20:27:25Z</time>
</trkpt>
<trkpt lat="38.23257336" lon="-1.11465776">
<ele>561</ele>
<time>2013-06-29T20:27:29Z</time>
</trkpt>
<trkpt lat="38.23259878" lon="-1.11441171">
<ele>559</ele>
<time>2013-06-29T20:27:33Z</time>
</trkpt>
<trkpt lat="38.23263701" lon="-1.11417762">
<ele>557</ele>
<time>2013-06-29T20:27:37Z</time>
</trkpt>
<trkpt lat="38.23267276" lon="-1.11390779">
<ele>555</ele>
<time>2013-06-29T20:27:41Z</time>
</trkpt>
<trkpt lat="38.23272843" lon="-1.11366674">
<ele>552</ele>
<time>2013-06-29T20:27:45Z</time>
</trkpt>
<trkpt lat="38.23279391" lon="-1.11336961">
<ele>549</ele>
<time>2013-06-29T20:27:49Z</time>
</trkpt>
<trkpt lat="38.23287344" lon="-1.11313856">
<ele>549</ele>
<time>2013-06-29T20:27:53Z</time>
</trkpt>
<trkpt lat="38.23291725" lon="-1.11286362">
<ele>546</ele>
<time>2013-06-29T20:27:57Z</time>
</trkpt>
<trkpt lat="38.23299026" lon="-1.11258562">
<ele>543</ele>
<time>2013-06-29T20:28:01Z</time>
</trkpt>
<trkpt lat="38.23307375" lon="-1.1123264">
<ele>542</ele>
<time>2013-06-29T20:28:05Z</time>
</trkpt>
<trkpt lat="38.23317455" lon="-1.11202408">
<ele>542</ele>
<time>2013-06-29T20:28:09Z</time>
</trkpt>
<trkpt lat="38.23326325" lon="-1.11174191">
<ele>542</ele>
<time>2013-06-29T20:28:13Z</time>
</trkpt>
<trkpt lat="38.23333931" lon="-1.11148667">
<ele>545</ele>
<time>2013-06-29T20:28:17Z</time>
</trkpt>
<trkpt lat="38.2333638" lon="-1.11123874">
<ele>548</ele>
<time>2013-06-29T20:28:21Z</time>
</trkpt>
<trkpt lat="38.23337419" lon="-1.11099007">
<ele>548</ele>
<time>2013-06-29T20:28:25Z</time>
</trkpt>
<trkpt lat="38.23340322" lon="-1.11072651">
<ele>550</ele>
<time>2013-06-29T20:28:29Z</time>
</trkpt>
<trkpt lat="38.2334558" lon="-1.11049444">
<ele>551</ele>
<time>2013-06-29T20:28:33Z</time>
</trkpt>
<trkpt lat="38.23353878" lon="-1.11022351">
<ele>552</ele>
<time>2013-06-29T20:28:37Z</time>
</trkpt>
<trkpt lat="38.23366627" lon="-1.10998224">
<ele>540</ele>
<time>2013-06-29T20:28:41Z</time>
</trkpt>
<trkpt lat="38.2337893" lon="-1.10973436">
<ele>532</ele>
<time>2013-06-29T20:28:45Z</time>
</trkpt>
<trkpt lat="38.23399375" lon="-1.1095179">
<ele>531</ele>
<time>2013-06-29T20:28:49Z</time>
</trkpt>
<trkpt lat="38.23424735" lon="-1.10936478">
<ele>526</ele>
<time>2013-06-29T20:28:53Z</time>
</trkpt>
<trkpt lat="38.23455343" lon="-1.10919233">
<ele>527</ele>
<time>2013-06-29T20:28:57Z</time>
</trkpt>
<trkpt lat="38.23484971" lon="-1.10902571">
<ele>529</ele>
<time>2013-06-29T20:29:01Z</time>
</trkpt>
<trkpt lat="38.23517011" lon="-1.10892057">
<ele>536</ele>
<time>2013-06-29T20:29:05Z</time>
</trkpt>
<trkpt lat="38.23549453" lon="-1.10878481">
<ele>538</ele>
<time>2013-06-29T20:29:09Z</time>
</trkpt>
<trkpt lat="38.23574267" lon="-1.108681">
<ele>539</ele>
<time>2013-06-29T20:29:13Z</time>
</trkpt>
<trkpt lat="38.23606865" lon="-1.1085577">
<ele>540</ele>
<time>2013-06-29T20:29:17Z</time>
</trkpt>
<trkpt lat="38.23637825" lon="-1.10844315">
<ele>539</ele>
<time>2013-06-29T20:29:21Z</time>
</trkpt>
<trkpt lat="38.23663551" lon="-1.10824473">
<ele>541</ele>
<time>2013-06-29T20:29:25Z</time>
</trkpt>
<trkpt lat="38.23664908" lon="-1.10797463">
<ele>540</ele>
<time>2013-06-29T20:29:29Z</time>
</trkpt>
<trkpt lat="38.23638447" lon="-1.1081047">
<ele>542</ele>
<time>2013-06-29T20:29:33Z</time>
</trkpt>
<trkpt lat="38.2362633" lon="-1.10852115">
<ele>542</ele>
<time>2013-06-29T20:29:37Z</time>
</trkpt>
<trkpt lat="38.23612924" lon="-1.10899345">
<ele>546</ele>
<time>2013-06-29T20:29:41Z</time>
</trkpt>
<trkpt lat="38.23593097" lon="-1.10939717">
<ele>546</ele>
<time>2013-06-29T20:29:45Z</time>
</trkpt>
<trkpt lat="38.23571497" lon="-1.10969805">
<ele>549</ele>
<time>2013-06-29T20:29:49Z</time>
</trkpt>
<trkpt lat="38.23562893" lon="-1.10945246">
<ele>549</ele>
<time>2013-06-29T20:29:53Z</time>
</trkpt>
<trkpt lat="38.23593488" lon="-1.10922723">
<ele>554</ele>
<time>2013-06-29T20:29:57Z</time>
</trkpt>
<trkpt lat="38.23611059" lon="-1.10901557">
<ele>554</ele>
<time>2013-06-29T20:30:01Z</time>
</trkpt>
<trkpt lat="38.2363191" lon="-1.10879987">
<ele>556</ele>
<time>2013-06-29T20:30:05Z</time>
</trkpt>
<trkpt lat="38.23649762" lon="-1.1085308">
<ele>556</ele>
<time>2013-06-29T20:30:09Z</time>
</trkpt>
<trkpt lat="38.23665563" lon="-1.10823048">
<ele>556</ele>
<time>2013-06-29T20:30:13Z</time>
</trkpt>
<trkpt lat="38.23685561" lon="-1.10793652">
<ele>556</ele>
<time>2013-06-29T20:30:17Z</time>
</trkpt>
<trkpt lat="38.23702606" lon="-1.10763918">
<ele>556</ele>
<time>2013-06-29T20:30:21Z</time>
</trkpt>
<trkpt lat="38.23713483" lon="-1.10734156">
<ele>555</ele>
<time>2013-06-29T20:30:25Z</time>
</trkpt>
<trkpt lat="38.23684642" lon="-1.10742685">
<ele>556</ele>
<time>2013-06-29T20:30:29Z</time>
</trkpt>
<trkpt lat="38.23668495" lon="-1.10779884">
<ele>557</ele>
<time>2013-06-29T20:30:33Z</time>
</trkpt>
<trkpt lat="38.23649844" lon="-1.10822715">
<ele>557</ele>
<time>2013-06-29T20:30:37Z</time>
</trkpt>
<trkpt lat="38.23631902" lon="-1.10865871">
<ele>560</ele>
<time>2013-06-29T20:30:41Z</time>
</trkpt>
<trkpt lat="38.23614149" lon="-1.10905029">
<ele>562</ele>
<time>2013-06-29T20:30:45Z</time>
</trkpt>
<trkpt lat="38.2359505" lon="-1.10944147">
<ele>567</ele>
<time>2013-06-29T20:30:49Z</time>
</trkpt>
<trkpt lat="38.23571754" lon="-1.10974476">
<ele>567</ele>
<time>2013-06-29T20:30:53Z</time>
</trkpt>
<trkpt lat="38.23560484" lon="-1.10958034">
<ele>565</ele>
<time>2013-06-29T20:30:57Z</time>
</trkpt>
<trkpt lat="38.23586386" lon="-1.10935905">
<ele>565</ele>
<time>2013-06-29T20:31:01Z</time>
</trkpt>
<trkpt lat="38.23597592" lon="-1.1091011">
<ele>565</ele>
<time>2013-06-29T20:31:05Z</time>
</trkpt>
<trkpt lat="38.23569272" lon="-1.10917199">
<ele>560</ele>
<time>2013-06-29T20:31:09Z</time>
</trkpt>
<trkpt lat="38.23555361" lon="-1.10966136">
<ele>566</ele>
<time>2013-06-29T20:31:13Z</time>
</trkpt>
<trkpt lat="38.23534158" lon="-1.11011282">
<ele>566</ele>
<time>2013-06-29T20:31:17Z</time>
</trkpt>
<trkpt lat="38.23517307" lon="-1.11051363">
<ele>572</ele>
<time>2013-06-29T20:31:21Z</time>
</trkpt>
<trkpt lat="38.23494256" lon="-1.1109336">
<ele>574</ele>
<time>2013-06-29T20:31:25Z</time>
</trkpt>
<trkpt lat="38.23470561" lon="-1.11129437">
<ele>575</ele>
<time>2013-06-29T20:31:29Z</time>
</trkpt>
<trkpt lat="38.23445806" lon="-1.11166425">
<ele>575</ele>
<time>2013-06-29T20:31:33Z</time>
</trkpt>
<trkpt lat="38.23418326" lon="-1.11202237">
<ele>574</ele>
<time>2013-06-29T20:31:37Z</time>
</trkpt>
<trkpt lat="38.23390405" lon="-1.11234761">
<ele>574</ele>
<time>2013-06-29T20:31:41Z</time>
</trkpt>
<trkpt lat="38.2336411" lon="-1.11266555">
<ele>569</ele>
<time>2013-06-29T20:31:45Z</time>
</trkpt>
<trkpt lat="38.23337861" lon="-1.11300602">
<ele>565</ele>
<time>2013-06-29T20:31:49Z</time>
</trkpt>
<trkpt lat="38.23312822" lon="-1.11342684">
<ele>565</ele>
<time>2013-06-29T20:31:53Z</time>
</trkpt>
<trkpt lat="38.23303083" lon="-1.11392968">
<ele>570</ele>
<time>2013-06-29T20:31:57Z</time>
</trkpt>
<trkpt lat="38.23300406" lon="-1.11452209">
<ele>569</ele>
<time>2013-06-29T20:32:01Z</time>
</trkpt>
<trkpt lat="38.23301685" lon="-1.11506603">
<ele>569</ele>
<time>2013-06-29T20:32:05Z</time>
</trkpt>
<trkpt lat="38.2330976" lon="-1.11566591">
<ele>570</ele>
<time>2013-06-29T20:32:09Z</time>
</trkpt>
<trkpt lat="38.23321475" lon="-1.11626517">
<ele>569</ele>
<time>2013-06-29T20:32:13Z</time>
</trkpt>
<trkpt lat="38.23332624" lon="-1.11685617">
<ele>574</ele>
<time>2013-06-29T20:32:17Z</time>
</trkpt>
<trkpt lat="38.23343004" lon="-1.11743084">
<ele>576</ele>
<time>2013-06-29T20:32:21Z</time>
</trkpt>
<trkpt lat="38.23346345" lon="-1.11799548">
<ele>577</ele>
<time>2013-06-29T20:32:25Z</time>
</trkpt>
<trkpt lat="38.23338879" lon="-1.11858978">
<ele>578</ele>
<time>2013-06-29T20:32:29Z</time>
</trkpt>
<trkpt lat="38.23325722" lon="-1.11910461">
<ele>576</ele>
<time>2013-06-29T20:32:33Z</time>
</trkpt>
<trkpt lat="38.23308166" lon="-1.11960231">
<ele>574</ele>
<time>2013-06-29T20:32:37Z</time>
</trkpt>
<trkpt lat="38.23293682" lon="-1.1200813">
<ele>574</ele>
<time>2013-06-29T20:32:41Z</time>
</trkpt>
<trkpt lat="38.23276882" lon="-1.12050338">
<ele>571</ele>
<time>2013-06-29T20:32:45Z</time>
</trkpt>
<trkpt lat="38.23256245" lon="-1.12088533">
<ele>569</ele>
<time>2013-06-29T20:32:49Z</time>
</trkpt>
<trkpt lat="38.23234067" lon="-1.12124703">
<ele>567</ele>
<time>2013-06-29T20:32:53Z</time>
</trkpt>
<trkpt lat="38.23209781" lon="-1.12154493">
<ele>564</ele>
<time>2013-06-29T20:32:57Z</time>
</trkpt>
<trkpt lat="38.23184698" lon="-1.12168669">
<ele>561</ele>
<time>2013-06-29T20:33:01Z</time>
</trkpt>
<trkpt lat="38.23166238" lon="-1.12164422">
<ele>556</ele>
<time>2013-06-29T20:33:05Z</time>
</trkpt>
<trkpt lat="38.23160893" lon="-1.12146018">
<ele>552</ele>
<time>2013-06-29T20:33:09Z</time>
</trkpt>
<trkpt lat="38.23171352" lon="-1.1212408">
<ele>546</ele>
<time>2013-06-29T20:33:13Z</time>
</trkpt>
<trkpt lat="38.23176182" lon="-1.12104202">
<ele>544</ele>
<time>2013-06-29T20:33:17Z</time>
</trkpt>
<trkpt lat="38.23161512" lon="-1.12096752">
<ele>537</ele>
<time>2013-06-29T20:33:21Z</time>
</trkpt>
<trkpt lat="38.23148582" lon="-1.12091848">
<ele>534</ele>
<time>2013-06-29T20:33:25Z</time>
</trkpt>
<trkpt lat="38.23132865" lon="-1.12087163">
<ele>533</ele>
<time>2013-06-29T20:33:29Z</time>
</trkpt>
<trkpt lat="38.23126416" lon="-1.12072276">
<ele>531</ele>
<time>2013-06-29T20:33:33Z</time>
</trkpt>
<trkpt lat="38.2311426" lon="-1.1205774">
<ele>528</ele>
<time>2013-06-29T20:33:37Z</time>
</trkpt>
<trkpt lat="38.23101129" lon="-1.12039797">
<ele>524</ele>
<time>2013-06-29T20:33:41Z</time>
</trkpt>
<trkpt lat="38.23087253" lon="-1.12023552">
<ele>521</ele>
<time>2013-06-29T20:33:45Z</time>
</trkpt>
<trkpt lat="38.23070227" lon="-1.12010937">
<ele>520</ele>
<time>2013-06-29T20:33:49Z</time>
</trkpt>
<trkpt lat="38.23050375" lon="-1.12003803">
<ele>517</ele>
<time>2013-06-29T20:33:53Z</time>
</trkpt>
<trkpt lat="38.23037089" lon="-1.11996069">
<ele>512</ele>
<time>2013-06-29T20:33:57Z</time>
</trkpt>
<trkpt lat="38.23022763" lon="-1.11980908">
<ele>508</ele>
<time>2013-06-29T20:34:01Z</time>
</trkpt>
<trkpt lat="38.23006298" lon="-1.11972065">
<ele>503</ele>
<time>2013-06-29T20:34:05Z</time>
</trkpt>
<trkpt lat="38.2298625" lon="-1.11964675">
<ele>502</ele>
<time>2013-06-29T20:34:09Z</time>
</trkpt>
<trkpt lat="38.22968125" lon="-1.11946488">
<ele>502</ele>
<time>2013-06-29T20:34:13Z</time>
</trkpt>
<trkpt lat="38.22964696" lon="-1.11916208">
<ele>498</ele>
<time>2013-06-29T20:34:17Z</time>
</trkpt>
<trkpt lat="38.22966541" lon="-1.11888353">
<ele>496</ele>
<time>2013-06-29T20:34:21Z</time>
</trkpt>
<trkpt lat="38.22957031" lon="-1.11862666">
<ele>494</ele>
<time>2013-06-29T20:34:25Z</time>
</trkpt>
<trkpt lat="38.22944087" lon="-1.11849155">
<ele>493</ele>
<time>2013-06-29T20:34:29Z</time>
</trkpt>
<trkpt lat="38.22920485" lon="-1.1185646">
<ele>488</ele>
<time>2013-06-29T20:34:33Z</time>
</trkpt>
<trkpt lat="38.22901131" lon="-1.11855125">
<ele>487</ele>
<time>2013-06-29T20:34:37Z</time>
</trkpt>
<trkpt lat="38.2288935" lon="-1.11834766">
<ele>484</ele>
<time>2013-06-29T20:34:41Z</time>
</trkpt>
<trkpt lat="38.22881764" lon="-1.11820757">
<ele>476</ele>
<time>2013-06-29T20:34:45Z</time>
</trkpt>
<trkpt lat="38.22869798" lon="-1.11800691">
<ele>472</ele>
<time>2013-06-29T20:34:49Z</time>
</trkpt>
<trkpt lat="38.22856922" lon="-1.11784973">
<ele>467</ele>
<time>2013-06-29T20:34:53Z</time>
</trkpt>
<trkpt lat="38.22835079" lon="-1.11785106">
<ele>462</ele>
<time>2013-06-29T20:34:57Z</time>
</trkpt>
<trkpt lat="38.22810282" lon="-1.11811387">
<ele>459</ele>
<time>2013-06-29T20:35:01Z</time>
</trkpt>
<trkpt lat="38.22795122" lon="-1.11863479">
<ele>456</ele>
<time>2013-06-29T20:35:05Z</time>
</trkpt>
<trkpt lat="38.22799435" lon="-1.11921607">
<ele>450</ele>
<time>2013-06-29T20:35:09Z</time>
</trkpt>
<trkpt lat="38.22830857" lon="-1.11970997">
<ele>449</ele>
<time>2013-06-29T20:35:13Z</time>
</trkpt>
<trkpt lat="38.22837356" lon="-1.12039639">
<ele>443</ele>
<time>2013-06-29T20:35:17Z</time>
</trkpt>
<trkpt lat="38.22879239" lon="-1.12068556">
<ele>443</ele>
<time>2013-06-29T20:35:21Z</time>
</trkpt>
<trkpt lat="38.2289269" lon="-1.12128998">
<ele>446</ele>
<time>2013-06-29T20:35:25Z</time>
</trkpt>
<trkpt lat="38.22918092" lon="-1.12171717">
<ele>441</ele>
<time>2013-06-29T20:35:29Z</time>
</trkpt>
<trkpt lat="38.22951751" lon="-1.12196623">
<ele>440</ele>
<time>2013-06-29T20:35:33Z</time>
</trkpt>
<trkpt lat="38.22991534" lon="-1.12213853">
<ele>435</ele>
<time>2013-06-29T20:35:37Z</time>
</trkpt>
<trkpt lat="38.2302287" lon="-1.12213394">
<ele>431</ele>
<time>2013-06-29T20:35:41Z</time>
</trkpt>
<trkpt lat="38.23052029" lon="-1.12199192">
<ele>427</ele>
<time>2013-06-29T20:35:45Z</time>
</trkpt>
<trkpt lat="38.23071181" lon="-1.12176881">
<ele>424</ele>
<time>2013-06-29T20:35:49Z</time>
</trkpt>
<trkpt lat="38.23080595" lon="-1.12156068">
<ele>422</ele>
<time>2013-06-29T20:35:53Z</time>
</trkpt>
<trkpt lat="38.23089237" lon="-1.12134107">
<ele>420</ele>
<time>2013-06-29T20:35:57Z</time>
</trkpt>
<trkpt lat="38.2306712" lon="-1.1215262">
<ele>420</ele>
<time>2013-06-29T20:36:01Z</time>
</trkpt>
<trkpt lat="38.23050161" lon="-1.12166937">
<ele>419</ele>
<time>2013-06-29T20:36:05Z</time>
</trkpt>
<trkpt lat="38.23032241" lon="-1.12171028">
<ele>417</ele>
<time>2013-06-29T20:36:09Z</time>
</trkpt>
<trkpt lat="38.23029955" lon="-1.12153743">
<ele>415</ele>
<time>2013-06-29T20:36:13Z</time>
</trkpt>
<trkpt lat="38.23027699" lon="-1.12138732">
<ele>414</ele>
<time>2013-06-29T20:36:17Z</time>
</trkpt>
<trkpt lat="38.23025871" lon="-1.12133596">
<ele>413</ele>
<time>2013-06-29T20:36:21Z</time>
</trkpt>
<trkpt lat="38.23025907" lon="-1.12134768">
<ele>413</ele>
<time>2013-06-29T20:36:25Z</time>
</trkpt>
<trkpt lat="38.23025782" lon="-1.12134443">
<ele>413</ele>
<time>2013-06-29T20:36:29Z</time>
</trkpt>
<trkpt lat="38.23025434" lon="-1.12134492">
<ele>413</ele>
<time>2013-06-29T20:36:33Z</time>
</trkpt>
<trkpt lat="38.23025666" lon="-1.1213406">
<ele>413</ele>
<time>2013-06-29T20:36:37Z</time>
</trkpt>
<trkpt lat="38.23025233" lon="-1.12135032">
<ele>412</ele>
<time>2013-06-29T20:36:41Z</time>
</trkpt>
<trkpt lat="38.23025312" lon="-1.1213501">
<ele>412</ele>
<time>2013-06-29T20:36:45Z</time>
</trkpt>
<trkpt lat="38.23025314" lon="-1.12135011">
<ele>412</ele>
<time>2013-06-29T20:36:49Z</time>
</trkpt>
<trkpt lat="38.23025314" lon="-1.12135007">
<ele>412</ele>
<time>2013-06-29T20:36:53Z</time>
</trkpt>
<trkpt lat="38.23025322" lon="-1.12135001">
<ele>412</ele>
<time>2013-06-29T20:36:57Z</time>
</trkpt>
<trkpt lat="38.23025329" lon="-1.12134994">
<ele>412</ele>
<time>2013-06-29T20:37:01Z</time>
</trkpt>
<trkpt lat="38.23025857" lon="-1.1213497">
<ele>411</ele>
<time>2013-06-29T20:37:05Z</time>
</trkpt>
<trkpt lat="38.23025477" lon="-1.12135209">
<ele>412</ele>
<time>2013-06-29T20:37:09Z</time>
</trkpt>
<trkpt lat="" lon="">
<ele></ele>
<time>2013-06-29TZ</time>
</trkpt>
</trkseg>
</trk>
<wpt lat="" lon="">
	<name></name>
	<desc></desc>
	<cmt></cmt>
	<photoid></photoid>
	<type></type>
</wpt>
</gpx>
</gpx>
